     2.11           OBSERVATION DATA    G (GPS)             RINEX VERSION / TYPE
teqc 2010Oct21 OPUS Account 20111026 21:25:30UTC            PGM / RUN BY / DATE
S 1523                                                      MARKER NAME
1197                                                        MARKER NUMBER
CSMIDDLETON NGS                                             OBSERVER / AGENCY
0220284361 TRIMBLE 5700 NP 1.22 / SP 1.22                   REC # / TYPE / VERS
12234991 TRM41249.00 NONE                                   ANT # / TYPE
  -752319.2242 -5516922.9733  3100734.8077                  APPROX POSITION XYZ
        2.0000        0.0000        0.0000                  ANTENNA: DELTA H/E/N
     1     1                                                WAVELENGTH FACT L1/2
     5    L1    L2    C1    P1    P2                        # / TYPES OF OBSERV
    15                                                      LEAP SECONDS
  2011     8    12    16    47   45.0000000     GPS         TIME OF FIRST OBS
                                                            END OF HEADER
 11  8 12 16 47 45.0000000  0  9G03G06G07G08G10G13G16G19G23
     15499.18858      4941.76756  21026158.6564                   21026157.1564
     37987.25857     17560.53155  22779793.7734                   22779793.1024
    -92559.19957    -58423.02956  21864646.8204                   21864645.0314
   -104970.57057    -66321.45554  23800079.7894                   23800078.9574
    -10767.82457    -11249.55854  23791481.0164                   23791480.7274
    -32227.65258    -22916.85356  19898258.9534                   19898256.4104
     61603.41856     31122.33154  23318459.0084                   23318456.7074
    -63538.41458    -41117.41256  20925530.5314                   20925525.9304
     29089.56658     12272.49856  20453647.1564                   20453642.8954
 11  8 12 16 48  0.0000000  0  9G03G06G07G08G10G13G16G19G23
     22453.41448     10360.63345  21027482.1724                   21027480.4494
     55496.39547     31204.00145  22783125.8134                   22783125.1254
   -137080.48047    -93114.92846  21856174.9924                   21856173.0044
   -156059.37147   -106130.84343  23790359.1024                   23790357.6174
    -16665.16446    -15844.92644  23790358.5704                   23790358.6174
    -47699.98447    -34973.23147  19895315.1414                   19895312.2704
     90094.49646     53323.15644  23323881.2584                   23323878.8054
    -93882.98047    -64762.51546  20919756.0944                   20919751.8134
     42345.12548     22601.48746  20456169.6024                   20456165.4144
 11  8 12 16 48 15.0000000  0  9G03G06G07G08G10G13G16G19G23
     29442.96548     15807.04945  21028812.0784                   21028810.4924
     73002.56347     44845.16245  22786457.1884                   22786456.3134
   -181697.20347   -127881.20846  21847684.8134                   21847681.9614
   -207270.73047   -146035.81644  23780613.7814                   23780612.3754
    -22563.10246    -20440.73444  23789236.3834                   23789236.0704
    -63133.18447    -46999.11247  19892378.3594                   19892375.2234
    118478.53146     75440.57244  23329281.1564                   23329280.0744
   -124188.73048    -88377.38346  20913988.8444                   20913984.6644
     55621.16448     32946.44346  20458696.0704                   20458691.4454
 11  8 12 16 48 30.0000000  0  9G03G06G07G08G10G13G16G19G23
     36533.24648     21331.93545  21030161.5314                   21030159.5084
     90571.09047     58534.89645  22789799.7344                   22789799.1454
   -226343.82047   -162670.76746  21839188.8054                   21839185.9494
   -258539.11347   -185985.17644  23770857.5784                   23770857.2154
    -28396.35947    -24986.16843  23788126.8834                   23788126.3714
    -78461.88748    -58943.56847  19889461.0944                   19889458.4184
    146820.69546     97525.29844  23334675.9384                   23334673.7344
   -154390.16848   -111910.96546  20908242.1024                   20908237.4694
     68982.99248     43358.23546  20461238.8834                   20461234.6604
 11  8 12 16 48 45.0000000  0  9G03G06G07G08G10G13G16G19G23
     43747.33248     26953.28745  21031534.0314                   21031532.2114
    108225.14847     72291.28545  22793159.6024                   22793158.9574
   -270996.71147   -197465.23046  21830691.3834                   21830689.1884
   -309840.80147   -225960.49644  23761095.5314                   23761094.7424
    -34141.53146    -29462.93844  23787032.6804                   23787033.2344
    -93662.29748    -70788.05247  19886568.7114                   19886565.6454
    175144.38746    119595.70144  23340065.1644                   23340063.1994
   -184463.52347   -135344.73746  20902519.0164                   20902515.2344
     82454.07448     53855.17046  20463802.2034                   20463798.0354
 11  8 12 16 49  0.0000000  0  9G03G06G07G08G10G13G16G19G23
     51085.37948     32671.25145  21032930.2664                   21032929.0124
    125964.79747     86114.36845  22796535.3364                   22796534.3984
   -315655.48047   -232264.27746  21822193.2734                   21822191.2074
   -361175.78147   -265961.74244  23751325.9774                   23751325.8094
    -39798.50046    -33870.99544  23785956.2274                   23785956.5434
   -108734.19148    -82532.39546  19883700.4924                   19883697.5944
    203449.57846    141651.68844  23345451.6254                   23345448.8674
   -214408.19948   -158678.24646  20896820.6564                   20896816.9024
     96034.37548     64437.20046  20466386.1724                   20466382.5554
 11  8 12 16 49 15.0000000  0  9G03G06G07G08G10G13G16G19G23
     58561.16447     38496.52045  21034353.1884                   21034351.7424
    143803.73447    100014.79744  22799929.8134                   22799929.1134
   -360306.08647   -267056.94046  21813696.2734                   21813693.9774
   -412529.80147   -305977.85244  23741553.9924                   23741553.6174
    -45353.59846    -38199.68443  23784898.8054                   23784899.7424
   -123663.39148    -94165.54246  19880859.8914                   19880856.7624
    231750.12146    163703.99644  23350836.8134                   23350834.7814
   -244210.23848   -181900.60146  20891149.4304                   20891145.9574
    109737.69548     75115.10046  20468994.0554                   20468990.1334
 11  8 12 16 49 30.0000000  0  9G03G06G07G08G10G13G16G19G23
   1641598.50448   1272032.11645  21335595.4064                   21335593.1484
   1737165.09047   1341595.05545  23103136.5314                   23103135.6564
   1170479.27347    925762.81846  22104995.3524                   22104992.7624
   1111525.14147    881597.49844  24031571.9144                   24031571.9494
   1524617.99246   1185154.81944  24083655.3524                   24083655.1764
   1436975.67648   1121916.83346  20177839.6254                   20177836.8014
   1835468.58246   1413354.72644  23656014.5314                   23656012.6844
   1301557.25048   1022593.56246  21185299.1804                   21185295.3914
   1698987.57848   1313491.61646  20771418.2664                   20771414.0474
 11  8 12 16 49 45.0000000  0  9G03G06G07G08G10G13G16G19G23
   1649360.76248   1278080.62345  21337072.3984                   21337070.2974
   1755213.42247   1355658.69744  23106570.5554                   23106570.0554
   1125857.12947    890992.32446  22096504.3524                   22096501.3984
   1060144.62547    841560.71244  24021795.0164                   24021794.3324
   1519277.79346   1180993.58743  24082638.7114                   24082638.6844
   1422343.53147   1110515.15746  20175055.0784                   20175051.9774
   1863770.89146   1435408.44444  23661400.2734                   23661398.6884
   1272052.82847    999603.11946  21179684.6884                   21179681.4344
   1712948.03948   1324369.87946  20774075.2424                   20774070.6454
 11  8 12 16 50  0.0000000  0  9G03G06G07G08G10G13G16G19G23
   1657267.48848   1284241.69445  21338576.7504                   21338575.0784
   1773367.55547   1369804.72644  23110025.7504                   23110024.5704
   1081251.07447    856234.35746  22088015.6484                   22088012.9924
   1008752.40647    801514.85844  24012015.0784                   24012015.0514
   1514046.23447   1176917.00543  24081643.3524                   24081643.6804
   1407861.63348   1099230.54446  20172299.4774                   20172296.7384
   1892075.39146   1457463.87744  23666786.6954                   23666784.2544
   1242699.12948    976730.11646  21174098.7974                   21174094.9494
   1727038.42248   1335349.38946  20776756.1954                   20776751.6684
 11  8 12 16 50 15.0000000  0  9G03G06G07G08G10G13G16G19G23
   1665321.07048   1290517.20545  21340109.2194                   21340107.8984
   1791629.86347   1384035.09345  23113500.9694                   23113500.0594
   1036663.50847    821490.81646  22079530.6024                   22079528.2704
    957350.91047    761461.74444  24002232.9064                   24002233.6724
   1508925.60546   1172926.84143  24080668.8054                   24080669.4964
   1393532.50447   1088064.98746  20169572.2194                   20169569.5704
   1920384.40246   1479522.80744  23672173.3054                   23672171.3834
   1213498.76247    953976.58346  21168542.3914                   21168538.1684
   1741261.00048   1346431.89746  20779462.7274                   20779458.3444
 11  8 12 16 50 30.0000000  0  9G03G06G07G08G10G13G16G19G23
   1673519.09848   1296905.26545  21341669.5704                   21341667.3954
   1809998.04347   1398347.93945  23116996.7584                   23116995.9064
    992092.62547    786760.25646  22071049.3914                   22071046.9964
    905938.28146    721399.96844  23992449.5554                   23992450.0274
   1503913.75047   1169021.49444  24079715.9924                   24079715.9614
   1379354.36747   1077017.07946  20166874.7344                   20166871.8634
   1948695.73046   1501583.58744  23677561.0784                   23677559.3524
   1184449.90247    931341.13346  21163014.4924                   21163010.2584
   1755613.59848   1357615.73146  20782193.9924                   20782189.8914
 11  8 12 16 50 45.0000000  0  9G03G06G07G08G10G13G16G19G23
   1681862.60248   1303406.69245  21343257.0004                   21343255.5234
   1828473.07447   1412744.03944  23120511.6174                   23120511.1054
    947539.73447    752043.72846  22062571.1804                   22062568.9804
    854515.66446    681330.41844  23982664.5164                   23982664.0474
   1499011.50446   1165201.53644  24078783.2584                   24078782.9534
   1365328.50847   1066087.82346  20164205.5004                   20164202.6684
   1977010.28546   1523646.83044  23682948.6564                   23682947.1484
   1155553.95347    908824.80746  21157515.8754                   21157511.6954
   1770097.24248   1368901.66446  20784949.9454                   20784945.8134
 11  8 12 16 51  0.0000000  0  9G03G06G07G08G10G13G16G19G23
   1690350.75448   1310020.83045  21344872.7504                   21344870.6604
   1847053.90247   1427222.58145  23124047.8984                   23124046.5634
    903004.28947    717340.78446  22054096.4144                   22054094.1454
    803082.60246    641252.71044  23972876.5704                   23972876.9734
   1494217.96947   1161466.31444  24077870.9304                   24077870.3874
   1351454.21148   1055276.67246  20161565.2584                   20161562.0314
   2005327.30146   1545712.00944  23688337.8524                   23688335.0744
   1126810.39147    886427.24246  21152045.9454                   21152042.0514
   1784711.01248   1380289.00146  20787731.1484                   20787726.7624
 11  8 12 16 51 15.0000000  0  9G03G06G07G08G10G13G16G19G23
   1698984.93848   1316748.75945  21346515.7814                   21346513.5044
   1865742.07447   1441784.78845  23127604.1414                   23127603.0744
    858488.19147    682652.92246  22045625.1414                   22045622.6254
    751640.71547    601168.13244  23963087.5784                   23963088.1414
   1489534.75447   1157817.02244  24076980.5394                   24076979.1294
   1337733.32048   1044585.06146  20158954.7584                   20158951.1724
   2033648.49247   1567780.46244  23693726.7894                   23693724.5044
   1098221.11347    864149.88446  21146605.4774                   21146601.8324
   1799456.41048   1391778.90546  20790537.0864                   20790532.3834
 11  8 12 16 51 30.0000000  0  9G03G06G07G08G10G13G16G19G23
   1707766.39848   1323591.45446  21348186.6414                   21348185.0944
   1884538.65647   1456431.45245  23131180.8284                   23131180.0434
    813992.92647    647981.29746  22037157.7114                   22037155.1724
    700191.50846    561077.88144  23953297.3594                   23953297.6484
   1484962.83646   1154254.49444  24076108.8134                   24076109.2584
   1324167.27047   1034014.11847  20156372.8594                   20156369.8834
   2061974.69947   1589852.77844  23699117.2424                   23699115.3164
   1069787.54747    841993.88646  21141194.8524                   21141191.0204
   1814334.65248   1403372.33146  20793368.2274                   20793364.1564
 11  8 12 16 51 45.0000000  0  9G03G06G07G08G10G13G16G19G23
   1716690.13348   1330544.99145  21349884.5944                   21349883.0474
   1903438.59847   1471158.65545  23134777.6174                   23134776.2734
    769513.70347    613322.15746  22028693.8134                   22028691.5434
    648730.10246    520978.10144  23943504.5864                   23943504.2424
   1480497.31346   1150774.82244  24075259.5634                   24075259.8524
   1310751.27048   1023560.09147  20153819.9304                   20153816.9844
   2090301.03546   1611925.26144  23704507.2504                   23704505.3404
   1041505.19148    819955.68946  21135813.1024                   21135809.2584
   1829340.72748   1415065.35446  20796223.6724                   20796219.6054
 11  8 12 16 52  0.0000000  0  9G03G06G07G08G10G13G16G19G23
   1725759.14848   1337611.73945  21351610.8914                   21351608.7734
   1922445.00047   1485968.82545  23138394.5554                   23138393.3404
    725054.12147    578678.34346  22020233.7034                   22020231.3054
    597259.84846    480871.39943  23933709.6024                   23933709.6884
   1476141.17646   1147380.41844  24074430.7194                   24074430.3524
   1297488.78548   1013225.67846  20151296.0704                   20151292.9104
   2118630.70346   1634000.26444  23709898.5314                   23709896.4884
   1013377.64848    798038.13746  21130460.3754                   21130456.3324
   1844477.78948   1426860.44946  20799104.3984                   20799100.0554
 11  8 12 16 52 15.0000000  0  9G03G06G07G08G10G13G16G19G23
   1734972.76648   1344791.17345  21353363.7584                   21353361.8984
   1941556.82047   1500861.12644  23142031.1254                   23142029.7464
    680613.50447    544049.30046  22011776.8984                   22011774.2034
    545780.27346    440757.47843  23923913.8204                   23923913.2974
   1471893.71546   1144070.67143  24073622.2974                   24073622.0984
   1284379.19148   1003010.41046  20148801.2274                   20148798.2664
   2146962.84447   1656077.25044  23715290.2814                   23715287.8054
    985404.26248    776240.69846  21125137.1254                   21125133.2504
   1859744.98048   1438756.94646  20802009.7424                   20802004.9654
 11  8 12 16 52 30.0000000  0  9G03G06G07G08G10G13G16G19G23
   1744329.90648   1352082.43745  21355144.5704                   21355142.8054
   1960773.10547   1515834.81644  23145688.3204                   23145687.3524
    636191.25047    509434.54446  22003323.0234                   22003320.8204
    494290.53546    400635.60943  23914115.4454                   23914114.8014
   1467753.80146   1140844.70143  24072834.1804                   24072834.0664
   1271421.84048    992913.76647  20146335.4924                   20146332.6174
   2175296.57046   1678155.44644  23720681.3914                   23720679.3754
    957584.34848    754562.84246  21119843.2194                   21119839.2344
   1875141.41048   1450754.14546  20804939.1724                   20804935.1684
 11  8 12 16 52 45.0000000  0  9G03G06G07G08G10G13G16G19G23
   1753829.67248   1359484.84345  21356952.3754                   21356951.0944
   1980093.02747   1530889.30544  23149364.1954                   23149363.2664
    591786.90247    474833.77246  21994873.7894                   21994871.0864
    442790.16046    360505.46643  23904315.1024                   23904314.2704
   1463720.75446   1137702.08644  24072067.5164                   24072067.4494
   1258616.15248    982935.30846  20143898.7974                   20143895.8874
   2203631.03146   1700234.20844  23726073.5634                   23726071.7974
    929917.66848    733004.40246  21114578.1334                   21114574.3134
   1890666.06648   1462851.26546  20807893.1954                   20807889.3984
 11  8 12 16 53  0.0000000  0  9G03G06G07G08G10G13G16G19G23
   1763471.45748   1366997.91245  21358787.1884                   21358785.2304
   1999515.93047   1546024.02344  23153060.1804                   23153059.0124
    547400.18047    440246.71846  21986427.0314                   21986424.8054
    391278.80547    320366.74643  23894513.1484                   23894511.9774
   1459793.69147   1134641.99544  24071319.6484                   24071320.0044
   1245961.86348    973074.81547  20141490.9304                   20141487.7154
   2231965.75846   1722313.18444  23731465.7424                   23731463.4694
    902403.88748    711565.10446  21109342.5084                   21109338.9924
   1906318.58248   1475048.01646  20810871.8134                   20810867.5664
 11  8 12 16 53 15.0000000  0  9G03G06G07G08G10G13G16G19G23
   1773256.43448   1374622.55745  21360649.0784                   21360647.0004
   2019042.87947   1561239.80944  23156776.4694                   23156775.1454
    503032.57047    405674.54546  21977984.4224                   21977981.8164
    339757.78947    280220.53843  23884709.3834                   23884707.2974
   1455974.03146   1131665.61644  24070592.3984                   24070593.4344
   1233460.29348    963333.32646  20139111.5394                   20139109.0274
   2260301.80546   1744393.20444  23736857.4844                   23736855.8754
    875044.44948    690246.05146  21104136.4454                   21104132.3834
   1922100.14848   1487345.32446  20813875.1644                   20813870.6884
 11  8 12 16 53 30.0000000  0  9G03G06G07G08G10G13G16G19G23
   1783184.12948   1382358.40145  21362537.9844                   21362536.3794
   2038673.38747   1576536.28244  23160512.0234                   23160510.3554
    458684.15247    371117.34946  21969544.8204                   21969542.7114
    288226.99247    240066.69043  23874903.3594                   23874900.8874
   1452261.34046   1128772.55644  24069886.1414                   24069886.8444
   1221111.47748    953710.86646  20136761.9844                   20136759.0354
   2288639.04346   1766474.15144  23742249.8914                   23742248.4104
    847839.45348    669047.35546  21098959.3674                   21098955.5984
   1938010.34848   1499742.86646  20816902.8754                   20816898.5664
 11  8 12 16 53 45.0000000  0  9G03G06G07G08G10G13G16G19G23
   1793253.44148   1390204.62045  21364454.2734                   21364452.1954
   2058406.41847   1591912.67144  23164266.8754                   23164265.9494
    414354.10547    336574.46546  21961109.1024                   21961106.6884
    236685.59046    199904.58243  23865095.2274                   23865092.4144
   1448654.42246   1125961.93344  24069199.5084                   24069200.4454
   1208914.41448    944206.65547  20134441.1174                   20134438.3794
   2316976.34846   1788555.14144  23747642.4224                   23747640.9614
    820788.21948    647968.46646  21093811.9384                   21093807.9734
   1954047.97348   1512239.69546  20819954.7814                   20819950.4024
 11  8 12 16 54  0.0000000  0 10G03G06G07G08G10G28G13G16G19G23
   1803463.00848   1398160.11245  21366397.2034                   21366395.0434
   2078240.40647   1607367.69244  23168041.1174                   23168040.5434
    370041.24247    302044.96446  21952676.7584                   21952673.9694
    185132.39146    159733.28843  23855284.8914                   23855282.9694
   1445151.92646   1123232.71043  24068533.6024                   24068533.6454
   1447517.09457   1130151.17853  24487539.4614                   24487537.0204
   1196867.99648    934819.83246  20132148.2424                   20132145.5594
   2345312.23447   1810635.01044  23753034.6414                   23753032.9184
    793889.57848    627008.48446  21088693.1564                   21088689.5124
   1970211.71148   1524834.80546  20823030.8834                   20823026.4104
 11  8 12 16 54 15.0000000  0 10G03G06G07G08G10G28G13G16G19G23
   1813812.59047   1406224.69745  21368366.6884                   21368364.9384
   2098175.14847   1622901.24444  23171834.7584                   23171833.4414
    325745.71547    267528.96846  21944247.2664                   21944245.2234
    133567.46947    119552.88243  23845472.4144                   23845469.7034
   1441753.49246   1120584.54844  24067887.1484                   24067886.9844
   1395479.26647   1089602.20743  24477636.5634                   24477634.9384
   1184972.39148    925550.52646  20129884.8984                   20129882.1374
   2373646.53546   1832713.67644  23758426.3444                   23758424.5824
    767143.70348    606167.54546  21083603.5864                   21083599.8794
   1986501.35248   1537528.01246  20826130.7344                   20826126.5314
 11  8 12 16 54 30.0000000  0 10G03G06G07G08G10G28G13G16G19G23
   1824297.15647   1414394.47945  21370361.3364                   21370360.2114
   2118205.38747   1638509.19444  23175646.0704                   23175644.2344
    281462.89147    233022.87346  21935820.5164                   21935819.0044
     81986.13747     79359.60043  23835657.4384                   23835653.7894
   1438454.12546   1118013.60844  24067259.0164                   24067259.2974
   1343493.23046   1049093.67143  24467743.6484                   24467741.9064
   1173222.81648    916395.00646  20127649.1024                   20127646.0904
   2401974.09047   1854787.05244  23763817.1564                   23763815.6334
    740545.84448    585441.93646  21078542.1414                   21078538.4534
   2002911.86747   1550315.39846  20829253.2894                   20829248.9844
 11  8 12 16 54 45.0000000  0 10G03G06G07G08G10G28G13G16G19G23
   1834920.04347   1422672.03045  21372382.8594                   21372381.5744
   2138334.77747   1654194.43644  23179476.2974                   23179475.1724
    237196.68847    198529.73146  21927397.2504                   21927395.1994
     30392.05147     39156.46443  23825838.9224                   23825835.7704
   1435257.38746   1115522.61343  24066650.9384                   24066650.9344
   1291562.77746   1008628.46143  24457861.3674                   24457860.1294
   1161623.07448    907356.24846  20125442.0314                   20125438.8984
   2430298.63747   1876858.09944  23769206.9844                   23769205.7624
    714099.99648    564834.78846  21073509.4304                   21073505.6724
   2019446.78148   1563199.74946  20832399.7274                   20832395.6374
 11  8 12 16 55  0.0000000  0 10G03G06G07G08G10G28G13G16G19G23
   1845680.11348   1431056.49145  21374430.5394                   21374429.0124
   2158561.91047   1669955.81744  23183325.3984                   23183324.3054
    192946.19147    164048.84546  21918976.7034                   21918974.3284
    -21215.75447     -1057.44043  23816018.2274                   23816014.6954
   1432162.04346   1113110.61343  24066061.5474                   24066061.4304
   1239686.90246    968205.67643  24447989.3834                   24447988.5664
   1150172.18448    898433.47146  20123263.0474                   20123259.6914
   2458619.09446   1898925.94744  23774596.8284                   23774594.4144
    687805.30148    544345.40546  21068506.2424                   21068501.7544
   2036104.77348   1576179.96846  20835569.8754                   20835565.5274
 11  8 12 16 55 15.0000000  0 10G03G06G07G08G10G28G13G16G19G23
   1856579.51247   1439549.52745  21376504.7974                   21376503.3714
   2178889.02347   1685795.06644  23187194.1024                   23187192.5824
    148713.87947    129582.10646  21910559.4694                   21910557.2274
    -72834.81647    -41280.07243  23806195.4844                   23806191.7194
   1429170.12546   1110779.23843  24065492.1334                   24065492.8364
   1187868.05146    927827.41443  24438128.4144                   24438128.4694
   1138872.65648    889628.64346  20121112.4844                   20121109.7424
   2486937.49247   1920992.23344  23779985.3134                   23779983.8714
    661664.31648    523975.80146  21063531.4534                   21063527.6214
   2052888.01248   1589257.80846  20838763.6334                   20838759.7194
 11  8 12 16 55 30.0000000  0 10G03G06G07G08G10G28G13G16G19G23
   1867616.05547   1448149.40445  21378605.2894                   21378603.2274
   2199313.85547   1701710.53244  23191080.9454                   23191079.2664
    104497.99247     95128.17546  21902145.3594                   21902142.8054
   -124466.99247    -81512.89943  23796369.8594                   23796366.8444
   1426279.62546   1108526.85544  24064942.5784                   24064943.0784
   1136104.43046    887492.13343  24428278.1884                   24428278.2274
   1127722.75848    880940.40146  20118990.7974                   20118987.8834
   2515251.93847   1943055.39044  23785373.8444                   23785371.6454
    635675.34448    503724.64346  21058586.1954                   21058582.2344
   2069794.69548   1602431.80746  20841980.9454                   20841976.5164
 11  8 12 16 55 45.0000000  0 10G03G06G07G08G10G28G13G16G19G23
   1878791.93847   1456857.86545  21380731.9844                   21380729.8324
   2219838.57847   1717703.78444  23194986.5084                   23194985.1804
     60301.07848     60689.02346  21893734.9064                   21893732.5704
   -176109.91847   -121754.12344  23786542.2974                   23786540.1334
   1423492.60246   1106355.15544  24064411.7504                   24064412.4184
   1084398.29746    847201.69843  24418439.0004                   24418438.3634
   1116724.50848    872370.33646  20116898.0554                   20116895.0984
   2543564.46946   1965117.07944  23790760.9534                   23790758.7974
    609840.75048    483593.79146  21053669.9924                   21053666.3284
   2086826.82848   1615703.59646  20845221.7664                   20845217.4734
 11  8 12 16 56  0.0000000  0 10G03G06G07G08G10G28G13G16G19G23
   1890104.71947   1465673.00945  21382884.7664                   21382882.9414
   2240460.55547   1733772.85044  23198911.3444                   23198909.7814
     16121.07047     26263.04146  21885328.1174                   21885325.7624
   -227765.69547   -162005.36243  23776712.4614                   23776709.4844
   1420806.61746   1104262.10543  24063900.8284                   24063901.5004
   1032747.73846    806954.52343  24408609.3054                   24408610.2234
   1105876.03148    863916.97146  20114833.4694                   20114830.1994
   2571872.84447   1987175.49644  23796148.1094                   23796146.4224
    584158.44548    463581.60946  21048782.7814                   21048778.9184
   2103982.02048   1629071.24746  20848486.6484                   20848482.0554
 11  8 12 16 56 15.0000000  0 10G03G06G07G08G10G28G13G16G19G23
   1901556.25847   1474596.27845  21385063.2814                   21385062.4534
   2261181.89147   1749919.34144  23202853.5704                   23202852.2934
    -28039.73848     -8147.96446  21876924.1884                   21876922.0704
   -279432.08647   -202264.84144  23766880.8284                   23766878.3674
   1418223.61746   1102249.37443  24063409.6564                   24063409.6844
    981154.89546    766752.37043  24398792.4144                   24398792.2074
   1095179.32048    855581.86946  20112797.8754                   20112795.0704
   2600178.94946   2009232.17144  23801534.4064                   23801532.5234
    558630.81648    443689.94546  21043924.6254                   21043920.7734
   2121262.12548   1642536.25246  20851774.8594                   20851770.9454
 11  8 12 16 56 30.0000000  0 10G03G06G07G08G10G28G13G16G19G23
   1913146.34847   1483627.49845  21387269.1724                   21387267.3484
   2282002.11747   1766142.85744  23206815.8674                   23206815.3324
    -72181.41848    -42544.08346  21868524.4844                   21868522.1684
   -331109.09447   -242532.64844  23757046.9774                   23757044.9184
   1415743.11746   1100316.51143  24062936.6954                   24062937.7424
    929619.78146    726595.19543  24388985.1094                   24388984.7774
   1084634.53148    847365.14546  20110791.2344                   20110788.3594
   2628482.69146   2031286.98443  23806920.5234                   23806918.7384
    533257.97748    423918.89246  21039096.4304                   21039092.8204
   2138666.82848   1656098.33646  20855086.7664                   20855082.7464
 11  8 12 16 56 45.0000000  0 10G03G06G07G08G10G28G13G16G19G23
   1924874.45747   1492766.27845  21389501.3674                   21389499.6484
   2302920.75847   1782443.06244  23210796.7274                   23210795.2934
   -116303.82848    -76925.17246  21860127.9534                   21860125.5984
   -382796.84847   -282808.80144  23747210.8914                   23747208.9884
   1413364.75846   1098463.19143  24062484.7584                   24062484.7664
    878142.32846    686482.86643  24379190.1254                   24379189.1954
   1074241.44548    839266.63246  20108813.7034                   20108810.1254
   2656783.62146   2053339.65044  23812305.6174                   23812304.0004
    508039.90648    404268.44546  21034297.5704                   21034294.0744
   2156195.84448   1669757.28646  20858422.5314                   20858418.0744
 11  8 12 16 57  0.0000000  0 10G03G06G07G08G10G28G13G16G19G23
   1936742.02047   1502013.71745  21391759.2664                   21391757.6644
   2323939.18447   1798821.05044  23214796.2504                   23214794.9454
   -160405.27748   -111289.93846  21851736.0234                   21851733.7234
   -434493.78147   -323092.10444  23737373.2424                   23737371.3954
   1411090.02346   1096690.74043  24062051.4924                   24062052.2934
    826723.95747    646416.69043  24369405.7114                   24369404.3244
   1064001.74247    831287.63446  20106865.1174                   20106862.3054
   2685083.18446   2075391.21344  23817691.4454                   23817689.4224
    482978.11747    384739.77846  21029528.8284                   21029524.8754
   2173850.49248   1683514.14246  20861782.0234                   20861777.9654
 11  8 12 16 57 15.0000000  0 10G03G06G07G08G10G28G13G16G19G23
   1948748.09847   1511369.09945  21394044.1334                   21394042.1994
   2345056.39847   1815276.00544  23218814.7664                   23218813.5784
   -204486.26648   -145638.75446  21843347.7814                   21843344.9694
   -486200.58247   -363383.13444  23727533.3364                   23727532.4494
   1408918.02046   1094998.17143  24061638.6884                   24061639.2304
    775364.08247    606396.01043  24359632.6254                   24359631.5354
   1053914.69948    823427.58746  20104945.1724                   20104942.3954
   2713380.47347   2097441.00944  23823075.6334                   23823073.9884
    458072.16048    365332.52146  21024789.2664                   21024785.1174
   2191629.88748   1697368.19546  20865165.3204                   20865161.1454
 11  8 12 16 57 30.0000000  0 10G03G06G07G08G10G28G13G16G19G23
   1960893.03947   1520832.66745  21396355.1334                   21396353.5744
   2366272.83247   1831808.24544  23222852.0704                   23222850.6804
   -248546.14548   -179971.11746  21834963.4534                   21834960.9384
   -537916.39847   -403681.11644  23717692.0944                   23717691.7114
   1406849.08246   1093385.97343  24061245.4924                   24061245.4104
    724063.47746    566421.55443  24349869.8284                   24349869.4804
   1043981.13348    815687.14946  20103055.1334                   20103052.4304
   2741676.06646   2119489.53544  23828460.0234                   23828458.3914
    433322.96948    346047.44546  21020079.6954                   21020075.7734
   2209534.43448   1711319.77146  20868572.6564                   20868568.2584
 11  8 12 16 57 45.0000000  0 10G03G06G07G08G10G28G13G16G19G23
   1973176.08647   1530403.86445  21398692.7424                   21398690.9024
   2387587.73847   1848417.25544  23226908.4694                   23226907.1334
   -292585.48448   -214287.47246  21826582.9144                   21826580.7624
   -589641.67646   -443986.49843  23707849.2344                   23707848.4924
   1404882.37546   1091853.47143  24060871.1644                   24060870.4264
    672821.58246    526492.86244  24340118.7894                   24340119.4304
   1034200.57448    808065.92746  20101193.9924                   20101191.1524
   2769969.36746   2141536.21144  23833845.3834                   23833842.6374
    408730.05148    326884.13146  21015399.3594                   21015395.8914
   2227563.40648   1725368.30146  20872003.3054                   20871998.6214
 11  8 12 16 58  0.0000000  0 10G03G06G07G08G10G28G13G16G19G23
   1985595.35247   1540081.18645  21401055.8594                   21401054.1334
   2408999.09447   1865101.40044  23230983.1024                   23230981.4774
   -336605.25848   -248588.59946  21818206.5084                   21818203.7074
   -641378.02046   -484300.53744  23698004.0944                   23698003.8524
   1403015.99246   1090399.11743  24060515.8524                   24060515.7584
    621636.91846    486608.76244  24330378.8444                   24330379.2774
   1024571.30548    800562.59246  20099361.6024                   20099358.7664
   2798258.48846   2163579.67644  23839228.0474                   23839225.9774
    384291.90248    307841.40946  21010749.3524                   21010745.5044
   2245714.95748   1739512.34446  20875457.6414                   20875453.2384
 11  8 12 16 58 15.0000000  0 10G03G06G07G08G10G28G13G16G19G23
   1998149.85247   1549863.90945  21403444.5554                   21403443.1914
   2430505.81646   1881859.86744  23235075.4534                   23235073.8484
   -380606.45748   -282875.23746  21809832.9384                   21809830.5984
   -693126.33246   -524623.85744  23688156.9614                   23688157.2704
   1401248.96546   1089022.20343  24060179.4614                   24060179.7624
    570508.63746    446768.60044  24320649.8834                   24320650.2664
   1015092.56348    793176.55646  20097557.6724                   20097554.9694
   2826542.39546   2185619.00844  23844609.8754                   23844607.6724
    360007.71948    288918.67346  21006128.1094                   21006124.6024
   2263988.09848   1753751.12246  20878934.9694                   20878930.5514
 11  8 12 16 58 30.0000000  0 10G03G06G07G08G10G28G13G16G19G23
   2010838.57447   1559751.20845  21405859.6954                   21405857.7304
   2452107.02047   1898691.96344  23239186.2894                   23239185.1484
   -424589.57848   -317147.79246  21801463.3594                   21801460.9104
   -744887.18447   -564956.98544  23678307.6414                   23678307.4884
   1399580.41446   1087721.99343  24059862.3754                   24059862.5744
    519436.25447    406971.94043  24310930.9774                   24310930.1134
   1005763.73048    785907.32446  20095782.6884                   20095779.7974
   2854820.25046   2207653.68044  23849991.7424                   23849989.4384
    335877.10548    270115.60746  21001535.9844                   21001532.7504
   2282381.94948   1768084.00346  20882434.8204                   20882430.5984
 11  8 12 16 58 45.0000000  0 10G03G06G07G08G10G28G13G16G19G23
   2023663.90247   1569744.97045  21408299.7894                   21408297.9964
   2473804.98446   1915599.43344  23243314.6804                   23243313.2424
   -468551.90248   -351404.14146  21793097.6334                   21793095.5204
   -796657.83647   -605297.73644  23668455.4694                   23668455.1294
   1398012.68846   1086500.35844  24059564.1564                   24059564.4804
    468422.33646    367220.82043  24301223.2664                   24301222.6884
    996587.41048    778756.93446  20094036.3054                   20094033.3244
   2883094.67246   2229685.66843  23855371.4064                   23855369.4884
    311902.77348    251434.30646  20996974.0394                   20996970.2814
   2300898.84448   1782512.72946  20885958.4144                   20885954.6214
 11  8 12 16 59  0.0000000  0 11G03G06G07G08G10G28G13G16G19G23G11
   2036624.98847   1579844.50045  21410766.4454                   21410765.2344
   2495598.94146   1932581.72444  23247462.8984                   23247461.3284
   -512493.60948   -385644.42746  21784736.0944                   21784733.3164
   -848438.66847   -645646.42044  23658602.4144                   23658601.7734
   1396544.94546   1085356.64543  24059285.0704                   24059284.7934
    417466.36746    327514.90843  24291525.2344                   24291525.8244
    987563.18448    771725.06546  20092319.1804                   20092316.1684
   2911364.88746   2251714.38143  23860750.9774                   23860748.7704
    288084.33248    232874.48446  20992441.5944                   20992437.4224
   2319538.12148   1797036.80946  20889505.5704                   20889501.8524
   1438795.35256   1125528.69253  24442582.8054                   24442581.3014
 11  8 12 16 59 15.0000000  0 11G03G06G07G08G10G28G13G16G19G23G11
   2049718.54747   1590047.25645  21413258.2584                   21413256.7734
   2517485.53546   1949636.17944  23251627.3754                   23251626.3134
   -556417.71948   -419871.00746  21776377.2424                   21776374.5434
   -900232.83646   -686005.47044  23648745.5234                   23648745.7584
   1395173.98046   1084288.42143  24059024.0234                   24059024.1334
    366565.41847    287851.91143  24281840.2974                   24281839.4884
    978687.94148    764809.28346  20090630.3594                   20090627.5004
   2939627.67646   2273737.29343  23866129.7114                   23866127.1804
    264418.90648    214433.89746  20987938.3284                   20987934.6294
   2338296.44148   1811653.66446  20893075.1174                   20893070.9844
   1383070.35946   1082106.65243  24431978.5704                   24431977.0704
 11  8 12 16 59 30.0000000  0 11G03G06G07G08G10G28G13G16G19G23G11
   2062944.46947   1600353.15745  21415775.2114                   21415773.4384
   2539464.60547   1966762.70644  23255809.7034                   23255809.1884
   -600324.15648   -454083.80046  21768022.0474                   21768019.9574
   -952040.27346   -726374.89144  23638887.0234                   23638886.5944
   1393899.53146   1083295.25243  24058781.5864                   24058782.2584
    315719.49647    248231.73843  24272165.0864                   24272163.2894
    969961.77048    758009.66046  20088969.8134                   20088966.7624
   2967882.82046   2295754.25044  23871506.6484                   23871503.6374
    240906.49648    196112.54146  20983464.0784                   20983459.9144
   2357173.57048   1826363.07946  20896667.0004                   20896663.3094
   1327323.09046   1038667.24343  24421369.3444                   24421369.2734
 11  8 12 16 59 45.0000000  0 11G03G06G07G08G10G28G13G16G19G23G11
   2076302.06347   1610761.66145  21418317.2814                   21418315.5394
   2561535.32846   1983960.64744  23260009.3594                   23260008.7424
   -644213.06248   -488282.93546  21759670.3984                   21759667.8754
  -1003861.11347   -766754.74144  23629026.0784                   23629026.4654
   1392720.86746   1082376.83443  24058557.0004                   24058557.8324
    264928.18047    208654.11343  24262499.0234                   24262497.3484
    961384.23448    751325.86047  20087337.2584                   20087334.8914
   2996129.77746   2317764.86243  23876881.7814                   23876879.3874
    217546.78948    177910.17846  20979018.6484                   20979014.7814
   2376168.89848   1841164.62046  20900281.9614                   20900278.2504
   1271553.71146    995210.60543  24410756.6884                   24410756.3594
 11  8 12 17  0  0.0000000  0 11G03G06G07G08G10G28G13G16G19G23G11
   2089790.99247   1621272.50645  21420883.6254                   21420882.0514
   2583697.52046   2001229.87944  23264227.1024                   23264226.1094
   -688084.30948   -522468.32446  21751321.7344                   21751319.5634
  -1055695.52047   -807145.16944  23619161.6484                   23619162.6804
   1391637.90646   1081532.90243  24058350.1724                   24058351.5944
    214191.54746    169119.11043  24252844.2974                   24252842.2304
    952955.58248    744758.06946  20085733.5784                   20085730.8874
   3024368.53546   2339769.05043  23882255.0554                   23882253.4304
    194340.02048    159826.99646  20974602.7194                   20974598.7584
   2395282.21148   1856058.08746  20903919.3984                   20903915.4384
   1215762.68446    951737.23043  24400139.4064                   24400139.7034
 11  8 12 17  0 15.0000000  0 11G03G06G07G08G10G28G13G16G19G23G11
   2103413.02047   1631887.05445  21423476.0084                   21423474.3714
   2605952.93446   2018571.73244  23268461.9384                   23268460.7504
   -731935.82848   -556638.32946  21742977.1564                   21742974.6684
  -1107541.41447   -847544.55244  23609296.5784                   23609296.3054
   1390652.19546   1080764.82343  24058163.1804                   24058164.0634
    163511.71146    129628.40843  24243199.4064                   24243197.5864
    944677.75048    738307.80246  20084158.3914                   20084155.9144
   3052600.88746   2361768.26043  23887627.5394                   23887625.5784
    171288.16448    141864.51046  20970216.1094                   20970211.8714
   2414515.21948   1871044.83846  20907579.1174                   20907575.1484
   1159952.11746    908248.50243  24389520.1804                   24389518.8284
 11  8 12 17  0 30.0000000  0 11G03G06G07G08G10G28G13G16G19G23G11
   2117166.54747   1642604.07845  21426092.9614                   21426091.6214
   2628299.77046   2035984.81944  23272714.4844                   23272713.8094
   -775768.96148   -590794.01846  21734635.9774                   21734633.8134
  -1159400.12147   -887953.88644  23599427.7734                   23599428.0704
   1389762.07446   1080071.19643  24057994.2894                   24057994.3284
    112887.26647     90180.76743  24233566.2894                   24233563.4844
    936549.25048    731973.89846  20082611.6254                   20082608.8094
   3080825.19546   2383761.22144  23892998.5704                   23892996.3094
    148389.87548    124021.70646  20965858.9224                   20965855.1024
   2433866.30548   1886123.57146  20911261.8444                   20911257.2274
   1104120.95346    864743.75842  24378895.6484                   24378894.3834
 11  8 12 17  0 45.0000000  0 11G03G06G07G08G10G28G13G16G19G23G11
   2131050.51647   1653422.74745  21428734.9304                   21428733.8164
   2650736.81347   2053468.21944  23276983.8834                   23276982.9924
   -819584.24648   -624935.78846  21726298.0394                   21726296.0554
  -1211272.33647   -928373.78844  23589557.4384                   23589556.8634
   1388966.55946   1079451.28043  24057842.1804                   24057842.9344
     62317.42246     50775.71243  24223942.8914                   24223940.3754
    928569.14148    725755.61246  20081092.7274                   20081090.3164
   3109040.57446   2405747.15244  23898368.8444                   23898366.0164
    125644.52748    106298.05846  20961530.5634                   20961526.3914
   2453334.38748   1901293.49146  20914966.2894                   20914962.5784
   1048268.68046    821222.61943  24368266.6644                   24368265.0904
 11  8 12 17  1  0.0000000  0 11G03G06G07G08G10G28G13G16G19G23G11
   2145065.54747   1664343.53345  21431402.5944                   21431400.5984
   2673265.14146   2071022.71744  23281271.1174                   23281270.3164
   -863380.47348   -659062.72046  21717964.2974                   21717961.8324
  -1263156.79347   -968803.19844  23579684.6644                   23579683.4414
   1388266.48046   1078905.74344  24057708.8284                   24057709.5864
     11803.35246     11414.12443  24214330.1954                   24214328.1214
    920738.75447    719654.00846  20079602.9224                   20079600.0274
   3137247.91046   2427726.89243  23903735.9064                   23903734.1524
    103053.46148     88694.63646  20957231.5394                   20957227.2974
   2472920.42648   1916555.30246  20918693.5084                   20918689.3794
    992396.92646    777686.19843  24357634.4694                   24357633.4534
 11  8 12 17  1 15.0000000  0 11G03G06G07G08G10G28G13G16G19G23G11
   2159212.68847   1675367.28145  21434094.2034                   21434092.8054
   2695885.77046   2088649.14544  23285576.0004                   23285575.0984
   -907156.12948   -693173.60546  21709633.9144                   21709631.4614
  -1315052.17647  -1009241.18644  23569808.4774                   23569807.5314
   1387662.84046   1078435.37243  24057594.3204                   24057595.2464
    -38653.68446    -27902.99243  24204728.0164                   24204726.7504
    913059.40248    713670.09246  20078141.6954                   20078138.8674
   3165448.56646   2449701.36943  23909101.7584                   23909100.1524
     80618.05948     71212.51446  20952962.1024                   20952958.0944
   2492625.54748   1931909.92246  20922443.0084                   20922439.1564
    936507.26246    734135.87943  24346999.5554                   24346998.3284
 11  8 12 17  1 30.0000000  0 11G03G06G07G08G10G28G13G16G19G23G11
   2173494.03947   1686495.58145  21436811.8524                   21436810.3364
   2718600.39546   2106348.82944  23289897.3364                   23289896.8834
   -950908.93748   -727266.71446  21701308.0944                   21701305.6914
  -1366956.50446  -1049686.08544  23559931.6484                   23559930.8204
   1387157.69546   1078041.70144  24057498.6644                   24057499.3164
    -89051.31246    -67173.84143  24195138.1334                   24195137.4654
    905533.11747    707805.44246  20076709.2424                   20076706.8754
   3193644.29346   2471672.05343  23914467.6804                   23914465.6844
     58340.53948     53853.41746  20948722.8594                   20948718.7624
   2512451.58248   1947358.75446  20926215.8204                   20926212.0824
    880602.06346    690573.49043  24336360.6024                   24336360.7384
 11  8 12 17  1 45.0000000  0 11G03G06G07G08G10G28G13G16G19G23G11
   2187910.20747   1697728.96445  21439555.1254                   21439553.8714
   2741409.59846   2124122.19944  23294238.8834                   23294237.4574
   -994637.87148   -761341.21846  21692986.9384                   21692984.7544
  -1418868.71946  -1090137.12844  23550052.9924                   23550052.4614
   1386751.52346   1077725.21344  24057420.7974                   24057421.5274
   -139388.78946   -106397.84043  24185558.8054                   24185558.6644
    898160.88348    702060.83446  20075306.4534                   20075303.7584
   3221835.74646   2493639.40443  23919831.8524                   23919830.8404
     36221.83648     36618.06246  20944514.0164                   20944509.7154
   2532399.15248   1962902.29546  20930011.4774                   20930007.9414
    824682.58246    646999.92243  24325720.2114                   24325719.3014
 11  8 12 17  2  0.0000000  0 11G03G06G07G08G10G28G13G16G19G23G11
   2202456.63347   1709063.81945  21442323.2424                   21442321.7424
   2764309.06346   2141965.91144  23298596.4224                   23298595.2854
  -1038346.97348   -795400.24746  21684669.2974                   21684666.9024
  -1470792.93046  -1130597.54544  23540171.2274                   23540171.3754
   1386439.98446   1077482.35944  24057361.4774                   24057362.5394
   -189670.19546   -145578.11743  24175990.9534                   24175990.0514
    890938.35248    696432.87446  20073932.1174                   20073929.5164
   3250018.57047   2515600.00843  23925195.3984                   23925193.8324
     14257.93048     19503.35546  20940334.0864                   20940330.2464
   2552463.68048   1978536.98046  20933830.2504                   20933826.0594
    768744.92646    603412.19343  24315074.8204                   24315074.2304
 11  8 12 17  2 15.0000000  0 11G03G06G07G08G10G28G13G16G19G23G11
   2217133.47747   1720500.30945  21445115.8914                   21445114.9184
   2787298.83346   2159880.05644  23302971.2114                   23302969.6134
  -1082035.68048   -829443.38946  21676355.2664                   21676352.9694
  -1522728.55546  -1171066.81844  23530288.9774                   23530287.7664
   1386223.18846   1077313.44843  24057320.5004                   24057320.9614
   -239895.18046   -184714.41143  24166433.4694                   24166433.0634
    883866.23847    690922.12946  20072586.0634                   20072583.7464
   3278193.34046   2537554.34544  23930556.6414                   23930555.8954
     -7550.75047      2509.57346  20936183.8134                   20936180.1884
   2572645.69948   1994263.19646  20937670.3754                   20937666.5554
    712789.92247    559810.95543  24304427.4924                   24304426.6334
 11  8 12 17  2 30.0000000  0 11G03G06G07G08G10G28G13G16G19G23G11
   2231942.65647   1732039.91445  21447934.4224                   21447932.8954
   2810381.00846   2177866.09044  23307363.2034                   23307362.5044
  -1125701.75048   -863468.89646  21668046.5554                   21668043.5984
  -1574673.37146  -1211543.31444  23520404.1484                   23520402.3364
   1386103.04346   1077219.78844  24057297.4064                   24057297.7464
   -290061.38347   -223804.94443  24156887.3444                   24156886.9064
    876946.65248    685530.23146  20071269.7114                   20071267.1254
   3306361.98446   2559503.89443  23935917.7034                   23935915.8554
    -29201.76648    -14361.34646  20932063.8674                   20932059.9264
   2592946.85948   2010082.25446  20941534.0084                   20941529.7854
    656820.14147    516198.24643  24293776.3364                   24293776.1254
 11  8 12 17  2 45.0000000  0 11G03G06G07G08G10G28G13G16G19G23G11
   2246882.87147   1743681.61945  21450777.3984                   21450775.7704
   2833553.83846   2195922.84644  23311772.7114                   23311772.5434
  -1169345.97748   -897477.38246  21659740.9614                   21659738.6094
  -1626628.51647  -1252027.81644  23510517.3444                   23510515.2974
   1386078.11746   1077200.40244  24057293.0004                   24057294.7034
   -340169.96947   -262850.55943  24147352.5474                   24147351.2274
    870178.42248    680256.27246  20069981.4844                   20069978.7194
   3334523.03547   2581447.51543  23941275.6884                   23941273.9884
    -50696.33248    -31110.34446  20927973.8594                   20927969.6994
   2613365.89548   2025993.17946  20945419.4224                   20945415.4804
    600834.68047    472573.23643  24283122.6484                   24283122.5704
 11  8 12 17  3  0.0000000  0 11G03G06G07G08G10G28G13G16G19G23G11
   2261954.75447   1755425.93245  21453645.5864                   21453644.3014
   2856818.18846   2214050.83844  23316200.5234                   23316199.3794
  -1212967.47348   -931468.16346  21651440.1414                   21651437.9614
  -1678593.09446  -1292519.70144  23500629.3134                   23500627.4534
   1386149.02046   1077255.60043  24057306.5554                   24057307.6644
   -390219.93047   -301850.50344  24137828.9384                   24137827.6454
    863562.35247    675100.87646  20068722.4924                   20068720.0084
   3362677.44946   2603385.99543  23946633.8134                   23946631.0704
    -72033.50847    -47736.72146  20923913.1174                   20923909.1174
   2633903.66848   2041996.61446  20949327.3914                   20949323.3634
    544834.77747    428937.06343  24272466.1804                   24272466.1764
 11  8 12 17  3 15.0000000  0 11G03G06G07G08G10G28G13G16G19G23G11
   2277155.57447   1767270.72045  21456538.1804                   21456536.4924
   2880171.40646   2232248.12944  23320644.2894                   23320643.1524
  -1256568.24648   -965442.78546  21643143.2034                   21643140.8714
  -1730569.21946  -1333020.60344  23490738.1954                   23490736.6884
   1386313.30946   1077383.59243  24057337.5234                   24057338.6054
   -440213.48846   -340806.51844  24128315.1334                   24128314.7074
    857096.20348    670062.31146  20067492.0164                   20067489.6764
   3390822.69146   2625317.32543  23951989.9614                   23951987.5474
    -93215.33648    -64242.02446  20919882.4844                   20919878.8134
   2654557.35948   2058090.38146  20953257.5944                   20953254.0354
    488818.55547    385288.16243  24261806.1644                   24261806.3754
 11  8 12 17  3 30.0000000  0 11G03G06G07G08G10G28G13G16G19G23G11
   2292487.27347   1779217.48045  21459455.5554                   21459454.0234
   2903615.28946   2250516.05344  23325106.0704                   23325104.5004
  -1300146.02048   -999399.49746  21634850.4774                   21634848.1414
  -1782554.78147  -1373528.80944  23480846.0704                   23480844.3674
   1386572.73046   1077585.68243  24057387.0234                   24057388.5084
   -490148.78947   -379717.07143  24118812.6884                   24118811.8364
    850782.14148    665142.25646  20066290.7274                   20066288.1484
   3418960.77746   2647243.10643  23957343.2584                   23957343.0084
   -114239.64548    -80624.59646  20915881.8204                   20915878.1024
   2675328.92648   2074275.99046  20957210.8834                   20957206.8984
    432788.48046    341628.41443  24251144.4304                   24251144.1294
 11  8 12 17  3 45.0000000  0 11G03G06G07G08G10G28G13G16G19G23G11
   2307948.68047   1791265.31445  21462397.7034                   21462396.4454
   2927148.78546   2268853.81444  23329583.4144                   23329582.5634
  -1343701.55148  -1033338.86646  21626562.0084                   21626559.9494
  -1834550.50047  -1414044.93444  23470951.5084                   23470949.8634
   1386926.33646   1077861.19144  24057454.3754                   24057455.5984
   -540026.28146   -418582.62644  24109321.8204                   24109320.1914
    844619.42647    660340.12746  20065118.0944                   20065115.1524
   3447090.74246   2669162.49943  23962697.4224                   23962695.8204
   -135107.19548    -96885.02846  20911910.6254                   20911907.0664
   2696217.27348   2090552.59946  20961185.3594                   20961181.4884
    376743.99247    297957.48243  24240479.5314                   24240478.6374
 11  8 12 17  4  0.0000000  0 11G03G06G07G08G10G28G13G16G19G23G11
   2323538.25047   1803413.01145  21465364.6564                   21465362.8674
   2950770.37146   2287260.23344  23334078.8364                   23334077.6414
  -1387235.94948  -1067261.78146  21618278.0234                   21618275.8134
  -1886557.57047  -1454569.92244  23461054.2344                   23461052.8674
   1387372.58246   1078208.90743  24057538.5634                   24057540.5824
   -589847.25046   -457404.17743  24099840.6884                   24099839.9344
    838606.71148    655654.88246  20063973.8284                   20063971.0124
   3475211.22746   2691074.56243  23968048.3134                   23968046.7274
   -155819.06248   -113024.14346  20907969.3284                   20907965.3594
   2717221.03548   2106919.14546  20965182.6254                   20965178.7894
    320684.28546    254274.61943  24229811.0704                   24229811.6454
 11  8 12 17  4 15.0000000  0 11G03G06G07G08G10G28G13G16G19G23G11
   2339256.76647   1815661.20045  21468355.7034                   21468354.4924
   2974480.75446   2305735.81644  23338590.7194                   23338590.0704
  -1430748.01247  -1101167.28846  21609997.6954                   21609995.6024
  -1938574.88747  -1495102.86944  23451156.2424                   23451154.8014
   1387912.19146   1078629.36844  24057641.9224                   24057644.3484
   -639610.68046   -496180.79843  24090370.4924                   24090369.6844
    832744.88748    651087.21646  20062858.5084                   20062855.4414
   3503323.00046   2712979.79743  23973397.5394                   23973395.2934
   -176374.28948   -129041.19346  20904058.1724                   20904054.0704
   2738340.90248   2123376.16446  20969201.1414                   20969197.7814
    264610.65647    210580.91543  24219141.2814                   24219140.5004
 11  8 12 17  4 30.0000000  0 11G03G06G07G08G10G28G13G16G19G23G11
   2355105.77047   1828011.04445  21471371.5474                   21471370.0394
   2998281.25046   2324281.64044  23343120.3834                   23343119.8714
  -1474235.80147  -1135053.87846  21601722.3524                   21601720.1254
  -1990600.73847  -1535642.49344  23441255.8834                   23441254.8484
   1388546.59846   1079123.69844  24057762.3444                   24057763.8524
   -689314.96146   -534911.42343  24080911.8364                   24080911.1764
    827035.89148    646638.63646  20061772.0474                   20061769.1094
   3531427.74246   2734879.48143  23978744.9774                   23978742.9804
   -196771.03148   -144934.75946  20900176.9064                   20900172.5124
   2759578.37548   2139924.82346  20973242.8984                   20973238.7624
    208525.19146    166878.03843  24208468.3204                   24208467.7854
 11  8 12 17  4 45.0000000  0 11G03G06G07G08G10G28G13G16G19G23G11
   2371082.19547   1840460.20345  21474412.1334                   21474410.1954
   3022169.07846   2342895.48044  23347665.8284                   23347664.5044
  -1517701.83648  -1168923.50646  21593450.8134                   21593448.5234
  -2042637.61747  -1576190.73444  23431354.0234                   23431351.9304
   1389272.85546   1079689.57743  24057901.0784                   24057902.6884
   -738962.68146   -573597.85244  24071465.0004                   24071463.5824
    821476.86348    642306.90746  20060714.0554                   20060711.3874
   3559522.78146   2756771.72443  23984092.2114                   23984090.5234
   -217011.83647   -160706.81346  20896325.0634                   20896320.6374
   2780930.54348   2156562.84346  20977305.7814                   20977301.9654
    152425.48447    123164.00343  24197793.5474                   24197792.3524
 11  8 12 17  5  0.0000000  0 11G03G06G07G08G10G28G13G16G19G23G11
   2387186.27747   1853008.82045  21477476.5944                   21477474.6134
   3046144.37946   2361577.51544  23352228.1024                   23352227.3054
  -1561145.42647  -1202775.65746  21585183.7814                   21585181.4144
  -2094684.94147  -1616747.07544  23421449.2814                   23421448.0474
   1390091.25846   1080327.27344  24058056.4304                   24058058.6884
   -788553.14846   -612239.78243  24062027.5314                   24062026.9804
    816068.47347    638092.57046  20059684.9774                   20059682.2464
   3587608.23446   2778656.47843  23989437.3834                   23989435.5044
   -237096.20747   -176356.96446  20892503.2034                   20892498.6844
   2802397.71148   2173290.47946  20981390.9534                   20981386.6884
     96312.53947     79439.68243  24187114.8524                   24187114.4534
 11  8 12 17  5 15.0000000  0 11G03G06G07G08G10G28G13G16G19G23G11
   2403418.30947   1865657.13745  21480565.3754                   21480563.7774
   3070207.42246   2380327.90944  23356807.1024                   23356805.8954
  -1604565.96948  -1236609.85146  21576921.4304                   21576918.7114
  -2146742.13347  -1657311.05844  23411543.0164                   23411542.3404
   1391002.06646   1081036.93143  24058230.1024                   24058231.0784
   -838085.87946   -650836.70043  24052601.4384                   24052601.0784
    810811.08647    633995.89046  20058684.6254                   20058682.0124
   3615684.52346   2800534.06744  23994779.6334                   23994777.9104
   -257023.34848   -191884.61146  20888711.3134                   20888707.0944
   2823980.03148   2190107.86046  20985498.0864                   20985494.1764
     40187.08647     35705.57043  24176434.3364                   24176433.8954
 11  8 12 17  5 30.0000000  0 11G03G06G07G08G10G28G13G16G19G23G11
   2419777.34447   1878404.41445  21483678.2814                   21483676.9064
   3094357.22746   2399145.87444  23361401.9844                   23361401.8054
  -1647963.93748  -1270426.43746  21568662.7584                   21568660.6374
  -2198809.72747  -1697883.21044  23401634.6484                   23401634.1524
   1392004.27046   1081817.86143  24058420.7584                   24058421.9924
   -887561.50446   -689389.07343  24043186.4224                   24043185.8594
    805703.91448    630016.26446  20057712.7034                   20057710.1294
   3643750.96946   2822404.02043  24000120.1804                   24000118.7734
   -276794.11348   -207290.40246  20884948.7894                   20884944.6254
   2845676.59048   2207014.23746  20989626.9384                   20989623.0234
    -15951.24647     -8038.51743  24165751.7114                   24165751.3524
 11  8 12 17  5 45.0000000  0 11G03G06G07G08G10G28G13G16G19G23G11
   2436262.73047   1891250.13545  21486815.2194                   21486813.6024
   3118592.95746   2418030.86144  23366014.6804                   23366013.5664
  -1691339.72348  -1304225.75946  21560408.6954                   21560406.7384
  -2250888.18047  -1738463.81044  23391724.8054                   23391723.9024
   1393096.95346   1082669.30043  24058628.0634                   24058630.3364
   -936980.52746   -727897.44143  24033782.7734                   24033781.8094
    800746.65648    626153.45446  20056769.4144                   20056766.5394
   3671806.68046   2844265.54543  24005459.6094                   24005457.7234
   -296408.78548   -222574.57446  20881216.2814                   20881211.9344
   2867486.66848   2224009.08046  20993776.8914                   20993773.0984
    -72102.41447    -51792.69043  24155066.6094                   24155065.8014
 11  8 12 17  6  0.0000000  0 11G03G06G07G08G10G28G13G16G19G23G11
   2452876.18847   1904195.68245  21489977.2584                   21489975.6884
   3142916.63747   2436984.33344  23370643.1484                   23370642.8364
  -1734690.80148  -1338005.81446  21552159.1644                   21552156.8364
  -2302975.02347  -1779050.93444  23381813.1564                   23381812.0864
   1394282.35246   1083592.94643  24058854.5004                   24058855.1054
   -986340.73446   -766359.86043  24024389.4384                   24024388.2304
    795941.58648    622409.22946  20055854.7814                   20055852.3364
   3699853.95346   2866120.55043  24010797.1414                   24010795.2074
   -315864.94548   -237735.21746  20877513.8284                   20877509.7074
   2889412.28948   2241093.95446  20997949.5704                   20997945.2854
   -128263.86747    -95554.79843  24144380.0394                   24144378.9654
 11  8 12 17  6 15.0000000  0 11G03G06G07G08G10G28G13G16G19G23G11
   2469615.49647   1917239.28045  21493161.9454                   21493160.8364
   3167325.87946   2456004.49144  23375287.7424                   23375287.6844
  -1778019.32048  -1371768.29846  21543914.3594                   21543911.8484
  -2355072.43047  -1819646.28444  23371898.9534                   23371898.1884
   1395558.04346   1084586.96043  24059096.9694                   24059098.3324
  -1035644.25446   -804778.15543  24015006.8834                   24015005.9534
    791286.43047    618781.82446  20054969.1954                   20054966.4924
   3727890.50446   2887967.20243  24016132.0164                   24016129.6724
   -335164.75447   -252774.02746  20873841.3674                   20873837.1054
   2911451.05948   2258266.99246  21002143.0554                   21002139.3874
   -184437.47746   -139326.42443  24133690.1804                   24133688.9694
 11  8 12 17  6 30.0000000  0 11G03G06G07G08G10G28G13G16G19G23G11
   2486483.41447   1930383.08745  21496372.0634                   21496370.3364
   3191823.28547   2475093.34144  23379949.9614                   23379949.1844
  -1821322.15248  -1405510.76846  21535674.0634                   21535671.0164
  -2407177.20746  -1860247.43144  23361984.4694                   23361983.6914
   1396926.65246   1085653.38343  24059357.2584                   24059358.6454
  -1084887.68746   -843149.67843  24005637.0944                   24005634.7854
    786784.17248    615273.55646  20054112.4534                   20054109.6684
   3755919.30146   2909807.79843  24021465.3754                   24021463.5554
   -354305.04747   -267688.55046  20870199.1564                   20870194.8324
   2933605.78148   2275530.38846  21006359.3984                   21006355.9924
   -240619.89846   -183104.92243  24122998.7344                   24122997.9454
 11  8 12 17  6 45.0000000  0 11G03G06G07G08G10G28G13G16G19G23G11
   2503474.82447   1943623.13545  21499605.2344                   21499603.4964
   3216403.96946   2494247.09844  23384627.3444                   23384626.5944
  -1864603.77048  -1439236.69946  21527437.7894                   21527435.4414
  -2459294.23847  -1900858.04844  23352066.7734                   23352065.9144
   1398383.17646   1086788.30443  24059634.5314                   24059636.3204
  -1134076.10946   -881478.28843  23996275.9614                   23996274.2814
    782430.24648    611880.86746  20053283.7034                   20053280.9574
   3783935.42246   2931638.46143  24026796.5864                   24026794.6334
   -373290.69948   -282482.55646  20866585.9064                   20866582.0824
   2955871.22348   2292880.06846  21010596.1414                   21010592.1134
   -296815.50846   -226893.62443  24112305.2274                   24112304.7504
 11  8 12 17  7  0.0000000  0 11G03G06G07G08G10G28G13G16G19G23G11
   2520591.97747   1956961.15345  21502862.6484                   21502861.0084
   3241070.08246   2513467.39444  23389321.8204                   23389320.5434
  -1907861.36747  -1472943.91146  21519206.2034                   21519203.6174
  -2511420.87147  -1941476.21544  23342147.4614                   23342146.3634
   1399929.83646   1087993.47143  24059928.6094                   24059930.2154
  -1183207.06646   -919762.12443  23986927.5164                   23986924.9654
    778226.86747    608605.49346  20052483.9144                   20052481.4264
   3811941.10946   2953461.07643  24032125.8674                   24032124.1374
   -392119.03547   -297153.99046  20863003.2814                   20862998.8714
   2978249.95348   2310318.00446  21014854.7894                   21014850.9414
   -353021.39846   -270690.43143  24101608.7504                   24101608.8674
 11  8 12 17  7 15.0000000  0 11G03G06G07G08G10G28G13G16G19G23G11
   2537833.14547   1970395.78645  21506143.9064                   21506142.4024
   3265820.05947   2532753.07144  23394031.2504                   23394030.1524
  -1951095.95348  -1506633.20646  21510978.6724                   21510976.3914
  -2563558.34447  -1982102.79644  23332225.7584                   23332224.7504
   1401565.11746   1089267.67443  24060240.4144                   24060241.2894
  -1232281.63346   -958002.04043  23977588.9534                   23977586.1094
    774172.87548    605446.53046  20051712.3594                   20051709.7544
   3839934.96546   2975274.40744  24037453.2424                   24037451.6684
   -410791.32848   -311703.83946  20859449.9064                   20859445.7034
   3000740.27048   2327842.90646  21019134.8674                   21019130.8444
   -409238.46946   -314495.94243  24090911.3984                   24090910.6764
 11  8 12 17  7 30.0000000  0 11G03G06G07G08G10G28G13G16G19G23G11
   2555197.59847   1983926.52045  21509447.7274                   21509446.4844
   3290653.01247   2552103.39944  23398756.3284                   23398755.6174
  -1994308.15247  -1540305.03346  21502755.9144                   21502753.0394
  -2615707.23447  -2022738.28644  23322302.2034                   23322301.9614
   1403288.32446   1090610.45243  24060567.9534                   24060569.2934
  -1281300.24246   -996198.36543  23968261.0234                   23968257.8794
    770267.64847    602403.47746  20050969.4144                   20050966.6134
   3867916.43446   2997078.11543  24042778.8444                   24042775.6334
   -429307.94548   -326132.37446  20855926.1094                   20855922.1454
   3023341.33248   2345454.09846  21023435.5864                   21023431.6454
   -465466.87546   -358310.25943  24080211.0004                   24080211.3554
 11  8 12 17  7 45.0000000  0 11G03G06G07G08G10G28G13G16G19G23G11
   2572686.57047   1997554.27745  21512775.7734                   21512774.2194
   3315570.22747   2571519.38644  23403497.7734                   23403497.5664
  -2037496.22748  -1573958.08246  21494537.6484                   21494534.8444
  -2667865.85247  -2063381.32544  23312376.3134                   23312376.4264
   1405100.64146   1092022.59144  24060913.9304                   24060914.4494
  -1330261.39546  -1034349.86143  23958943.9694                   23958941.0354
    766512.55948    599477.43346  20050254.8754                   20050252.1174
   3895886.71946   3018873.12743  24048100.1954                   24048098.7074
   -447667.45347   -340438.48146  20852432.6724                   20852428.6564
   3046054.52748   2363152.66946  21027757.5634                   21027753.4614
   -521704.82447   -402132.00543  24069509.9304                   24069509.7074
 11  8 12 17  8  0.0000000  0 11G03G06G07G08G10G28G13G16G19G23G11
   2590299.12947   2011278.31545  21516127.9534                   21516126.0904
   3340570.68846   2591000.21544  23408255.3594                   23408254.9104
  -2080660.87548  -1607592.86746  21486323.5554                   21486321.2034
  -2720034.72347  -2104032.40944  23302448.6174                   23302448.5394
   1407000.91446   1093503.28644  24061274.6414                   24061276.4734
  -1379165.99746  -1072457.34643  23949637.7664                   23949635.2974
    762906.84448    596667.76346  20049568.8444                   20049566.0004
   3923845.10946   3040658.82343  24053421.3364                   24053419.0514
   -465870.41448   -354622.61646  20848968.8364                   20848964.6724
   3068878.76648   2380937.76546  21032101.1804                   21032097.1174
   -577952.81246   -445961.59243  24058806.5234                   24058806.3054
 11  8 12 17  8 15.0000000  0 11G03G06G07G08G10G28G13G16G19G23G11
   2608033.22747   2025097.06345  21519502.5314                   21519500.8754
   3365652.27047   2610544.26844  23413028.6414                   23413027.4224
  -2123803.64148  -1641210.60646  21478113.8054                   21478111.1334
  -2772215.62947  -2144692.84244  23292519.2344                   23292518.5084
   1408987.16446   1095051.03044  24061652.8674                   24061654.3164
  -1428015.48046  -1110521.88743  23940341.6564                   23940340.0984
    759448.94148    593973.28146  20048910.8054                   20048908.0594
   3951789.68846   3062433.80243  24058738.2504                   24058736.5984
   -483918.52747   -368686.07546  20845534.7424                   20845530.3164
   3091812.02748   2398807.80846  21036465.0864                   21036460.9534
   -634212.15646   -489800.01343  24048100.6254                   24048099.8054
 11  8 12 17  8 30.0000000  0 11G03G06G07G08G10G28G13G16G19G23G11
   2625891.94947   2039012.95145  21522900.5634                   21522899.3324
   3390818.32047   2630154.16444  23417817.2894                   23417816.8364
  -2166920.64548  -1674808.27546  21469908.4774                   21469906.2424
  -2824404.85247  -2185359.75744  23282587.8204                   23282587.5824
   1411062.91446   1096668.46543  24062047.9384                   24062048.7154
  -1476806.32846  -1148540.66743  23931057.2814                   23931055.7544
    756142.39847    591396.74546  20048281.5864                   20048278.5664
   3979723.97746   3084200.76743  24064054.0474                   24064052.5204
   -501808.18448   -382626.06846  20842130.2114                   20842125.9884
   3114857.73848   2416765.48746  21040850.5474                   21040846.3634
   -690478.93746   -533644.24643  24037392.5394                   24037392.5984
 11  8 12 17  8 45.0000000  0 11G03G06G07G08G10G28G13G16G19G23G11
   2643874.26247   2053025.10445  21526322.4064                   21526321.2854
   3416067.68846   2649828.97044  23422622.0704                   23422621.7034
  -2210012.60948  -1708386.42646  21461708.7344                   21461706.0514
  -2876603.23447  -2226033.78144  23272654.9144                   23272654.5084
   1413226.75846   1098354.53643  24062459.6254                   24062460.1804
  -1525539.50446  -1186514.52743  23921783.0084                   23921781.9304
    752986.15248    588937.32146  20047680.9534                   20047678.1844
   4007647.00446   3105958.96443  24069368.1024                   24069365.6414
   -519540.13748   -396443.17846  20838755.9144                   20838751.5164
   3138014.78548   2434809.91546  21045257.1724                   21045253.5824
   -746753.61746   -577494.61943  24026684.7344                   24026684.0904
 11  8 12 17  9  0.0000000  0 11G03G06G07G08G10G28G13G16G19G23G11
   2661979.78947   2067133.28145  21529767.8914                   21529766.5394
   3441400.02347   2669568.41644  23427443.9614                   23427442.4064
  -2253079.53548  -1741945.06546  21453512.9534                   21453511.3714
  -2928810.80947  -2266715.01944  23262720.4144                   23262719.3914
   1415478.38746   1100109.02443  24062888.4064                   24062888.9454
  -1574214.99646  -1224443.53843  23912521.0634                   23912519.1024
    749980.06347    586594.90146  20047109.1094                   20047106.2424
   4035558.30146   3127707.94743  24074678.4614                   24074678.0164
   -537114.53147   -410137.51346  20835411.7344                   20835407.2384
   3161282.64548   2452940.68746  21049685.2734                   21049681.2074
   -803035.95746   -621350.96143  24015974.5164                   24015973.5274
 11  8 12 17  9 15.0000000  0 11G03G06G07G08G10G28G13G16G19G23G11
   2680205.60247   2081335.21645  21533236.2274                   21533234.9924
   3466812.43447   2689370.28444  23432278.7344                   23432277.7504
  -2296123.83248  -1775486.07746  21445322.2734                   21445319.9494
  -2981030.10247  -2307405.35444  23252783.0164                   23252782.1604
   1417814.84846   1101929.63443  24063333.3524                   24063333.3554
  -1622835.48446  -1262329.61343  23903268.5004                   23903267.4804
    747121.47347    584367.40746  20046564.7194                   20046562.2624
   4063455.25846   3149445.80043  24079988.3914                   24079986.1844
   -554533.99247   -423711.12046  20832096.6094                   20832092.3714
   3184658.50848   2471155.61246  21054133.8594                   21054129.5944
   -859328.25846   -665215.01343  24005262.2664                   24005261.8714
 11  8 12 17  9 30.0000000  0 11G03G06G07G08G10G28G13G16G19G23G11
   2698552.80947   2095631.70145  21536727.4304                   21536726.3524
   3492305.70347   2709235.15244  23437129.9454                   23437129.6294
  -2339144.11748  -1809008.36246  21437135.6174                   21437133.1884
  -3033259.82047  -2348103.80244  23242844.0554                   23242843.0474
   1420237.18046   1103817.12043  24063793.7584                   24063794.4574
  -1671399.62546  -1300171.71843  23894027.4694                   23894025.3014
    744411.66847    582255.86246  20046049.4614                   20046046.6294
   4091339.05146   3171173.39343  24085294.7734                   24085292.0824
   -571797.20347   -437162.97846  20828811.8364                   20828807.8134
   3208143.38748   2489455.51246  21058602.0704                   21058598.4224
   -915628.84746   -709085.57243  23994548.8594                   23994548.3054
 11  8 12 17  9 45.0000000  0 11G03G06G07G08G10G28G13G16G19G23G11
   2717021.71947   2110023.05645  21540242.0634                   21540240.3674
   3517880.58647   2729163.57344  23441996.6954                   23441996.2584
  -2382139.40648  -1842511.18946  21428953.8524                   21428951.5634
  -3085498.89847  -2388809.59844  23232903.3984                   23232902.2464
   1422745.92246   1105771.99043  24064271.7194                   24064271.3794
  -1719906.60246  -1337969.36143  23884795.9694                   23884795.7734
    741851.41047    580260.85146  20045562.1174                   20045559.1054
   4119210.25046   3192891.19743  24090597.6174                   24090595.9654
   -588903.23847   -450492.36146  20825556.5164                   20825552.8954
   3231737.76248   2507840.70846  21063091.8834                   21063088.5354
   -971936.62146   -752961.71043  23983833.0394                   23983832.9144
 11  8 12 17 10  0.0000000  0 11G03G06G07G08G10G28G13G16G19G23G11
   2735612.38747   2124509.26445  21543780.0164                   21543778.9614
   3543536.84047   2749155.45444  23446879.2274                   23446878.3244
  -2425109.25048  -1875994.18446  21420777.2734                   21420774.9184
  -3137747.17247  -2429522.51444  23222960.6254                   23222959.8404
   1425341.00446   1107794.08744  24064765.7114                   24064765.0354
  -1768356.08646  -1375722.13043  23875577.0944                   23875576.4884
    739441.08247    578382.65146  20045103.4144                   20045100.6764
   4147069.18446   3214599.40543  24095899.1414                   24095897.0904
   -605851.74247   -463698.98246  20822331.2584                   20822327.1024
   3255441.73048   2526311.31346  21067602.7734                   21067598.9344
  -1028250.98446   -796842.98443  23973117.2114                   23973116.5514
 11  8 12 17 10 15.0000000  0 11G03G06G07G08G10G28G13G16G19G23G11
   2754324.91047   2139090.43245  21547341.0554                   21547339.3594
   3569274.39547   2769210.64744  23451776.8834                   23451776.0664
  -2468053.19948  -1909457.00246  21412605.3984                   21412602.7974
  -3190004.15247  -2470242.21544  23213016.9454                   23213014.5314
   1428022.42646   1109883.46944  24065275.8284                   24065275.7464
  -1816747.91046  -1413430.02543  23866368.8444                   23866367.5394
    737180.50447    576621.14646  20044673.4144                   20044670.6214
   4174915.76646   3236297.99743  24101198.6484                   24101196.2624
   -622642.44547   -476782.64846  20819136.5084                   20819131.7584
   3279255.25048   2544867.26446  21072134.2894                   21072130.9024
  -1084571.18746   -840728.84443  23962400.0474                   23962399.0634
 11  8 12 17 10 30.0000000  0 11G03G06G07G08G10G28G13G16G19G23G11
   2773158.43847   2153765.88445  21550924.4304                   21550923.3634
   3595092.83247   2789328.90244  23456689.6254                   23456689.5514
  -2510971.45748  -1942899.79346  21404437.9924                   21404435.1214
  -3242270.21147  -2510969.01944  23203070.8594                   23203068.5744
   1430789.37946   1112039.54643  24065802.6724                   24065801.8594
  -1865082.54346  -1451093.38043  23857169.7344                   23857170.3754
    735069.39147    574976.11046  20044271.6484                   20044268.7074
   4202749.49246   3257986.62043  24106494.9224                   24106493.0354
   -639275.72747   -489743.64846  20815970.7974                   20815966.7504
   3303177.56648   2563508.00346  21076686.9694                   21076683.0634
  -1140897.40646   -884619.32843  23951681.0164                   23951680.5314
 11  8 12 17 10 45.0000000  0 11G03G06G07G08G10G28G13G16G19G23G11
   2792110.69947   2168533.84445  21554531.2194                   21554529.8554
   3620989.66847   2809508.23044  23461618.2424                   23461617.8364
  -2553865.82448  -1976323.98346  21396275.6254                   21396272.9224
  -3294547.16447  -2551704.29344  23193122.7814                   23193121.0744
   1433639.88746   1114260.68543  24066344.3134                   24066344.1884
  -1913361.74246  -1488713.48444  23847983.1094                   23847983.3164
    733105.90647    573446.10946  20043897.7664                   20043895.2734
   4230568.50046   3279663.66643  24111788.9454                   24111787.1174
   -655753.54347   -502583.50746  20812835.0394                   20812830.8834
   3327206.62948   2582231.92646  21081259.2974                   21081255.5004
  -1197231.12146   -928515.66043  23940960.9774                   23940960.3984
 11  8 12 17 11  0.0000000  0 11G03G06G07G08G10G28G13G16G19G23G11
   2811181.66047   2183394.32245  21558160.4454                   21558159.0864
   3646964.85247   2829748.59944  23466561.5234                   23466560.5824
  -2596735.94148  -2009729.27546  21388117.6094                   21388115.1454
  -3346834.77047  -2592447.86744  23183172.9694                   23183170.6804
   1436573.80546   1116546.82243  24066902.3284                   24066902.5664
  -1961585.30946  -1526290.24944  23838806.4924                   23838806.8984
    731290.04348    572031.13446  20043552.5784                   20043549.4264
   4258372.67246   3301329.26343  24117080.0474                   24117078.1094
   -672075.60547   -515301.99246  20809729.2814                   20809724.9574
   3351342.24248   2601038.87246  21085852.1564                   21085848.5204
  -1253571.89146   -972417.53543  23930240.3594                   23930239.4804
 11  8 12 17 11 15.0000000  0 11G03G06G07G08G10G28G13G16G19G23G11
   2830370.10547   2198346.33945  21561811.7734                   21561810.4344
   3673017.19947   2850049.09344  23471518.2814                   23471517.7154
  -2639582.66048  -2043116.31246  21379964.4304                   21379961.9304
  -3399133.85547  -2633200.38444  23173220.6724                   23173217.9144
   1439589.74246   1118896.88843  24067475.7034                   24067476.6054
  -2009754.25046  -1563824.44344  23829640.0784                   23829640.5164
    729620.83247    570730.43246  20043234.8674                   20043231.9144
   4286160.95746   3322982.37743  24122367.4064                   24122365.8364
   -688242.97347   -527899.94746  20806652.3594                   20806648.8164
   3375583.16848   2619927.87846  21090465.1334                   21090460.8204
  -1309920.35546  -1016325.34543  23919517.5474                   23919516.4804
 11  8 12 17 11 30.0000000  0 11G03G06G07G08G10G28G13G16G19G23G11
   2849680.61747   2213393.46745  21565486.6884                   21565485.4574
   3699151.26247   2870413.27744  23476491.0234                   23476490.4614
  -2682400.79748  -2076481.09346  21371816.1334                   21371813.5474
  -3451439.44147  -2673957.97744  23163267.0704                   23163265.1484
   1442692.34046   1121314.43243  24068067.4454                   24068066.2774
  -2057863.65246  -1601312.24444  23820485.4304                   23820485.5314
    728103.15647    569547.81646  20042945.8364                   20042943.3634
   4313938.12946   3344627.00743  24127653.6334                   24127651.7384
   -704250.67247   -540373.46946  20803606.5394                   20803602.7154
   3399934.02748   2638902.54346  21095098.9924                   21095095.3054
  -1366271.07046  -1060234.97043  23908794.1024                   23908793.3554
 11  8 12 17 11 45.0000000  0 11G03G06G07G08G10G28G13G16G19G23G11
   2869109.53147   2228532.87945  21569183.8524                   21569182.4304
   3725363.53546   2890838.36644  23481479.8984                   23481478.7894
  -2725193.55948  -2109826.11446  21363672.7344                   21363670.3404
  -3503754.94947  -2714723.27144  23153312.2344                   23153309.7854
   1445878.05946   1123796.75743  24068672.9924                   24068672.4184
  -2105916.71946  -1638756.19844  23811341.3754                   23811341.4884
    726733.69147    568480.68446  20042685.8594                   20042682.9064
   4341700.91846   3366260.24843  24132936.7504                   24132934.3914
   -720101.81247   -552725.01046  20800590.0394                   20800585.8554
   3424391.34448   2657960.16446  21099753.1414                   21099749.4184
  -1422627.15646  -1104148.77343  23898069.9144                   23898068.9064
 11  8 12 17 12  0.0000000  0 11G03G06G07G08G10G28G13G16G19G23G11
   2888656.40647   2243764.18945  21572903.4384                   21572901.8914
   3751653.56346   2911324.09244  23486482.2974                   23486481.7734
  -2767960.74648  -2143151.19146  21355534.3594                   21355531.9184
  -3556080.09447  -2755496.10644  23143355.0864                   23143352.8164
   1449146.49646   1126343.65543  24069295.5234                   24069293.6804
  -2153913.56646  -1676156.29644  23802207.1954                   23802206.6054
    725512.26647    567528.90246  20042452.9774                   20042450.2544
   4369449.06646   3387882.17243  24138215.9064                   24138215.0984
   -735796.51647   -564954.65146  20797603.6334                   20797599.6214
   3448954.73048   2677100.43846  21104427.1334                   21104423.4654
  -1478988.20746  -1148066.40943  23887344.2814                   23887343.8754
 11  8 12 17 12 15.0000000  0 11G03G06G07G08G10G28G13G16G19G23G11
   2908319.76247   2259086.28645  21576645.6024                   21576643.5744
   3778019.93846   2931869.30344  23491500.2504                   23491499.1024
  -2810703.53148  -2176457.24346  21347400.7974                   21347398.6764
  -3608416.13747  -2796277.43344  23133395.9454                   23133393.8524
   1452496.19946   1128953.72143  24069932.8054                   24069931.6764
  -2201855.38746  -1713513.53043  23793083.8754                   23793083.4414
    724437.55147    566691.46146  20042248.3444                   20042245.8914
   4397181.20346   3409491.55443  24143494.5004                   24143492.5004
   -751336.03547   -577063.36346  20794646.4224                   20794642.5204
   3473622.80548   2696322.28146  21109121.6414                   21109117.6024
  -1535355.08646  -1191988.61543  23876618.6094                   23876617.2974
 11  8 12 17 12 30.0000000  0 11G03G06G07G08G10G28G13G16G19G23G11
   2928101.52747   2274500.63845  21580409.3594                   21580408.1994
   3804464.30547   2952475.26644  23496532.0784                   23496531.8164
  -2853419.54348  -2209742.44346  21339272.3054                   21339270.2384
  -3660760.91047  -2837065.52444  23123434.8054                   23123433.2304
   1455929.03546   1131628.62743  24070586.0164                   24070585.5474
  -2249739.99646  -1750826.14444  23783972.0634                   23783971.6564
    723511.65648    565969.96546  20042072.0704                   20042069.6334
   4424899.21946   3431089.96543  24148768.4694                   24148767.1254
   -766718.20747   -589049.46946  20791719.6254                   20791715.5474
   3498397.28948   2715627.04546  21113835.8364                   21113832.1254
  -1591725.53146  -1235913.54043  23865890.8364                   23865890.2034
 11  8 12 17 12 45.0000000  0 11G03G06G07G08G10G28G13G16G19G23G11
   4523417.64547   3517604.06745  21883988.1884                   21883986.8164
   5406402.40246   4200738.69644  23801370.8984                   23801370.9224
  -1320688.06248  -1015406.21946  21630941.4064                   21630938.8714
  -2137693.04747  -1650259.37544  23413265.2504                   23413263.3364
   3034862.30946   2361966.25443  24371046.6644                   24371045.7154
   -722146.48846   -560493.53244  24074663.2664                   24074663.3874
   2298152.41848   1792962.76046  20341716.6954                   20341714.0744
   6028018.89146   4680274.09243  24453832.6724                   24453831.0124
    793475.69948    626686.03546  21088614.3834                   21088610.6764
   5098693.75848   3962611.27846  21418362.3364                   21418358.7424
    -72677.34446    -52239.52643  24154956.3524                   24154955.9104
 11  8 12 17 13  0.0000000  0 11G03G06G07G08G10G28G13G16G19G23G11
   4543432.97747   3533200.42845  21887797.0784                   21887795.6764
   5432999.92646   4221464.01644  23806432.1094                   23806431.5234
  -1363352.02048  -1048650.86046  21622822.6024                   21622820.2114
  -2190056.97347  -1691062.41744  23403300.4844                   23403299.0944
   3038458.48446   2364768.43943  24371731.2974                   24371730.3364
   -769918.73047   -597718.60844  24065572.9774                   24065572.3874
   2297522.00048   1792471.50446  20341596.4694                   20341593.9184
   6055706.32046   4701848.66943  24459101.9454                   24459099.8444
    778406.30948    614943.65346  21085746.6884                   21085742.8284
   5123677.97748   3982079.47546  21423116.9534                   21423112.9024
   -129055.48847    -96170.50443  24144227.6254                   24144227.8714
 11  8 12 17 13 15.0000000  0 11G03G06G07G08G10G28G13G16G19G23G11
   4563564.75847   3548887.50045  21891627.9924                   21891626.3794
   5459673.65246   4242248.67844  23811508.1254                   23811507.1254
  -1405989.78148  -1081875.09246  21614708.7504                   21614706.7114
  -2242430.33647  -1731872.80544  23393334.4144                   23393333.5274
   3042135.68046   2367633.74343  24372430.8054                   24372430.4804
   -817634.92246   -634900.07744  24056492.8754                   24056491.6604
   2297039.03148   1792095.15646  20341504.8594                   20341502.0664
   6083378.23846   4723411.14243  24464367.9454                   24464365.5554
    763493.26248    603323.09846  21082909.2114                   21082904.7814
   5148766.69948   4001629.08846  21427891.0084                   21427887.3404
   -185437.01246   -140104.04743  24133498.2894                   24133498.4614
 11  8 12 17 13 30.0000000  0 11G03G06G07G08G10G28G13G16G19G23G11
   4583812.99248   3564665.32345  21895480.8284                   21895479.5084
   5486423.56647   4263092.78844  23816599.1094                   23816597.7814
  -1448600.71148  -1115078.40146  21606600.2974                   21606597.9224
  -2294812.71947  -1772690.21144  23383365.6414                   23383365.7034
   3045894.14146   2370562.35143  24373146.3444                   24373145.3284
   -865294.60946   -672037.41944  24047423.9774                   24047422.0124
   2296703.96548   1791834.05446  20341440.8284                   20341438.3914
   6111035.09446   4744961.90443  24469629.5084                   24469628.4304
    748736.99648    591824.71646  21080100.7274                   21080096.7384
   5173960.07848   4021260.26246  21432685.2194                   21432681.4884
   -241821.09847   -184039.71143  24122769.1804                   24122768.7934
 11  8 12 17 13 45.0000000  0 11G03G06G07G08G10G28G13G16G19G23G11
   4604178.87547   3580534.83745  21899356.4304                   21899354.8284
   5513251.02346   4283997.23144  23821703.0394                   23821703.2194
  -1491182.89148  -1148259.32646  21598497.2814                   21598494.8014
  -2347202.45347  -1813513.38644  23373396.7814                   23373395.5594
   3049735.21546   2373555.36043  24373877.0084                   24373875.8874
   -912896.15647   -709129.54044  24038365.3674                   24038363.6804
   2296518.14548   1791689.24446  20341406.0784                   20341402.7114
   6138678.29746   4766502.02743  24474889.9384                   24474888.6094
    734139.02348    580449.66846  21077322.7734                   21077318.8284
   5199259.35948   4040973.96046  21437499.5314                   21437495.7234
   -298205.97347   -227975.89443  24112039.5004                   24112038.5594
 11  8 12 17 14  0.0000000  0 11G03G06G07G08G10G28G13G16G19G23G11
   4624658.81647   3596493.19745  21903253.7114                   21903251.8164
   5540152.11746   4304959.09644  23826822.6414                   23826822.2114
  -1533740.02048  -1181420.71846  21590398.6884                   21590396.6524
  -2399602.91047  -1854344.87944  23363425.0394                   23363424.2074
   3053654.89146   2376609.63343  24374623.8054                   24374622.4534
   -960443.22747   -746179.20144  24029317.7664                   24029314.9104
   2296478.05547   1791657.98846  20341397.7344                   20341395.0314
   6166304.05946   4788028.57643  24480148.2034                   24480145.0394
    719695.89147    569195.28546  21074574.6024                   21074570.5084
   5224660.67648   4060767.18246  21442333.1724                   21442329.1884
   -354594.75446   -271915.14044  24101309.1094                   24101308.1684
 11  8 12 17 14 15.0000000  0 11G03G06G07G08G10G28G13G16G19G23G11
   4645252.10947   3612539.91545  21907172.1644                   21907171.1684
   5567126.50446   4325978.06544  23831956.1174                   23831955.4414
  -1576272.00448  -1214562.52846  21582305.7114                   21582303.0124
  -2452014.08647  -1895184.75644  23353451.7584                   23353450.6334
   3057652.93446   2379724.99443  24375384.0784                   24375383.1214
  -1007935.73447   -783186.31844  24020280.2664                   24020277.5204
   2296583.64147   1791740.25146  20341418.0704                   20341415.4224
   6193912.29346   4809541.46543  24485400.8914                   24485398.9574
    705407.55147    558061.51146  21071855.6174                   21071851.7074
   5250163.80548   4080639.71446  21447186.4224                   21447182.2464
   -410987.09046   -315857.17443  24090578.0864                   24090577.2384
 11  8 12 17 14 30.0000000  0 11G03G06G07G08G10G28G13G16G19G23G11
   4665960.29347   3628676.15145  21911113.5164                   21911111.3834
   5594175.63346   4347055.28344  23837103.1724                   23837102.8404
  -1618776.81248  -1247683.14846  21574217.1724                   21574214.6254
  -2504434.10947  -1936031.52344  23343476.0474                   23343475.5204
   3061730.72346   2382902.49643  24376160.1954                   24376159.0784
  -1055371.97746   -820149.59044  24011253.3364                   24011251.8324
   2296836.50048   1791937.26246  20341466.1884                   20341463.2934
   6221504.64545   4831041.92643  24490651.8834                   24490649.6764
    691275.80148    547049.75546  21069166.4924                   21069162.6564
   5275770.19948   4100592.71246  21452059.4534                   21452055.3834
   -467380.85947   -359800.24943  24079846.7584                   24079845.7624
 11  8 12 17 14 45.0000000  0 11G03G06G07G08G10G28G13G16G19G23G11
   4686783.66847   3644902.13045  21915075.8754                   21915074.0394
   5621299.82046   4368190.99344  23842264.4924                   23842264.3524
  -1661253.59448  -1280781.93346  21566133.8444                   21566131.5664
  -2556862.12147  -1976884.51044  23333499.3054                   23333498.6254
   3065888.58646   2386142.34543  24376950.5474                   24376950.3484
  -1102751.35947   -857068.53844  24002236.8284                   24002235.5904
   2297237.26648   1792249.52646  20341542.4454                   20341539.5164
   6249081.66046   4852530.56443  24495899.1564                   24495897.4414
    677301.11748    536160.39046  21066507.2894                   21066502.7234
   5301480.18048   4120626.44146  21456951.6954                   21456947.4344
   -523775.04746   -403743.76343  24069114.9454                   24069113.8874
 11  8 12 17 15  0.0000000  0 11G03G06G07G08G10G28G13G16G19G23G11
   4707719.40247   3661215.67045  21919059.8204                   21919058.3554
   5648496.21546   4389382.97544  23847440.0554                   23847439.3874
  -1703704.66448  -1313860.68546  21558055.7424                   21558053.3484
  -2609300.78547  -2017745.82044  23323520.4694                   23323519.6454
   3070123.70746   2389442.42943  24377756.4844                   24377756.6454
  -1150076.34046   -893945.15743  23993231.1484                   23993229.6644
   2297783.19147   1792674.92346  20341646.2114                   20341643.6294
   6276640.69546   4874005.07643  24501143.7734                   24501142.4104
    663481.07847    525391.51846  21063877.2894                   21063872.8914
   5327290.68448   4140738.50046  21461862.9384                   21461858.9414
   -580172.02746   -447689.39043  24058382.9144                   24058381.9344
 11  8 12 17 15 15.0000000  0 11G03G06G07G08G10G28G13G16G19G23G11
   4728767.44947   3677616.72945  21923065.0004                   21923063.4774
   5675764.70746   4410631.10144  23852628.9534                   23852628.7384
  -1746129.80148  -1346919.22446  21549982.5084                   21549980.0984
  -2661749.78147  -2058615.15144  23313539.7034                   23313539.6294
   3074435.87946   2392802.51943  24378577.6644                   24378576.9104
  -1197346.86746   -930779.33243  23984235.5634                   23984234.1644
   2298474.35948   1793213.47746  20341777.7034                   20341775.2624
   6304181.40646   4895465.31643  24506385.1024                   24506383.1914
    649815.82447    514743.27046  21061276.9694                   21061272.9104
   5353201.73848   4160928.90346  21466794.1174                   21466790.4774
   -636571.15246   -491636.68843  24047649.9924                   24047649.7034
 11  8 12 17 15 30.0000000  0 11G03G06G07G08G10G28G13G16G19G23G11
   4749926.65247   3694104.41845  21927091.5704                   21927089.9534
   5703104.21146   4431934.58644  23857831.9774                   23857830.9494
  -1788529.50448  -1379957.96246  21541913.9694                   21541911.9224
  -2714209.85247  -2099493.09644  23303556.5234                   23303556.6724
   3078824.02746   2396221.81943  24379411.6024                   24379411.6994
  -1244563.59846   -967571.51344  23975250.6094                   23975249.4574
   2299309.94148   1793864.56846  20341936.9384                   20341934.2934
   6331703.13346   4916910.80343  24511621.5474                   24511620.5234
    636304.52348    504214.98546  21058705.6804                   21058701.8244
   5379212.29748   4181196.84246  21471743.4694                   21471739.4654
   -692972.96546   -535586.10043  24036917.6094                   24036916.7854
 11  8 12 17 15 45.0000000  0 11G03G06G07G08G10G28G13G16G19G23G11
   4771197.75047   3710679.26445  21931139.1884                   21931137.7344
   5730515.41446   4453293.94844  23863048.3594                   23863047.5634
  -1830902.61348  -1412975.95846  21533850.7504                   21533848.1024
  -2766679.78147  -2140378.75944  23293572.6094                   23293571.7624
   3083289.19146   2399701.14343  24380262.7814                   24380260.4734
  -1291725.52346  -1004321.06743  23966275.9384                   23966275.2424
   2300291.03147   1794629.03346  20342123.6334                   20342120.6524
   6359206.87146   4938342.24343  24516855.6094                   24516854.5044
    622948.28148    493807.52446  21056164.2194                   21056160.1414
   5405323.14848   4201542.91846  21476712.3594                   21476708.4574
   -749375.80946   -579536.32643  24026184.7194                   24026183.2974
 11  8 12 17 16  0.0000000  0 11G03G06G07G08G10G28G13G16G19G23G11
   4792580.96947   3727341.50245  21935208.1644                   21935206.5314
   5757998.65646   4474709.44044  23868277.5554                   23868277.1684
  -1873248.30547  -1445972.58946  21525792.5784                   21525790.5354
  -2819158.88347  -2181271.56044  23283585.8674                   23283584.9654
   3087831.37946   2403240.44443  24381126.6724                   24381125.5474
  -1338832.10546  -1041027.44543  23957312.0474                   23957310.8164
   2301418.04348   1795507.21346  20342337.7274                   20342335.1844
   6386693.12146   4959760.07643  24522085.8594                   24522084.6134
    609747.58647    483521.25446  21053652.1414                   21053648.1254
   5431534.59448   4221967.39646  21481700.1484                   21481696.2424
   -805778.92647   -623486.74443  24015451.5704                   24015450.6334
 11  8 12 17 16 15.0000000  0 11G03G06G07G08G10G28G13G16G19G23G11
   4814076.01647   3744090.86545  21939299.0234                   21939297.7234
   5785553.60946   4496180.79043  23873521.3754                   23873521.0664
  -1915566.36748  -1478947.71046  21517740.0394                   21517737.4804
  -2871647.05147  -2222171.40944  23273597.9534                   23273596.0434
   3092450.55946   2406839.73443  24382005.9454                   24382005.5904
  -1385883.22746  -1077690.65243  23948358.8914                   23948356.5664
   2302690.95348   1796499.08346  20342580.1644                   20342577.6094
   6414161.80146   4981164.22243  24527313.1724                   24527311.7934
    596702.42248    473356.20046  21051169.6724                   21051165.8054
   5457846.21148   4242469.92446  21486706.9384                   21486703.2704
   -862181.86347   -667437.02844  24004718.0394                   24004717.0944
 11  8 12 17 16 30.0000000  0 11G03G06G07G08G10G28G13G16G19G23G11
   4835683.14847   3760927.56345  21943410.4144                   21943409.1914
   5813180.82446   4517708.47144  23878777.8984                   23878778.5004
  -1957856.06647  -1511900.72146  21509692.4844                   21509690.0514
  -2924143.53147  -2263077.76244  23263607.1954                   23263606.4804
   3097146.93846   2410499.23943  24382899.5314                   24382898.2814
  -1432878.29746  -1114310.17643  23939415.7194                   23939413.4694
   2304110.29348   1797605.04646  20342850.0164                   20342847.5904
   6441613.41446   5002555.07643  24532537.2114                   24532535.3634
    583813.59447    463312.95146  21048716.5704                   21048713.0664
   5484258.55548   4263050.95046  21491733.2114                   21491729.4064
   -918583.61347   -711386.42844  23993985.4774                   23993984.6724
 11  8 12 17 16 45.0000000  0 11G03G06G07G08G10G28G13G16G19G23G11
   4857400.41847   3777850.09645  21947543.3054                   21947541.8984
   5840877.89846   4539290.54344  23884049.6644                   23884048.6214
  -2000118.94147  -1544832.82846  21501649.9384                   21501647.4654
  -2976650.06647  -2303991.91544  23253616.6094                   23253615.6414
   3101918.22346   2414217.08143  24383807.5234                   24383806.0164
  -1479819.24246  -1150887.56043  23930482.7814                   23930481.2154
   2305674.05148   1798823.55046  20343147.8444                   20343145.2814
   6469046.09446   5023931.13843  24537757.6254                   24537756.2504
    571079.22347    453390.06346  21046293.5164                   21046289.6254
   5510769.53948   4283708.81846  21496777.7034                   21496774.4024
   -974985.57447   -755335.91243  23983252.0314                   23983251.1994
 11  8 12 17 17  0.0000000  0 11G03G06G07G08G10G28G13G16G19G23G11
   4879228.57047   3794859.02845  21951697.1334                   21951695.0204
   5868645.85946   4560927.91044  23889333.3444                   23889332.8244
  -2042353.51248  -1577742.88846  21493613.2114                   21493610.8554
  -3029165.45747  -2344912.99144  23243623.1954                   23243621.6054
   3106765.38347   2417994.06943  24384730.3284                   24384728.8794
  -1526704.74646  -1187421.71343  23921561.2814                   23921559.6024
   2307383.39147   1800155.49146  20343473.1804                   20343470.3914
   6496460.77346   5045293.19744  24542974.7504                   24542973.5514
    558500.43447    443588.40146  21043900.1564                   21043896.2344
   5537379.89848   4304444.12746  21501842.0704                   21501838.4964
  -1031386.19947   -799284.41643  23972519.8134                   23972518.4224
 11  8 12 17 17 15.0000000  0 11G03G06G07G08G10G28G13G16G19G23G11
   4901167.32047   3811954.13045  21955871.9534                   21955870.3674
   5896484.52746   4582620.29844  23894630.5314                   23894630.2344
  -2084559.68048  -1610630.79946  21485581.4304                   21485578.9964
  -3081689.46547  -2385840.76644  23233628.1174                   23233625.5394
   3111688.18447   2421829.98443  24385666.5164                   24385666.1024
  -1573534.77746  -1223912.63343  23912649.4144                   23912648.1214
   2309238.22747   1801600.81146  20343825.9694                   20343823.2624
   6523857.47346   5066641.26244  24548188.0004                   24548187.5004
    546077.46147    433908.16046  21041536.0474                   21041531.7544
   5564089.46948   4325256.74546  21506924.3594                   21506920.6214
  -1087785.13746   -843231.59043  23961786.2584                   23961785.8554
 11  8 12 17 17 30.0000000  0 11G03G06G07G08G10G28G13G16G19G23G11
   4923215.23447   3829134.30345  21960067.5704                   21960066.0204
   5924392.30146   4604366.62344  23899941.4384                   23899941.1374
  -2126738.52748  -1643497.41846  21477555.0944                   21477552.5984
  -3134223.22747  -2426776.17344  23223631.1174                   23223629.3714
   3116685.27346   2425723.77143  24386618.0704                   24386618.1214
  -1620310.54346  -1260361.26043  23903748.3914                   23903747.2934
   2311237.50048   1803158.66246  20344206.9534                   20344204.1254
   6551234.96146   5087974.33144  24553397.7734                   24553396.1954
    533808.95348    424348.28846  21039201.3834                   21039197.5274
   5590896.82048   4346145.56746  21512025.7114                   21512021.9614
  -1144183.08646   -887177.98243  23951054.6174                   23951054.0434
 11  8 12 17 17 45.0000000  0 11G03G06G07G08G10G28G13G16G19G23G11
   4945375.21147   3846401.77045  21964283.7814                   21964283.0314
   5952372.20346   4626169.08444  23905266.1644                   23905265.3634
  -2168886.58247  -1676340.05846  21469534.3524                   21469531.7814
  -3186763.34047  -2467716.48644  23213633.5944                   23213631.5274
   3121759.43047   2429677.67443  24387583.5864                   24387583.5784
  -1667028.81646  -1296765.03843  23894857.3134                   23894857.6454
   2313383.98848   1804831.23346  20344614.8834                   20344612.8484
   6578596.30546   5109294.81243  24558604.4454                   24558602.5784
    521698.06348    414911.21546  21036896.7974                   21036892.6994
   5617804.81348   4367112.78946  21517146.4144                   21517142.5124
  -1200576.52747   -931120.87543  23940323.3364                   23940322.5904
 11  8 12 17 18  0.0000000  0 11G03G06G07G08G10G28G13G16G19G23G11
   4967642.37947   3863752.82045  21968521.5554                   21968520.1254
   5980419.24646   4648023.87944  23910602.5084                   23910602.5864
  -2211008.24647  -1709162.12846  21461518.7424                   21461516.3794
  -3239314.30947  -2508665.31844  23203633.6804                   23203630.7774
   3126905.78547   2433687.79443  24388562.9534                   24388563.3134
  -1713694.09846  -1333127.58543  23885977.3054                   23885976.7734
   2315673.14147   1806614.98546  20345050.7814                   20345048.4694
   6605936.82046   5130599.12743  24563807.2274                   24563805.3364
    509740.18847    405593.37946  21034621.3054                   21034616.9804
   5644808.56648   4388154.65446  21522285.1254                   21522281.1294
  -1256969.74246   -975063.63743  23929592.1254                   23929591.0744
 11  8 12 17 18 15.0000000  0 11G03G06G07G08G10G28G13G16G19G23G11
   4990017.49647   3881187.95045  21972779.5004                   21972777.9414
   6008534.25846   4669931.66044  23915952.7584                   23915952.3954
  -2253102.10547  -1741962.54346  21453508.8594                   21453506.6174
  -3291874.87547  -2549621.57244  23193630.9534                   23193628.9884
   3132125.32047   2437754.93743  24389556.0394                   24389556.6214
  -1760305.38746  -1369448.06644  23877107.7274                   23877107.4844
   2318106.10548   1808510.78846  20345513.7734                   20345511.1564
   6633257.53546   5151887.97443  24569006.2814                   24569004.4694
    497936.59447    396395.77746  21032375.1484                   21032371.1954
   5671908.89148   4409271.75746  21527441.7584                   21527438.2734
  -1313361.21546  -1019004.99643  23918860.8444                   23918859.6334
 11  8 12 17 18 30.0000000  0 11G03G06G07G08G10G28G13G16G19G23G11
   5012502.48447   3898708.69745  21977058.7424                   21977056.9064
   6036719.28146   4691893.98144  23921317.2974                   23921315.9924
  -2295165.71147  -1774739.37846  21445504.4614                   21445502.4534
  -3344442.47747  -2590583.30644  23183627.4844                   23183626.4264
   3137419.96547   2441880.61043  24390563.1954                   24390563.8404
  -1806860.27746  -1405724.58243  23868248.2034                   23868248.2774
   2320685.06348   1810520.34846  20346004.4774                   20346001.9384
   6660560.73046   5173163.17943  24574201.5234                   24574199.6254
    486289.47347    387320.09446  21030158.7734                   21030154.7034
   5699107.93448   4430465.78346  21532617.8364                   21532614.1254
  -1369748.25846  -1062942.95043  23908131.4694                   23908129.9844
 11  8 12 17 18 45.0000000  0 11G03G06G07G08G10G28G13G16G19G23G11
   5035094.80947   3916313.08445  21981357.6334                   21981356.0824
   6064971.57846   4713908.70943  23926692.9384                   23926692.2234
  -2337201.39147  -1807494.44146  21437505.3594                   21437503.1604
  -3397019.68447  -2631552.56944  23173622.7114                   23173620.8984
   3142786.81347   2446062.52543  24391585.2114                   24391585.8164
  -1853361.20746  -1441959.09443  23859399.7664                   23859399.5554
   2323407.51248   1812641.73146  20346522.5634                   20346519.7464
   6687843.73446   5194422.61043  24579393.6644                   24579391.3364
    474796.36747    378364.42046  21027971.8444                   21027967.6684
   5726403.09848   4451734.71146  21537812.1564                   21537808.1844
  -1426132.87946  -1106878.90444  23897402.0164                   23897400.0824
 11  8 12 17 19  0.0000000  0 11G03G06G07G08G10G28G13G16G19G23G11
   5057796.66447   3934002.82145  21985677.2274                   21985675.8754
   6093293.61746   4735977.81644  23932082.6484                   23932082.1724
  -2379206.28147  -1840225.53446  21429512.4454                   21429509.3524
  -3449603.63347  -2672527.04344  23163616.4224                   23163614.4064
   3148228.30147   2450302.63943  24392620.1414                   24392620.6524
  -1899805.66046  -1478149.56144  23850561.7424                   23850561.5744
   2326275.90248   1814876.82746  20347068.6724                   20347065.9304
   6715109.05546   5215668.29943  24584581.7814                   24584579.9534
    463459.84047    369530.75446  21025814.6254                   21025810.5664
   5753796.53147   4473080.21346  21543024.8594                   21543021.1054
  -1482512.20746  -1150810.80744  23886673.1564                   23886671.8674
 11  8 12 17 19 15.0000000  0 11G03G06G07G08G10G28G13G16G19G23G11
   5080605.76647   3951776.12745  21990018.1254                   21990016.0044
   6121682.77346   4758099.18144  23937485.1884                   23937484.4064
  -2421182.23847  -1872934.06046  21421524.2894                   21421522.1294
  -3502196.28147  -2713508.31344  23153608.4144                   23153606.1954
   3153742.13347   2454599.13243  24393669.9224                   24393669.6954
  -1946195.64146  -1514297.58444  23841734.0474                   23841734.5984
   2329288.00847   1817223.90846  20347641.2734                   20347638.6134
   6742354.71146   5236898.62343  24589766.8524                   24589764.7154
    452277.85247    360817.51946  21023686.5234                   21023682.6914
   5781285.76648   4494500.36246  21548256.0164                   21548252.2344
  -1538887.74646  -1194739.76643  23875944.9924                   23875943.5664
 11  8 12 17 19 30.0000000  0 11G03G06G07G08G10G28G13G16G19G23G11
   5103523.39847   3969634.00245  21994379.1334                   21994377.9734
   6150140.73446   4780274.17843  23942900.9224                   23942899.5784
  -2463127.26647  -1905618.49346  21413542.6174                   21413540.1564
  -3554795.65647  -2754494.83044  23143599.0314                   23143597.4304
   3159329.70346   2458952.99843  24394732.1884                   24394732.8324
  -1992529.30946  -1550401.70744  23832917.1334                   23832916.7704
   2332445.56347   1819684.32346  20348242.4224                   20348240.0514
   6769582.18046   5258114.77243  24594947.7274                   24594946.4534
    441252.21947    352226.10746  21021588.6174                   21021584.2734
   5808872.25848   4515996.31046  21553505.4844                   21553501.6844
  -1595257.41846  -1238664.16343  23865217.7114                   23865217.2934
 11  8 12 17 19 45.0000000  0 11G03G06G07G08G10G28G13G16G19G23G11
   5126549.17247   3987576.14645  21998760.7424                   21998759.5704
   6178667.11746   4802502.51943  23948328.6414                   23948328.1374
  -2505041.33248  -1938278.82146  21405566.1254                   21405563.6684
  -3607401.82047  -2795486.62044  23133588.4304                   23133587.3054
   3164990.63347   2463364.09843  24395810.2584                   24395809.4924
  -2038806.53547  -1586461.89444  23824111.3284                   23824110.7034
   2335748.47347   1822257.99646  20348871.2344                   20348868.3014
   6796791.41845   5279316.81443  24600125.2584                   24600124.2154
    430382.77047    343756.39946  21019520.2664                   21019516.3714
   5836555.77347   4537567.84245  21558773.4614                   21558769.9304
  -1651620.83646  -1282583.67743  23854491.4614                   23854491.5864
 11  8 12 17 20  0.0000000  0 11G03G06G07G08G10G28G13G16G19G23G11
   5149680.68447   4005600.68345  22003162.4614                   22003161.4224
   6207259.34446   4824782.13544  23953769.3284                   23953769.0864
  -2546926.35947  -1970916.48846  21397595.7734                   21397593.3754
  -3660017.06647  -2836485.50744  23123576.3444                   23123575.0314
   3170722.53946   2467830.47743  24396900.3204                   24396900.9024
  -2085029.78546  -1622480.01644  23815315.1254                   23815314.9804
   2339194.43848   1824943.16346  20349527.0634                   20349523.8484
   6823980.10245   5300502.76843  24605299.3834                   24605297.1994
    419667.23848    335406.62046  21017480.9924                   21017476.7544
   5864333.83248   4559213.05546  21564059.2814                   21564055.4694
  -1707979.97746  -1326499.80843  23843767.5784                   23843767.0164
 11  8 12 17 20 15.0000000  0 11G03G06G07G08G10G28G13G16G19G23G11
   5172920.68447   4023709.71745  22007584.8984                   22007583.7074
   6235920.35546   4847115.35543  23959223.2034                   23959223.2304
  -2588778.98447  -2003528.92846  21389631.4774                   21389629.3984
  -3712637.96547  -2877488.79144  23113562.6804                   23113560.3244
   3176528.09847   2472354.22843  24398005.3914                   24398005.9064
  -2131196.07847  -1658453.73944  23806530.6094                   23806529.9224
   2342786.42247   1827742.10146  20350210.1564                   20350207.4734
   6851151.30946   5321675.21443  24610469.0314                   24610468.2304
    409108.84048    327179.29846  21015471.9774                   21015467.7704
   5892209.08648   4580934.00246  21569364.0784                   21569360.3594
  -1764331.30946  -1370409.90243  23833043.7664                   23833042.7074
 11  8 12 17 20 30.0000000  0 10G03G06G07G08G10G28G13G19G23G11
   5196267.28547   4041901.87745  22012027.7504                   22012026.2304
   6264648.19146   4869500.63644  23964690.4304                   23964689.6094
  -2630600.57448  -2036117.17446  21381673.3984                   21381670.8914
  -3765265.85547  -2918497.52544  23103547.0314                   23103546.0784
   3182405.33246   2476933.89443  24399124.0474                   24399124.4104
  -2177306.79747  -1694384.15744  23797755.6724                   23797754.7734
   2346522.57447   1830653.37446  20350921.3984                   20350918.5664
    398705.93848    319073.13246  21013492.1804                   21013488.4064
   5920179.86747   4602729.37546  21574686.7974                   21574682.8874
  -1820676.02746  -1414314.89644  23822322.3284                   23822320.5864
 11  8 12 17 20 45.0000000  0 10G03G06G07G08G10G28G13G19G23G11
   5219719.74647   4060176.49345  22016490.5554                   22016489.4694
   6293442.23046   4891937.52944  23970170.0164                   23970169.5514
  -2672391.27047  -2068681.34346  21373720.5784                   21373718.2504
  -3817901.01647  -2959511.93844  23093531.4844                   23093530.5124
   3188353.72346   2481568.93643  24400255.8914                   24400256.2704
  -2223362.43447  -1730271.67344  23788991.6254                   23788990.3524
   2350402.67247   1833676.80146  20351659.7274                   20351656.9104
    388458.13748    311087.82246  21011542.2114                   21011538.1644
   5948245.43848   4624598.62446  21580027.4774                   21580023.7894
  -1877014.09046  -1458214.66143  23811600.9064                   23811599.7274
 11  8 12 17 21  0.0000000  0 10G03G06G07G08G10G28G13G19G23G11
   5243277.00047   4078532.77345  22020973.2344                   22020971.7624
   6322301.39546   4914425.18143  23975661.0084                   23975661.2894
  -2714151.80147  -2101222.01346  21365773.9534                   21365771.7114
  -3870544.09447  -3000532.48845  23083513.6254                   23083513.3594
   3194372.17247   2486258.61443  24401400.7664                   24401401.8364
  -2269363.71147  -1766116.81344  23780238.2114                   23780236.7734
   2354425.75447   1836811.65746  20352425.0164                   20352422.3484
    378364.61348    303222.73846  21009621.2424                   21009617.5434
   5976404.77748   4646540.93745  21585385.8524                   21585381.9844
  -1933345.83646  -1502109.49244  23800881.6954                   23800880.0124
 11  8 12 17 21 15.0000000  0 10G03G06G07G08G10G28G13G19G23G11
   5266941.30547   4096972.48845  22025476.8594                   22025474.8164
   6351227.82046   4936965.16344  23981165.7734                   23981165.0274
  -2755879.34847  -2133736.99246  21357833.5944                   21357831.3204
  -3923192.53947  -3041557.21844  23073495.0004                   23073494.9104
   3200462.91046   2491004.61243  24402559.8204                   24402561.3834
  -2315308.03146  -1801917.55144  23771495.3054                   23771494.1954
   2358594.17248   1840059.76446  20353218.4224                   20353216.3134
    368427.76648    295479.71946  21007730.6484                   21007726.4144
   6004660.05148   4668558.00045  21590763.1094                   21590758.9024
  -1989668.41046  -1545997.17743  23790163.6254                   23790162.1334
 11  8 12 17 21 30.0000000  0 10G03G06G07G08G10G28G13G19G23G11
   5290712.98047   4115495.83345  22030000.3594                   22029998.7304
   6380221.96946   4959557.99644  23986683.2504                   23986682.7584
  -2797573.11348  -2166225.62446  21349899.2584                   21349897.1214
  -3975845.61347  -3082585.59544  23063475.2734                   23063474.8674
   3206626.23846   2495807.16143  24403733.2114                   24403733.9264
  -2361194.88347  -1837673.50544  23762763.4454                   23762761.9774
   2362908.61748   1843421.66146  20354039.4614                   20354036.6684
    358648.23048    287859.30446  21005869.7664                   21005865.6334
   6033011.55948   4690650.05546  21596158.0164                   21596154.5984
  -2045980.82046  -1589876.96143  23779448.2894                   23779447.1454
 11  8 12 17 21 45.0000000  0 10G03G06G07G08G10G28G13G19G23G11
   5314592.58247   4134103.29345  22034544.3914                   22034542.3874
   6409284.29746   4982203.92643  23992213.6564                   23992212.9184
  -2839231.94148  -2198687.05746  21341972.0784                   21341969.8404
  -4028502.23047  -3123616.72144  23053455.1414                   23053454.4614
   3212862.93846   2500666.87243  24404919.5234                   24404920.5664
  -2407023.20746  -1873383.87444  23754041.9534                   23754040.6254
   2367369.70748   1846897.81446  20354888.2034                   20354885.6454
    349026.94148    280362.19046  21004038.5164                   21004034.5704
   6061460.05147   4712817.67645  21601571.7814                   21601568.0164
  -2102281.85546  -1633747.86243  23768734.1094                   23768732.9694
 11  8 12 17 22  0.0000000  0 10G03G06G07G08G10G28G13G19G23G11
   5338579.01247   4152794.00445  22039108.6804                   22039107.2934
   6438413.92646   5004902.28844  23997757.3284                   23997756.6294
  -2880856.48048  -2231121.76846  21334050.7894                   21334048.6134
  -4081163.01247  -3164651.09244  23043434.4454                   23043433.0824
   3219171.84046   2505582.87543  24406120.8984                   24406121.0474
  -2452793.89846  -1909049.36244  23745332.5394                   23745331.1294
   2371976.55148   1850487.55146  20355765.3834                   20355762.3874
    339563.03548    272987.70546  21002237.7344                   21002234.0204
   6090004.33647   4735059.94145  21607003.3364                   21606999.6334
  -2158571.87546  -1677610.18143  23758021.9384                   23758020.9064
 11  8 12 17 22 15.0000000  0 10G03G06G07G08G10G28G13G19G23G11
   5362671.67647   4171567.47445  22043693.8444                   22043692.0004
   6467610.03946   5027652.51044  24003312.9384                   24003312.2814
  -2922446.91448  -2263529.88746  21326136.5234                   21326134.4534
  -4133828.19147  -3205688.86944  23033412.3914                   23033412.2774
   3225552.32046   2510554.64143  24407334.1564                   24407335.5984
  -2498507.19147  -1944670.08644  23736633.1484                   23736631.6454
   2376728.62148   1854190.44746  20356669.5084                   20356666.7544
    330256.11348    265735.54746  21000466.8834                   21000462.8914
   6118643.73048   4757376.31845  21612453.2504                   21612449.5824
  -2214850.79346  -1721463.83644  23747312.8054                   23747310.4654
 11  8 12 17 22 30.0000000  0 10G03G06G07G08G10G28G13G19G23G11
   5386869.76647   4190423.11845  22048298.2114                   22048296.9304
   6496872.08246   5050454.05544  24008881.3914                   24008881.0004
  -2964003.23448  -2295911.44546  21318228.7274                   21318226.3954
  -4186498.12547  -3246730.35944  23023389.6484                   23023389.5474
   3232003.62146   2515581.58843  24408562.0704                   24408563.8554
  -2544163.46547  -1980246.35444  23727945.4304                   23727943.2114
   2381625.65248   1858006.30746  20357601.4144                   20357599.1254
    321105.73448    258605.37946  20998725.1724                   20998721.5664
   6147377.80948   4779766.47946  21617920.9694                   21617917.7114
  -2271118.40246  -1765308.68343  23736605.6024                   23736603.5434
 11  8 12 17 22 45.0000000  0 10G03G06G07G08G10G28G13G19G23G11
   5411172.11747   4209359.98245  22052922.8204                   22052921.5354
   6526198.83246   5073306.04443  24014461.6174                   24014461.6884
  -3005526.18748  -2328266.98746  21310326.9614                   21310324.8014
  -4239173.54347  -3287776.12544  23013365.8134                   23013364.7074
   3238524.44946   2520662.73343  24409803.5784                   24409804.6094
  -2589763.84446  -2015779.12244  23719267.6724                   23719265.6174
   2386666.58248   1861934.28846  20358560.8524                   20358557.9064
    312111.06648    251596.53846  20997013.7194                   20997009.8554
   6176205.16047   4802229.32846  21623406.7974                   21623403.3754
  -2327375.34046  -1809145.22143  23725900.1024                   23725898.6914
 11  8 12 17 23  0.0000000  0 10G03G06G07G08G10G28G13G19G23G11
   5435579.59447   4228378.77545  22057567.0474                   22057566.0664
   6555591.35946   5096209.30243  24020054.7974                   24020055.0084
  -3047014.34448  -2360595.41246  21302432.6174                   21302429.6484
  -4291853.14147  -3328825.17444  23003341.4304                   23003339.6334
   3245115.78946   2525798.79643  24411058.1724                   24411058.5984
  -2635306.93446  -2051267.19544  23710601.1174                   23710598.8204
   2391852.50448   1865975.25046  20359547.3984                   20359544.9454
    303273.34848    244709.99746  20995332.1484                   20995328.2274
   6205126.91447   4824765.71946  21628910.3754                   21628906.9804
  -2383620.09446  -1852972.30244  23715197.3984                   23715195.4414
 11  8 12 17 23 15.0000000  0 10G03G06G07G08G10G28G13G19G23G11
   5460088.59447   4247476.67245  22062231.8054                   22062230.4144
   6585045.78546   5119160.76243  24025661.0704                   24025659.8634
  -3088470.78548  -2392899.13046  21294543.4384                   21294540.8714
  -4344540.00447  -3369879.88044  22993315.0784                   22993313.9694
   3251773.96146   2530986.99043  24412324.0634                   24412326.4454
  -2680796.09846  -2086713.29544  23701944.8444                   23701943.0434
   2397179.82448   1870126.39446  20360561.1334                   20360558.5704
    294589.22347    237943.13446  20993679.9144                   20993675.5554
   6234139.13748   4847372.61746  21634431.5704                   21634427.6644
  -2439855.66846  -1896792.19643  23704495.6724                   23704494.1804
 11  8 12 17 23 30.0000000  0 10G03G06G07G08G10G28G13G19G23G11
   5484700.84847   4266655.04645  22066914.7274                   22066913.7424
   6614564.05546   5142161.92143  24031277.7974                   24031277.8634
  -3129893.43048  -2425176.51946  21286660.8594                   21286658.8874
  -4397232.01247  -3410938.53044  22983288.5004                   22983287.6334
   3258500.99646   2536228.70843  24413606.1174                   24413605.5124
  -2726229.25046  -2122115.71444  23693298.7344                   23693297.1024
   2402650.53948   1874389.27146  20361602.1094                   20361599.7114
    286060.60948    231297.46146  20992056.6884                   20992052.7734
   6263243.73848   4870051.49046  21639969.6094                   21639966.4804
  -2496079.62147  -1940603.01143  23693796.4924                   23693794.7894
 11  8 12 17 23 45.0000000  0 10G03G06G07G08G10G28G13G19G23G11
   5509414.35247   4285912.29345  22071617.9774                   22071616.4774
   6644144.17246   5165211.41743  24036906.1564                   24036905.5124
  -3171283.72348  -2457428.69946  21278784.7424                   21278782.0474
  -4449930.62947  -3452002.40144  22973260.2424                   22973259.0904
   3265294.75046   2541522.59143  24414898.2424                   24414898.4884
  -2771608.06646  -2157475.82744  23684663.5004                   23684661.6994
   2408262.90248   1878762.52546  20362670.1564                   20362667.6604
    277685.64847    224771.51146  20990462.9454                   20990458.6134
   6292438.83648   4892800.87846  21645525.2894                   21645522.0944
  -2552292.93747  -1984405.57043  23683099.6414                   23683098.3984
 11  8 12 17 24  0.0000000  0 10G03G06G07G08G10G28G13G19G23G11
   5534229.28147   4305248.56845  22076340.1094                   22076338.9184
   6673786.37546   5188309.17943  24042547.5634                   24042545.7854
  -3212640.80948  -2489654.99846  21270914.5164                   21270912.0044
  -4502635.32047  -3493070.98044  22963230.9924                   22963229.6564
   3272155.25846   2546868.40243  24416203.3524                   24416204.1804
  -2816932.17246  -2192793.24444  23676038.1484                   23676036.9024
   2414017.19148   1883246.38246  20363765.1024                   20363762.6214
    269464.85248    218365.68646  20988898.5234                   20988894.5864
   6321724.45348   4915620.80445  21651098.4454                   21651094.8954
  -2608494.98447  -2028199.32443  23672404.9774                   23672403.0434
 11  8 12 17 24 15.0000000  0 10G03G06G07G08G10G28G13G19G23G11
   5559144.53147   4324663.02145  22081081.1174                   22081079.9104
   6703489.48046   5211454.44243  24048198.7814                   24048198.3714
  -3253965.39848  -2521855.98246  21263050.8284                   21263048.6374
  -4555346.81247  -3534144.85244  22953199.9454                   22953198.3524
   3279081.55145   2552265.48443  24417522.1414                   24417522.2034
  -2862202.29346  -2228068.68243  23667423.8364                   23667422.3324
   2419912.50048   1887840.10346  20364887.1334                   20364884.8914
    261397.33247    212079.29646  20987363.3204                   20987359.4414
   6351099.47748   4938510.40545  21656688.3054                   21656684.9304
  -2664686.18447  -2071984.65143  23661711.9384                   23661710.8284
 11  8 12 17 24 30.0000000  0 10G03G06G07G08G10G28G13G19G23G11
   5584160.28147   4344155.80345  22085841.6334                   22085840.3524
   6733253.65646   5234647.25743  24053863.6484                   24053863.2664
  -3295256.72348  -2554031.03846  21255193.5394                   21255190.7664
  -4608064.36347  -3575223.46444  22943168.6334                   22943166.3324
   3286073.82046   2557713.99143  24418852.7814                   24418852.7114
  -2907417.93446  -2263301.54743  23658819.2584                   23658817.7274
   2425949.25048   1892544.05746  20366035.7734                   20366033.5824
    253483.62948    205912.76846  20985857.4694                   20985853.4614
   6380564.22748   4961469.91146  21662295.3834                   21662291.9964
  -2720865.55146  -2115760.76643  23651020.8284                   23651019.3554
 11  8 12 17 24 45.0000000  0 10G03G06G07G08G10G28G13G19G23G11
   5609276.71947   4363727.02245  22090620.6804                   22090619.4574
   6763079.07446   5257887.82543  24059538.9224                   24059538.4734
  -3336514.27748  -2586179.77946  21247342.1954                   21247339.7154
  -4660787.42247  -3616306.34744  22933135.2894                   22933133.6454
   3293132.16046   2563213.89343  24420195.5784                   24420196.0314
  -2952578.68046  -2298491.77343  23650225.2344                   23650223.9924
   2432127.74648   1897358.44846  20367211.8134                   20367208.9534
    245724.12148    199866.38446  20984381.3204                   20984377.0234
   6410118.89848   4984499.48345  21667919.1024                   21667915.9614
  -2777032.33646  -2159527.08843  23640332.9224                   23640331.7814
 11  8 12 17 25  0.0000000  0 10G03G06G07G08G10G28G13G19G23G11
   5634492.66847   4383375.78845  22095419.0234                   22095418.2544
   6792964.85546   5281175.45443  24065226.1724                   24065225.7774
  -3377738.41848  -2618302.47846  21239497.6884                   21239495.2344
  -4713516.55547  -3657393.98045  22923101.7194                   22923100.0864
   3300255.62946   2568764.65543  24421551.7114                   24421551.9024
  -2997685.37546  -2333639.79543  23641642.4224                   23641640.2624
   2438447.24248   1902282.72046  20368414.2034                   20368411.8594
    238117.94947    193939.50246  20982933.5394                   20982929.5274
   6439762.46148   5007598.33945  21673560.3364                   21673557.3204
  -2833186.84446  -2203283.81443  23629647.0944                   23629645.9924
 11  8 12 17 25 15.0000000  0 10G03G06G07G08G10G28G13G19G23G11
   5659805.62947   4403100.15745  22100236.3674                   22100235.2154
   6822908.48846   5304508.09743  24070923.9454                   24070923.6804
  -3418930.87548  -2650400.48746  21231658.7424                   21231656.1764
  -4766253.67647  -3698487.80644  22913066.3284                   22913065.1214
   3307441.83246   2574364.21143  24422919.2344                   24422919.3134
  -3042739.82046  -2368747.13743  23633068.5474                   23633066.8754
   2444905.60548   1907315.19646  20369643.0004                   20369640.5434
    230663.12148    188130.54246  20981514.6644                   20981511.0204
   6469492.45348   5030764.53445  21679217.8674                   21679214.3954
  -2889330.78147  -2247032.33844  23618963.3914                   23618962.0274
 11  8 12 17 25 30.0000000  0 10G03G06G07G08G10G28G13G19G23G11
   5685218.46547   4422902.32645  22105072.0084                   22105070.7544
   6852912.84046   5327888.07543  24076633.8914                   24076633.0744
  -3460088.53148  -2682471.38246  21223827.1484                   21223824.8754
  -4818995.51247  -3739585.34944  22903028.8914                   22903027.5474
   3314693.52346   2580014.85143  24424299.5394                   24424299.9224
  -3087739.20346  -2403811.57043  23624504.7344                   23624503.0904
   2451505.58248   1912458.00846  20370899.0084                   20370896.3284
    223362.57448    182441.79546  20980125.6254                   20980121.7814
   6499311.68848   5054000.26845  21684892.6724                   21684888.6844
  -2945460.60247  -2290769.82243  23608281.6334                   23608280.9454
 11  8 12 17 25 45.0000000  0 10G03G06G07G08G10G28G13G19G23G11
   5710729.21147   4442780.81444  22109926.7274                   22109925.5204
   6882975.84846   5351313.76643  24082354.1024                   24082353.5634
  -3501212.85948  -2714516.31746  21216001.5004                   21215998.5784
  -4871743.74247  -3780687.83144  22892991.7034                   22892989.9694
   3322008.53546   2585714.81143  24425691.4144                   24425691.7154
  -3132685.25846  -2438834.40643  23615952.1564                   23615950.0984
   2458245.21148   1917709.65746  20372181.6254                   20372179.1134
    216214.44148    176871.81446  20978765.2734                   20978761.5744
   6529217.90648   5077303.77145  21690583.3914                   21690580.0594
  -3001577.73846  -2334497.45743  23597603.3284                   23597602.1094
 11  8 12 17 26  0.0000000  0 10G03G06G07G08G10G28G13G19G23G11
   5736338.70347   4462736.24544  22114800.2274                   22114798.3874
   6913098.31346   5374785.79443  24088086.4144                   24088086.4384
  -3542302.50848  -2746534.22346  21208182.0864                   21208179.3444
  -4924497.15247  -3821794.37545  22882953.2114                   22882952.0204
   3329387.68846   2591464.78743  24427095.7034                   24427095.6524
  -3177576.80546  -2473814.82343  23607409.6094                   23607407.8954
   2465125.47748   1923070.88946  20373491.1564                   20373488.4184
    209219.78548    171421.41546  20977434.2974                   20977430.6524
   6559212.05948   5100675.80745  21696290.8914                   21696287.4694
  -3057680.68046  -2378214.00344  23586927.3594                   23586926.0744
 11  8 12 17 26 15.0000000  0 10G03G06G07G08G10G28G13G19G23G11
   5762044.30547   4482766.55044  22119692.2034                   22119690.3204
   6943277.83246   5398302.29043  24093829.5634                   24093829.0124
  -3583359.61348  -2778526.77746  21200369.2194                   21200366.7384
  -4977257.82847  -3862906.55645  22872912.9694                   22872911.9104
   3336828.56346   2597262.89043  24428511.5944                   24428511.4844
  -3222416.08247  -2508754.53043  23598877.3914                   23598875.4264
   2472144.09448   1928539.92146  20374826.6724                   20374824.2934
    202376.44148    166088.93846  20976131.9844                   20976128.4614
   6589291.60548   5124114.37945  21702014.9454                   21702011.3404
  -3113771.17247  -2421920.86344  23576253.6334                   23576252.0044
 11  8 12 17 26 30.0000000  0 10G03G06G07G08G10G28G13G19G23G11
   5787846.56347   4502872.17545  22124601.9064                   22124600.3984
   6973514.90646   5421863.61343  24099584.2814                   24099583.2974
  -3624383.01648  -2810493.05646  21192562.5394                   21192560.2424
  -5030024.85247  -3904023.71544  22862871.6414                   22862870.2584
   3344331.71146   2603109.39843  24429939.6644                   24429939.6524
  -3267202.08647  -2543652.67143  23590354.6564                   23590353.5784
   2479301.87148   1934117.39746  20376188.8524                   20376185.9264
    195685.23448    160875.00346  20974858.8754                   20974855.0354
   6619457.22748   5147620.02045  21707755.5084                   21707752.0554
  -3169847.92646  -2465617.01344  23565583.1644                   23565580.8484
 11  8 12 17 26 45.0000000  0 10G03G06G07G08G10G28G13G19G23G11
   5813745.12547   4523052.86945  22129529.9534                   22129528.9804
   7003809.25446   5445469.57343  24105348.5234                   24105348.9454
  -3665372.46148  -2842432.88446  21184762.7734                   21184759.9774
  -5082797.93747  -3945145.57845  22852829.2814                   22852828.0204
   3351896.77346   2609004.25643  24431378.5474                   24431379.2344
  -3311934.95347  -2578509.44944  23581842.3914                   23581840.6684
   2486598.67648   1939803.20246  20377577.2344                   20377574.7154
    189146.04748    155779.52146  20973614.4304                   20973610.5904
   6649708.51248   5171192.42145  21713512.0474                   21713508.6604
  -3225910.68446  -2509302.26243  23554914.6564                   23554912.5634
 11  8 12 17 27  0.0000000  0 10G03G06G07G08G10G28G13G19G23G11
   5839740.59047   4543309.03145  22134476.6254                   22134475.8324
   7034161.38346   5469120.50843  24111123.2194                   24111124.3834
  -3706326.88748  -2874345.42946  21176969.2974                   21176966.7344
  -5135576.12947  -3986271.43945  22842786.3364                   22842784.0784
   3359524.33646   2614947.73743  24432829.7664                   24432830.8794
  -3356613.82047  -2613324.11244  23573341.3444                   23573338.7464
   2494035.18848   1945597.86446  20378992.3364                   20378989.9494
    182759.65248    150803.11446  20972399.1804                   20972395.5824
   6680046.07448   5194832.03645  21719285.0784                   21719281.6524
  -3281958.14147  -2552975.59043  23544248.7194                   23544246.9614
 11  8 12 17 27 15.0000000  0 10G03G06G07G08G10G28G13G19G23G11
   5865830.81347   4563639.06744  22139441.3984                   22139440.6604
   7064569.34046   5492815.01643  24116910.5784                   24116911.5164
  -3747247.78548  -2906231.82946  21169182.4224                   21169179.9774
  -5188360.89847  -4027402.39345  22832741.2814                   22832739.9064
   3367212.37146   2620938.43043  24434292.4144                   24434293.9384
  -3401240.43047  -2648098.07444  23564847.8984                   23564846.5474
   2501609.64848   1951500.02646  20380434.0394                   20380431.2344
    176524.44948    145944.50346  20971212.7194                   20971208.8674
   6710468.12148   5218537.48145  21725073.9224                   21725070.6684
  -3337991.57446  -2596637.99944  23533586.2974                   23533584.2304
 11  8 12 17 27 30.0000000  0 10G03G06G07G08G10G28G13G19G23G11
   5892016.06647   4584043.13044  22144424.8834                   22144423.4534
   7095033.34846   5516553.17043  24122707.5474                   24122707.2704
  -3788134.57048  -2938091.66346  21161401.8914                   21161399.2894
  -5241151.78947  -4068538.14944  22822695.4454                   22822694.2194
   3374961.09446   2626976.32743  24435766.9694                   24435768.3914
  -3445814.32047  -2682830.96044  23556366.5394                   23556365.0124
   2509322.48448   1957510.00346  20381901.3204                   20381898.9144
    170440.47348    141203.74046  20970054.9454                   20970050.8134
   6740974.51248   5242308.66145  21730879.2664                   21730876.0354
  -3394010.11747  -2640288.83844  23522926.3204                   23522924.0204
 11  8 12 17 27 45.0000000  0 10G03G06G07G08G10G28G13G19G23G11
   5918296.31647   4604521.20944  22149425.0234                   22149424.4494
   7125553.37146   5540335.02543  24128515.8524                   24128515.5004
  -3828986.63348  -2969924.44846  21153627.8444                   21153625.2974
  -5293948.37147  -4109678.33545  22812648.6254                   22812648.0594
   3382770.48046   2633061.53243  24437252.4844                   24437254.4264
  -3490335.14147  -2717522.49344  23547894.7814                   23547893.5164
   2517173.46548   1963627.64246  20383394.9694                   20383392.7934
    164508.04348    136581.06646  20968926.1804                   20968922.2814
   6771565.26248   5266145.58545  21736701.0084                   21736697.3554
  -3450013.20346  -2683927.58943  23512269.3674                   23512267.6214
 11  8 12 17 28  0.0000000  0 10G03G06G07G08G10G28G13G19G23G11
   5944670.93447   4625072.85145  22154444.6024                   22154443.2974
   7156128.86346   5564160.05644  24134334.1254                   24134334.2584
  -3869804.10248  -3001730.25646  21145860.4454                   21145858.0434
  -5346750.71947  -4150823.00244  22802600.3834                   22802600.0744
   3390639.87946   2639193.46043  24438750.3204                   24438751.3914
  -3534803.35247  -2752173.02444  23539432.4534                   23539430.8324
   2525162.26648   1969852.66446  20384915.8134                   20384913.0984
    158726.78948    132076.18046  20967825.9144                   20967821.8054
   6802239.78948   5290047.77445  21742537.9224                   21742534.4884
  -3506000.59446  -2727554.08244  23501614.2584                   23501613.5204
 11  8 12 17 28 15.0000000  0 10G03G06G07G08G10G28G13G19G23G11
   5971141.05947   4645698.89245  22159481.7194                   22159480.5274
   7186761.09046   5588029.25743  24140163.0864                   24140163.2584
  -3910585.08648  -3033507.65546  21138100.2664                   21138097.8364
  -5399557.03147  -4191970.77845  22792552.1094                   22792550.7584
   3398570.59446   2645373.23943  24440258.2734                   24440260.2974
  -3579217.36747  -2786781.34744  23530980.8594                   23530979.7774
   2533290.41448   1976186.26846  20386462.1414                   20386460.1294
    153098.30948    127690.35246  20966754.5864                   20966750.9614
   6832999.29348   5314016.20645  21748391.2734                   21748387.6024
  -3561970.43046  -2771166.91944  23490963.7424                   23490962.9694
 11  8 12 17 28 30.0000000  0 10G03G06G07G08G10G28G13G19G23G11
   5997705.56347   4666398.45345  22164536.7814                   22164535.3754
   7217448.95346   5611941.89943  24146002.3444                   24146003.2464
  -3951330.23448  -3065257.13346  21130346.8284                   21130344.3404
  -5452368.06647  -4233122.24045  22782502.5634                   22782501.7934
   3406561.54746   2651599.91443  24441779.0394                   24441780.4614
  -3623577.93747  -2821348.01044  23522539.1484                   23522537.9494
   2541556.84048   1982627.62346  20388035.5394                   20388033.2504
    147621.66448    123422.81446  20965712.5234                   20965708.9414
   6863842.73848   5338050.01545  21754260.7814                   21754257.1484
  -3617923.02346  -2814766.29844  23480316.5944                   23480315.9414
 11  8 12 17 28 45.0000000  0 10G03G06G07G08G10G28G13G19G23G11
   6024364.65647   4687171.74645  22169609.2194                   22169608.8164
   7248192.52746   5635897.84544  24151853.7344                   24151853.4184
  -3992038.86748  -3096978.12846  21122600.3134                   21122597.4734
  -5505183.34847  -4274276.97745  22772451.6724                   22772451.2584
   3414612.76246   2657873.55143  24443311.3054                   24443312.8754
  -3667884.67247  -2855872.72344  23514108.1094                   23514106.7544
   2549961.83648   1989176.95846  20389634.7274                   20389632.0004
    142297.35248    119274.01046  20964699.4924                   20964695.6884
   6894770.26648   5362149.34445  21760145.5234                   21760142.7304
  -3673857.58646  -2858351.65444  23469673.0784                   23469671.8324
 11  8 12 17 29  0.0000000  0 10G03G06G07G08G10G28G13G19G23G11
   6051116.95347   4708017.66745  22174701.1804                   22174699.4964
   7278990.52046   5659896.28643  24157713.9224                   24157714.0434
  -4032711.77348  -3128671.30246  21114860.2344                   21114858.2154
  -5558003.68747  -4315435.65245  22762400.9224                   22762399.6644
   3422722.89846   2664193.15043  24444854.9224                   24444855.4774
  -3712138.51247  -2890356.24644  23505687.5944                   23505686.1804
   2558504.23448   1995833.34646  20391260.4454                   20391257.9264
    137124.02748    115242.83946  20963714.8834                   20963711.3634
   6925780.52748   5386313.15645  21766047.4064                   21766043.3244
  -3729774.82446  -2901923.54344  23459032.2424                   23459030.9344
 11  8 12 17 29 15.0000000  0 10G03G06G07G08G10G28G13G19G23G11
   6077962.34047   4728936.11245  22179809.1724                   22179808.3874
   7309842.90646   5683937.08143  24163585.2504                   24163584.9534
  -4073348.47748  -3160336.26446  21107127.3204                   21107125.2934
  -5610828.53947  -4356597.87745  22752348.4144                   22752347.2854
   3430892.01246   2670558.60943  24446409.2734                   24446410.1884
  -3756339.25047  -2924798.34744  23497275.5394                   23497274.4144
   2567184.25048   2002596.98046  20392912.1024                   20392909.7854
    132102.05548    111329.59946  20962759.4144                   20962755.5514
   6956873.48047   5410541.39845  21771963.3444                   21771960.2194
  -3785673.98447  -2945481.33844  23448394.3754                   23448393.4144
 11  8 12 17 29 30.0000000  0 10G03G06G07G08G10G28G13G19G23G11
   6104899.78547   4749926.30045  22184935.0704                   22184934.5514
   7340748.73446   5708019.52343  24169466.3524                   24169466.1054
  -4113949.55948  -3191973.48246  21099401.0634                   21099398.8484
  -5663658.64147  -4397764.18145  22742295.1954                   22742293.9574
   3439118.94146   2676969.10843  24447975.1484                   24447976.2154
  -3800487.79747  -2959199.79944  23488874.1804                   23488873.3094
   2576000.88348   2009467.06646  20394590.1804                   20394587.4344
    127230.50048    107533.57646  20961832.3284                   20961828.3554
   6988047.95347   5434833.14545  21777895.8834                   21777893.0864
  -3841555.44147  -2989025.31044  23437760.5164                   23437759.4654
 11  8 12 17 29 45.0000000  0 10G03G06G07G08G10G28G13G19G23G11
   6131929.33247   4770988.25944  22190078.7664                   22190078.0044
   7371708.06346   5732143.63543  24175358.1484                   24175356.9454
  -4154514.37148  -3223582.42746  21091681.8754                   21091679.6684
  -5716493.39147  -4438934.10045  22732240.9454                   22732239.1564
   3447403.89546   2683424.83043  24449552.8594                   24449553.1094
  -3844583.67247  -2993560.18744  23480482.9144                   23480481.9734
   2584954.51248   2016443.90446  20396293.9614                   20396291.3204
    122509.65248    103854.98446  20960933.7274                   20960929.9224
   7019304.19548   5459188.61245  21783843.9534                   21783840.6804
  -3897418.32446  -3032554.78844  23427130.8364                   23427129.5664
 11  8 12 17 30  0.0000000  0 10G03G06G07G08G10G28G13G19G23G11
   6159051.89547   4792122.70445  22195240.0634                   22195238.8914
   7402721.68446   5756310.09343  24181259.2034                   24181258.9534
  -4195041.58248  -3255162.07346  21083970.2664                   21083967.6094
  -5769331.49647  -4480106.65745  22722185.8834                   22722185.6094
   3455747.48446   2689926.39043  24451139.3754                   24451140.8634
  -3888625.68747  -3027878.61344  23472101.9144                   23472100.4344
   2594046.00448   2023528.16646  20398024.1174                   20398021.1884
    117940.60548    100294.68946  20960064.7274                   20960060.9304
   7050643.00448   5483608.43445  21789807.5704                   21789804.1414
  -3953261.15246  -3076068.65144  23416504.2424                   23416502.8404
 11  8 12 17 30 15.0000000  0 10G03G06G07G08G10G28G13G19G23G11
   6186267.37947   4813329.56245  22200419.1484                   22200418.0784
   7433789.67646   5780518.90143  24187172.2034                   24187171.4264
  -4235530.65248  -3286711.99046  21076265.3284                   21076262.8484
  -5822172.72347  -4521281.60245  22712131.2664                   22712130.4184
   3464149.67646   2696473.51343  24452738.6024                   24452739.6524
  -3932613.69147  -3062154.97144  23463731.4384                   23463730.2734
   2603275.49648   2030719.96346  20399780.2504                   20399777.6804
    113523.56348     96852.83246  20959223.9064                   20959220.4384
   7082064.22348   5508092.46445  21795786.8134                   21795783.6294
  -4009083.38346  -3119566.50144  23405880.7424                   23405879.7464
 11  8 12 17 30 30.0000000  0 10G03G06G07G08G10G28G13G19G23G11
   6213575.52347   4834608.60444  22205615.8754                   22205614.9734
   7464911.74646   5804769.79743  24193093.7274                   24193093.5864
  -4275981.32848  -3318232.00246  21068567.8054                   21068565.3054
  -5875016.61347  -4562458.64845  22702074.8134                   22702073.6374
   3472610.48446   2703066.34543  24454348.6484                   24454349.2464
  -3976547.67247  -3096389.22244  23455371.0084                   23455369.4804
   2612642.83248   2038019.17146  20401562.6094                   20401560.1134
    109258.46948     93529.36946  20958412.4534                   20958408.8364
   7113567.77748   5532640.64445  21801781.8754                   21801778.7074
  -4064884.43046  -3163047.82444  23395262.8054                   23395261.8054
 11  8 12 17 30 45.0000000  0 10G03G06G07G08G10G28G13G19G23G11
   6240974.14847   4855958.15045  22210829.7114                   22210828.0984
   7496085.80946   5829061.23243  24199025.6414                   24199025.7424
  -4316395.14848  -3349723.28246  21060877.1174                   21060874.2624
  -5927864.83247  -4603639.04945  22692018.2504                   22692016.9184
   3481127.77745   2709703.10243  24455969.5004                   24455970.4924
  -4020429.29747  -3130582.69744  23447020.3444                   23447019.8094
   2622146.14148   2045424.32146  20403371.1804                   20403368.7664
    105143.39548     90322.81646  20957629.3914                   20957625.7304
   7145151.46548   5557251.27245  21807791.8134                   21807789.0514
  -4120665.56646  -3206513.63044  23384647.9144                   23384646.5664
 11  8 12 17 31  0.0000000  0 10G03G06G07G08G10G28G13G19G23G11
   6268463.41447   4877378.33945  22216060.8284                   22216059.5984
   7527312.13746   5853393.46343  24204968.5004                   24204967.6134
  -4356771.37148  -3381185.27546  21053193.8914                   21053191.2664
  -5980716.63347  -4644822.28545  22681960.7894                   22681960.3404
   3489701.74646   2716384.10943  24457602.1024                   24457602.8954
  -4064258.10546  -3164734.97244  23438679.6414                   23438679.2504
   2631785.76648   2052935.69946  20405205.5004                   20405202.8914
    101178.94148     87233.61946  20956874.8674                   20956871.3364
   7176815.60248   5581924.58645  21813817.5864                   21813814.6024
  -4176425.93747  -3249963.25944  23374037.7344                   23374035.8404
 11  8 12 17 31 15.0000000  0 10G03G06G07G08G10G28G13G19G23G11
   6296043.86347   4898869.57445  22221309.3914                   22221308.2274
   7558591.35246   5877766.84643  24210920.7734                   24210920.2504
  -4397108.99648  -3412617.18046  21045518.2114                   21045515.4024
  -6033571.19147  -4686007.62345  22671902.9384                   22671901.8914
   3498332.60946   2723109.40943  24459243.8674                   24459244.2114
  -4108033.21946  -3198845.43944  23430349.7894                   23430348.5394
   2641562.28948   2060553.76246  20407065.9774                   20407063.7854
     97365.73048     84262.28246  20956149.4844                   20956145.5204
   7208560.55948   5606660.87345  21819858.6804                   21819855.0274
  -4232164.48047  -3293395.87344  23363430.1024                   23363428.6684
 11  8 12 17 31 30.0000000  0 10G03G06G07G08G10G28G13G19G23G11
   6323715.83247   4920432.12945  22226574.9454                   22226573.3134
   7589923.69546   5902181.62743  24216882.2034                   24216882.7664
  -4437407.07048  -3444018.27746  21037849.3054                   21037846.8324
  -6086427.44147  -4727194.30245  22661845.0634                   22661843.4304
   3507020.99246   2729879.47943  24460898.3914                   24460898.1644
  -4151754.03946  -3232913.60344  23422029.3524                   23422028.6724
   2651476.32448   2068278.96346  20408952.4844                   20408949.6684
     93704.33648     81409.23946  20955452.8524                   20955448.7814
   7240386.64848   5631460.40145  21825914.7034                   21825911.8164
  -4287879.91447  -3336810.49144  23352827.5944                   23352826.9734
 11  8 12 17 31 45.0000000  0 10G03G06G07G08G10G28G13G19G23G11
   6351477.88347   4942064.86744  22231857.6724                   22231857.1214
   7621307.81646   5926636.82043  24222854.8754                   24222855.4574
  -4477666.51248  -3475389.26846  21030188.2584                   21030186.0314
  -6139286.54347  -4768383.22645  22651785.9384                   22651784.8984
   3515765.34046   2736693.19143  24462562.5164                   24462561.8674
  -4195421.88346  -3266940.42444  23413720.4534                   23413718.1024
   2661526.50048   2076110.25146  20410865.2194                   20410862.7934
     90193.50448     78673.50946  20954784.3284                   20954780.7854
   7272292.49248   5656322.04445  21831986.2584                   21831983.1564
  -4343573.03146  -3380207.69944  23342230.4064                   23342229.1684
 11  8 12 17 32  0.0000000  0 10G03G06G07G08G10G28G13G19G23G11
   6379331.46947   4963768.92944  22237158.1094                   22237157.0474
   7652745.20746   5951133.38043  24228836.7424                   24228837.6914
  -4517885.30548  -3506728.59746  21022535.0394                   21022532.1454
  -6192146.61347  -4809572.85745  22641726.6174                   22641726.0634
   3524567.20346   2743551.79043  24464237.2504                   24464236.8204
  -4239034.77346  -3300924.48344  23405420.2194                   23405418.7384
   2671714.60548   2084049.01646  20412803.8444                   20412801.4344
     86834.84448     76056.37046  20954145.5314                   20954141.5984
   7304279.64848   5681247.05845  21838072.9064                   21838070.4494
  -4399241.78147  -3423585.91444  23331636.7424                   23331635.3914
 11  8 12 17 32 15.0000000  0 10G03G06G07G08G10G28G13G19G23G11
   6407273.09447   4985541.59945  22242475.3054                   22242474.0514
   7684232.30946   5975668.75343  24234828.6254                   24234829.8794
  -4558066.43048  -3538038.56446  21014888.3674                   21014886.1254
  -6245010.76247  -4850765.69745  22631667.0784                   22631666.2854
   3533423.00046   2750452.37743  24465922.8674                   24465922.7464
  -4282596.12946  -3334868.35544  23397131.1024                   23397129.2274
   2682037.05548   2092092.45746  20414768.2974                   20414765.5864
     83625.14548     73555.29146  20953534.5944                   20953530.8204
   7336344.51648   5706232.64345  21844175.1564                   21844171.6094
  -4454888.93047  -3466947.32844  23321046.9384                   23321046.0594
 11  8 12 17 32 30.0000000  0 10G03G06G07G08G10G28G13G19G23G11
   6435303.80947   5007383.69744  22247809.2274                   22247808.6294
   7715770.41846   6000243.91743  24240830.3984                   24240830.9924
  -4598208.09448  -3569317.77046  21007250.0084                   21007247.6844
  -6297877.27347  -4891960.37045  22621606.3914                   22621605.8164
   3542333.91446   2757395.92843  24467618.1254                   24467618.5864
  -4326104.39546  -3368770.89444  23388852.1804                   23388850.2974
   2692495.25848   2100241.69846  20416758.0234                   20416755.4614
     80565.81648     71171.39446  20952952.3134                   20952948.4654
   7368488.35548   5731279.74245  21850291.9384                   21850288.5634
  -4510512.41847  -3510290.28844  23310462.9384                   23310461.6604
 11  8 12 17 32 45.0000000  0 10G03G06G07G08G10G28G13G19G23G11
   6463422.24247   5029294.15144  22253160.2664                   22253158.9184
   7747357.93046   6024857.60643  24246841.0234                   24246840.9144
  -4638311.25448  -3600566.98046  20999618.7814                   20999616.2854
  -6350747.11347  -4933157.63145  22611546.3444                   22611544.8984
   3551298.48046   2764381.27343  24469324.3754                   24469324.6134
  -4369560.70346  -3402632.91344  23380582.3054                   23380580.7894
   2703087.77748   2108495.58946  20418773.8834                   20418771.7194
     77655.44948     68903.55546  20952398.8594                   20952394.6844
   7400709.58648   5756387.17145  21856423.0704                   21856419.9344
  -4566113.30547  -3553615.66044  23299882.1174                   23299881.1134
 11  8 12 17 33  0.0000000  0 10G03G06G07G08G10G28G13G19G23G11
   6491631.00447   5051274.96444  22258527.8054                   22258527.2034
   7778997.84046   6049512.02443  24252862.8284                   24252862.6604
  -4678372.62148  -3631783.64446  20991995.0164                   20991992.6454
  -6403616.98447  -4974354.91845  22601485.5704                   22601484.3244
   3560319.42646   2771410.53943  24471040.4614                   24471041.2304
  -4412962.08247  -3436452.15044  23372323.2894                   23372321.2624
   2713817.54748   2116856.42846  20420815.8834                   20420813.5164
     74897.01648     66754.11846  20951873.8524                   20951869.9064
   7433010.98848   5781557.04445  21862570.1094                   21862566.9654
  -4621687.94947  -3596920.58044  23289306.2504                   23289305.1414
 11  8 12 17 33 15.0000000  0 10G03G06G07G08G10G28G13G19G23G11
   6519925.95747   5073322.93544  22263912.5314                   22263911.9024
   7810685.78546   6074203.83443  24258892.8364                   24258892.5204
  -4718396.00048  -3662970.68346  20984378.9694                   20984376.4964
  -6456490.68747  -5015555.19145  22591424.1334                   22591422.3204
   3569392.52346   2778480.43843  24472767.8134                   24472768.8674
  -4456312.43446  -3470231.61744  23364074.1254                   23364072.3484
   2724680.46548   2125321.02546  20422882.8444                   20422880.4304
     72286.64147     64720.04546  20951376.7664                   20951372.9694
   7465388.42248   5806786.18045  21868731.2504                   21868727.8874
  -4677239.77346  -3640207.69644  23278735.2034                   23278733.2624
 11  8 12 17 33 30.0000000  0  9G03G06G07G08G28G13G19G23G11
   6548305.46147   5095436.84244  22269313.2504                   22269311.7234
   7842420.18846   6098931.91743  24264931.3984                   24264931.6884
  -4758382.37148  -3694128.90746  20976769.7424                   20976767.5124
  -6509369.50847  -5056759.46545  22581361.3834                   22581359.8324
  -4499613.12547  -3503972.39644  23355833.9924                   23355832.4104
   2735675.12948   2133888.27646  20424975.1954                   20424972.7304
     69822.94548     62800.27146  20950908.3754                   20950904.3874
   7497840.17648   5832073.22345  21874906.7504                   21874903.8284
  -4732769.83647  -3683477.84144  23268168.2974                   23268166.5044
 11  8 12 17 33 45.0000000  0  9G03G06G07G08G28G13G19G23G11
   6576772.09447   5117618.63244  22274730.0944                   22274729.0864
   7874203.82846   6123698.30643  24270980.1024                   24270979.2774
  -4798328.52048  -3725255.76146  20969168.4224                   20969165.8164
  -6562250.23447  -5097965.23045  22571298.3594                   22571296.8324
  -4542861.09447  -3537672.07844  23347604.0474                   23347602.9454
   2746804.28548   2142560.32746  20427092.7114                   20427090.5664
     67508.75047     60996.99946  20950467.8914                   20950464.2624
   7530368.90247   5857420.24045  21881096.8674                   21881093.3794
  -4788274.70747  -3726728.39844  23257605.6024                   23257604.3714
 11  8 12 17 34  0.0000000  0  9G03G06G07G08G28G13G19G23G11
   6605325.34446   5139867.87444  22280163.1334                   22280162.2034
   7906036.26246   6148502.85043  24277037.3204                   24277036.4964
  -4838234.46948  -3756351.31146  20961574.6804                   20961572.0004
  -6615132.78947  -5139172.40545  22561235.8594                   22561233.6764
  -4586056.60947  -3571330.89344  23339384.5554                   23339383.2774
   2758067.65248   2151336.95046  20429236.4924                   20429234.3634
     65343.75448     59309.97146  20950055.7974                   20950051.6644
   7562974.07048   5882826.82545  21887301.4614                   21887298.0434
  -4843754.11747  -3769959.07544  23247049.2274                   23247047.2034
 11  8 12 17 34 15.0000000  0  9G03G06G07G08G28G13G19G23G11
   6633967.16447   5162186.16344  22285613.9534                   22285612.7624
   7937919.32046   6173346.76643  24283104.6254                   24283104.4414
  -4878097.72748  -3787413.58846  20953988.8674                   20953986.3794
  -6668014.74647  -5180379.11945  22551172.0944                   22551170.8134
  -4629197.44547  -3604947.09044  23331174.9454                   23331173.5474
   2769467.30548   2160219.77546  20431405.5784                   20431403.1054
     63329.97747     57740.79346  20949672.7584                   20949669.0124
   7595657.64847   5908294.51545  21893520.7034                   21893518.0904
  -4899205.32847  -3813167.79144  23236496.8444                   23236495.3244
 11  8 12 17 34 30.0000000  0  9G03G06G07G08G28G13G19G23G11
   6662697.43446   5184573.35944  22291080.9064                   22291080.3484
   7969852.80946   6198229.92843  24289180.9144                   24289180.9024
  -4917917.91848  -3818442.30346  20946411.2274                   20946408.9144
  -6720895.92247  -5221585.22545  22541109.5864                   22541108.2114
  -4672283.61747  -3638520.73344  23322976.1724                   23322974.1334
   2781003.00448   2169208.61646  20433601.0474                   20433598.6214
     61467.40647     56289.42146  20949318.2584                   20949314.4494
   7628419.44148   5933823.12145  21899755.6174                   21899752.2154
  -4954628.02047  -3856354.30044  23225949.6414                   23225948.5204
 11  8 12 17 34 45.0000000  0  9G03G06G07G08G28G13G19G23G11
   6691516.11746   5207029.43344  22296564.8284                   22296564.0784
   8001836.99646   6223152.62943  24295268.2194                   24295267.8054
  -4957694.36348  -3849436.93546  20938842.0864                   20938839.7774
  -6773775.71547  -5262790.26045  22531046.4224                   22531045.8094
  -4715314.55547  -3672051.29844  23314787.0704                   23314786.1954
   2792675.10248   2178303.74546  20435822.2504                   20435819.7934
     59756.34848     54956.12346  20948992.5634                   20948989.1094
   7661259.55947   5959412.78945  21906004.5084                   21906001.6644
  -5010021.25047  -3899517.80044  23215409.1024                   23215407.6914
 11  8 12 17 35  0.0000000  0  9G03G06G07G08G28G13G19G23G11
   6720423.55146   5229554.63944  22302066.1884                   22302064.9104
   8033872.00446   6248114.97143  24301364.0234                   24301364.1174
  -4997426.38748  -3880396.95846  20931281.2274                   20931278.9384
  -6826653.59447  -5303993.77645  22520984.5784                   22520983.5824
  -4758289.74647  -3705538.47044  23306609.7894                   23306608.0514
   2804483.85248   2187505.34446  20438069.2344                   20438066.8284
     58197.30547     53741.28146  20948696.0164                   20948691.9924
   7694178.11748   5985063.56745  21912268.8984                   21912265.4304
  -5065384.12947  -3942657.71344  23204873.7114                   23204872.7894
 11  8 12 17 35 15.0000000  0  9G03G06G07G08G28G13G19G23G11
   6749416.12147   5252146.23944  22307582.9304                   22307582.2034
   8065954.42246   6273114.23943  24307468.5634                   24307469.3204
  -5037116.74648  -3911324.49646  20923728.6414                   20923726.2854
  -6879532.37147  -5345198.00544  22510921.7504                   22510920.1524
  -4801212.45347  -3738984.70544  23298441.7664                   23298440.2704
   2816425.96548   2196810.86846  20440341.7344                   20440339.2154
     56786.94947     52642.29446  20948427.3914                   20948423.7544
   7727171.68047   6010772.80045  21918547.3524                   21918543.6054
  -5120719.48047  -3985776.15744  23194343.9384                   23194343.0904
 11  8 12 17 35 30.0000000  0  9G03G06G07G08G28G13G19G23G11
   6778495.58247   5274805.54844  22313117.0004                   22313115.3244
   8098086.02746   6298151.80943  24313583.3444                   24313583.7344
  -5076763.21548  -3942217.85046  20916184.2814                   20916181.6024
  -6932409.90247  -5386401.26645  22500859.6414                   22500857.0354
  -4844080.63747  -3772388.47844  23290284.7344                   23290282.1024
   2828503.35948   2206221.81346  20442640.0164                   20442637.6094
     55527.22347     51660.68146  20948188.0784                   20948183.9774
   7760242.05947   6036541.88445  21924840.1884                   21924837.3284
  -5176024.76247  -4028871.14144  23183819.4144                   23183818.4344
 11  8 12 17 35 45.0000000  0  9G03G06G07G08G28G13G19G23G11
   6807658.27047   5297529.67744  22318666.7974                   22318665.7074
   8130263.34446   6323225.00843  24319706.4534                   24319706.3594
  -5116368.90648  -3973079.42546  20908647.2734                   20908644.7464
  -6985289.19547  -5427605.92545  22490797.1804                   22490795.4694
  -4886897.71147  -3805752.39844  23282136.7274                   23282134.3834
   2840712.56348   2215735.44846  20444963.2664                   20444960.9654
     54414.75048     50793.81346  20947976.0234                   20947972.1374
   7793385.64148   6062367.99945  21931147.5634                   21931144.8594
  -5231302.77747  -4071944.90744  23173300.5554                   23173299.2814
 11  8 12 17 36  0.0000000  0  9G03G06G07G08G28G13G19G23G11
   6836905.81647   5320319.94644  22324231.9924                   22324231.0004
   8162487.84046   6348334.96443  24325838.7274                   24325838.1844
  -5155931.69148  -4003907.57146  20901118.7274                   20901116.1454
  -7038168.32047  -5468810.40545  22480734.4774                   22480733.3834
  -4929661.75447  -3839075.01144  23273998.5864                   23273996.0234
   2853055.24248   2225353.10146  20447312.0554                   20447309.9614
     53451.35247     50043.10146  20947792.8754                   20947788.8874
   7826603.93848   6088252.35845  21937468.7274                   21937465.7034
  -5286551.30547  -4114995.68444  23162787.6484                   23162785.7704
 11  8 12 17 36 15.0000000  0  9G03G06G07G08G28G13G19G23G11
   8441655.62946   6570774.29644  22629605.6334                   22629604.2384
   9770176.75446   7601079.54043  24631771.8444                   24631771.3984
  -3620029.19948  -2807100.43546  21193391.4454                   21193388.8284
  -5515623.99247  -4282412.23245  22770464.8364                   22770464.0204
  -3396950.32447  -2644754.36344  23565663.9384                   23565661.0434
   4440949.89148   3462673.58746  20749478.6094                   20749476.0044
   1628056.43048   1277008.08446  21247430.3594                   21247426.4574
   9435314.01248   7341792.63745  22243595.9614                   22243592.8134
  -3766346.73446  -2930420.69843  23452072.2034                   23452071.3054
 11  8 12 17 36 30.0000000  0  9G03G06G07G08G28G13G19G23G11
   8471071.75847   6593695.92644  22635203.3674                   22635202.1524
   9802494.64846   7626262.27143  24637921.7974                   24637921.7774
  -3659505.75448  -2837861.37946  21185879.1484                   21185876.4264
  -5568502.32047  -4323616.09045  22760402.6484                   22760401.4804
  -3439608.47747  -2677994.48244  23557546.0004                   23557543.6954
   4453558.66448   3472498.58646  20751877.4224                   20751875.4694
   1627390.43848   1276489.12446  21247303.7974                   21247300.0354
   9468680.70347   7367792.60045  22249945.9064                   22249942.7154
  -3821535.39846  -2973424.81644  23441569.8364                   23441568.4614
 11  8 12 17 36 45.0000000  0  9G03G06G07G08G28G13G19G23G11
   8500570.81647   6616682.17944  22640816.3984                   22640815.7464
   9834858.05546   7651480.47644  24644080.1644                   24644080.2544
  -3698939.44948  -2868588.92946  21178375.1564                   21178372.6484
  -5621380.69547  -4364820.04045  22750340.0474                   22750339.1294
  -3482214.62947  -2711194.07944  23549439.0004                   23549435.9224
   4466299.44948   3482426.46046  20754302.4694                   20754299.8954
   1626872.19548   1276085.28946  21247205.0084                   21247200.8984
   9502120.23447   7393849.33245  22256309.2424                   22256305.9884
  -3876694.21547  -3016405.70444  23431073.7114                   23431072.2384
 11  8 12 17 37  0.0000000  0  9G03G06G07G08G28G13G19G23G11
   8530151.34047   6639731.90844  22646446.2114                   22646445.5744
   9867265.50446   7676732.97044  24650247.8914                   24650247.5784
  -3738331.28148  -2899283.85046  21170879.2274                   21170876.7344
  -5674260.11747  -4406024.75645  22740277.7584                   22740276.3204
  -3524769.98847  -2744354.05744  23541341.5554                   23541338.3364
   4479170.90248   3492456.13346  20756751.6724                   20756749.3914
   1626500.30147   1275795.49846  21247133.8674                   21247130.3484
   9535631.14147   7419961.67745  22262685.9694                   22262682.7854
  -3931823.96147  -3059363.93344  23420583.4694                   23420581.1414
 11  8 12 17 37 15.0000000  0  9G03G06G07G08G28G13G19G23G11
   8559814.29747   6662845.86944  22652091.1174                   22652089.8164
   9899718.11746   7702020.70643  24656422.9534                   24656422.5944
  -3777679.67648  -2929944.94246  21163391.3524                   21163389.0704
  -5727139.13347  -4447229.17545  22730214.8444                   22730214.0824
  -3567273.01647  -2777473.32344  23533253.0864                   23533250.4964
   4492174.26248   3502588.59546  20759225.9224                   20759224.0984
   1626276.05948   1275620.76046  21247091.6334                   21247087.6094
   9569214.50047   7446130.49645  22269076.9144                   22269073.6524
  -3986922.92647  -3102298.17144  23410098.0554                   23410096.4264
 11  8 12 17 37 30.0000000  0  9G03G06G07G08G28G13G19G23G11
   8589557.77047   6686022.55944  22657750.5164                   22657749.5044
   9932213.90646   7727342.07043  24662605.7034                   24662606.2704
  -3816986.01648  -2960573.25046  21155911.7584                   21155909.1214
  -5780019.28547  -4488434.47645  22720152.3134                   22720151.2424
  -3609725.39147  -2810553.04544  23525174.1644                   23525171.9184
   4505307.61348   3512822.37246  20761725.4224                   20761723.1454
   1626197.72348   1275559.70846  21247076.5864                   21247072.8014
   9602868.39848   7472354.27445  22275481.0704                   22275477.8484
  -4041992.21947  -3145209.33544  23399618.6644                   23399616.5124
 11  8 12 17 37 45.0000000  0  9G03G06G07G08G28G13G19G23G11
   8619382.68847   6709262.69644  22663426.5004                   22663425.0664
   9964753.93846   7752697.85543  24668798.1484                   24668799.0594
  -3856248.81648  -2991167.64746  21148440.2894                   21148437.9734
  -5832899.02747  -4529639.46445  22710089.1724                   22710087.9844
  -3652126.16447  -2843592.56844  23517105.3594                   23517104.1884
   4518571.97348   3523158.20446  20764249.3054                   20764247.2504
   1626266.37948   1275613.19646  21247089.4844                   21247085.7034
   9636593.69148   7498633.66845  22281898.3524                   22281895.8364
  -4097030.37547  -3188096.16144  23389145.0314                   23389143.9454
 11  8 12 17 38  0.0000000  0  9G03G06G07G08G28G13G19G23G11
   8649287.66847   6732565.27344  22669117.2034                   22669115.9694
   9997336.83646   7778087.11143  24674998.4144                   24674999.1054
  -3895468.86748  -3021728.72346  21140976.7274                   21140974.2854
  -5885779.24647  -4570844.80645  22700026.7734                   22700025.4064
  -3694476.09447  -2876592.51144  23509046.2734                   23509044.9734
   4531966.18048   3533595.23146  20766798.1724                   20766795.8364
   1626480.86748   1275780.33146  21247130.3364                   21247126.7934
   9670389.03547   7524967.65645  22288329.5164                   22288326.8874
  -4152037.91847  -3230959.13444  23378678.0164                   23378676.2304
 11  8 12 17 38 15.0000000  0  9G03G06G07G08G28G13G19G23G11
   8679273.16447   6755930.53544  22674822.9694                   22674822.3324
  10029962.94146   7803510.00443  24681208.1644                   24681207.9924
  -3934645.33648  -3052255.84946  21133521.7114                   21133519.4924
  -5938659.17247  -4612049.95545  22689963.8444                   22689963.0984
  -3736774.64847  -2909552.43044  23500997.5474                   23500996.2664
   4545490.52748   3544133.66046  20769371.8364                   20769369.1954
   1626841.71948   1276061.49846  21247198.8754                   21247195.3754
   9704254.68847   7551356.43145  22294774.0944                   22294771.2934
  -4207013.66047  -3273797.40644  23368216.2114                   23368214.7424
 11  8 12 17 38 30.0000000  0  8G03G07G08G28G13G19G23G11
   8709338.37947   6779357.96944  22680544.2504                   22680543.6724
  -3973778.32448  -3082749.07646  21126075.1414                   21126072.6454
  -5991538.88747  -4653254.89745  22679901.3134                   22679900.8204
  -3779022.26247  -2942472.60544  23492957.7194                   23492957.4494
   4559144.60548   3554773.18346  20771970.0234                   20771967.6134
   1627348.48448   1276456.37546  21247295.6024                   21247291.7464
   9738190.10248   7577799.56845  22301231.8054                   22301228.5944
  -4261957.62947  -3316610.83244  23357760.7034                   23357758.8404
 11  8 12 17 38 45.0000000  0  8G03G07G08G28G13G19G23G11
   8739482.22347   6802846.62044  22686280.7344                   22686279.3754
  -4012868.46948  -3113208.92646  21118636.3054                   21118634.0234
  -6044419.13347  -4694460.25945  22669838.9384                   22669837.5824
  -3821219.96147  -2975353.94444  23484927.7894                   23484927.1724
   4572927.21148   3565512.85146  20774593.2034                   20774590.6214
   1628000.00048   1276964.03846  21247419.6414                   21247415.4804
   9772193.99647   7604296.06645  22307703.0004                   22307699.6844
  -4316870.34047  -3359399.97244  23347310.8754                   23347309.6054
 11  8 12 17 39  0.0000000  0  8G03G07G08G28G13G19G23G11
   8769706.89147   6826398.26144  22692032.2344                   22692031.4884
  -4051912.71548  -3143633.01646  21111206.5164                   21111204.2424
  -6097296.98447  -4735663.77045  22659776.2894                   22659774.8054
  -3863364.89147  -3008194.09744  23476907.8914                   23476906.4694
   4586841.00048   3576354.75546  20777240.5164                   20777238.1214
   1628798.96548   1277586.60546  21247571.5474                   21247567.8164
   9806268.82048   7630847.82445  22314186.7274                   22314184.1954
  -4371748.58247  -3402162.21344  23336867.8054                   23336866.4184
 11  8 12 17 39 15.0000000  0  8G03G07G08G28G13G19G23G11
   8800013.97746   6850014.16844  22697799.3444                   22697798.1914
  -4090909.01248  -3174019.74146  21103785.7894                   21103783.2894
  -6150170.50447  -4776863.91745  22649714.7114                   22649712.9964
  -3905455.16447  -3040991.67444  23468898.0004                   23468897.5784
   4600887.59448   3587300.12446  20779913.6414                   20779911.4774
   1629747.06648   1278325.37646  21247752.1724                   21247748.1094
   9840416.13348   7657456.07845  22320685.2274                   22320681.6724
  -4426590.11347  -3444895.85544  23326431.9694                   23326430.4344
 11  8 12 17 39 30.0000000  0  8G03G07G08G28G13G19G23G11
   8830403.24247   6873694.05744  22703582.0164                   22703581.5514
  -4129857.11748  -3204368.90946  21096374.2274                   21096371.8094
  -6203039.32047  -4818060.38945  22639654.3754                   22639652.6294
  -3947490.76247  -3073746.67444  23460900.1804                   23460898.4024
   4615067.07048   3598349.05846  20782612.2664                   20782609.8594
   1630844.19948   1279180.27946  21247960.5634                   21247957.0984
   9874635.66447   7684120.61745  22327196.6334                   22327193.4304
  -4481394.52047  -3487600.54544  23316003.1484                   23316001.2504
 11  8 12 17 39 45.0000000  0  8G03G07G08G28G13G19G23G11
   8860874.52747   6897437.87844  22709381.3594                   22709380.0234
  -4168756.59448  -3234680.19346  21088972.0704                   21088969.5164
  -6255903.08247  -4859252.89645  22629594.0084                   22629593.2034
  -3989471.68047  -3106459.09144  23452910.8204                   23452908.8324
   4629378.97348   3609501.16746  20785335.4384                   20785333.1174
   1632090.39848   1280151.33646  21248198.0784                   21248194.3524
   9908927.22347   7710841.25345  22333722.0164                   22333719.3874
  -4536161.30147  -3530275.95444  23305581.0554                   23305579.9924
 11  8 12 17 40  0.0000000  0  8G03G07G08G28G13G19G23G11
   8891427.97747   6921245.73444  22715195.2664                   22715194.1374
  -4207606.75848  -3264953.06246  21081578.9304                   21081576.6804
  -6308761.36347  -4900441.14945  22619535.8674                   22619534.9224
  -4031397.41047  -3139128.43344  23444933.1414                   23444931.1804
   4643823.70348   3620756.78846  20788084.0554                   20788081.6684
   1633485.83248   1281238.67446  21248463.4064                   21248459.5084
   9943291.00047   7737618.18645  22340261.5394                   22340258.6764
  -4590889.46147  -3572921.29544  23295166.5554                   23295165.5314
 11  8 12 17 40 15.0000000  0  8G03G07G08G28G13G19G23G11
   8922061.73847   6945116.18144  22721024.4924                   22721024.1484
  -4246408.73048  -3295188.35446  21074195.0164                   21074192.9384
  -6361615.18447  -4941625.93045  22609478.2194                   22609476.7234
  -4073269.52347  -3171756.03544  23436964.7274                   23436963.2624
   4658399.68448   3632114.66946  20790857.9224                   20790855.4304
   1635028.93048   1282441.07346  21248757.1954                   21248753.4384
   9977725.18447   7764449.96945  22346814.0784                   22346811.0704
  -4645580.05947  -3615537.32044  23284760.1954                   23284758.1524
 11  8 12 17 40 30.0000000  0  8G03G07G08G28G13G19G23G11
   8952775.91047   6969049.25344  22726868.7664                   22726868.5784
  -4285162.00048  -3325385.69646  21066820.7114                   21066818.5554
  -6414464.11747  -4982806.91345  22599421.4844                   22599419.5554
  -4115087.58647  -3204341.53444  23429006.9454                   23429005.7544
   4673107.04748   3643574.94046  20793656.5784                   20793654.2154
   1636720.12148   1283758.88046  21249079.0314                   21249074.9884
  10012229.72347   7791336.57945  22353380.4144                   22353377.4304
  -4700232.31247  -3658123.46244  23274359.5634                   23274357.5124
 11  8 12 17 40 45.0000000  0  8G03G07G08G28G13G19G23G11
   8983566.01247   6993041.51844  22732727.9694                   22732727.7074
  -4323870.49648  -3355548.16046  21059454.6954                   21059452.4574
  -6467312.14147  -5023987.18545  22589364.6804                   22589362.2704
  -4156855.82047  -3236888.16044  23421058.9614                   23421057.8594
   4687941.37548   3655134.14146  20796479.3834                   20796476.9734
   1638554.84048   1285188.52846  21249428.0394                   21249424.3444
  10046800.24647   7818274.61545  22359958.3674                   22359955.8204
  -4754850.03547  -3700682.73744  23263965.8204                   23263964.4804
 11  8 12 17 41  0.0000000  0  8G03G07G08G28G13G19G23G11
   9014433.29747   7017093.90444  22738601.9144                   22738601.3954
  -4362532.41448  -3385674.34246  21052097.2274                   21052095.1884
  -6520157.49647  -5065165.38245  22579308.0704                   22579307.2194
  -4198572.83647  -3269394.90444  23413120.1334                   23413119.7074
   4702903.88748   3666793.21746  20799326.6094                   20799324.5554
   1640534.57048   1286731.15946  21249804.7504                   21249801.0084
  10081437.83247   7845264.88845  22366549.7814                   22366547.1484
  -4809431.21547  -3743213.48744  23253579.6254                   23253578.2664
 11  8 12 17 41 15.0000000  0  8G03G07G08G28G13G19G23G11
   9045377.93847   7041206.58444  22744490.7974                   22744489.6414
  -4401146.77048  -3415763.45146  21044749.5784                   21044747.0984
  -6572999.37947  -5106340.84445  22569252.5394                   22569252.0434
  -4240237.94147  -3301861.17444  23405191.5864                   23405190.1454
   4717995.16448   3678552.62646  20802198.5474                   20802196.0594
   1642659.98848   1288387.31346  21250209.4844                   21250205.0394
  10116143.02347   7872307.82445  22373154.8524                   22373151.4024
  -4863974.80947  -3785715.00044  23243200.3594                   23243199.0904
 11  8 12 17 41 30.0000000  0  8G03G07G08G28G13G19G23G11
   9076397.43047   7065377.60444  22750393.7274                   22750392.5984
  -4439715.24648  -3445816.80446  21037410.1564                   21037407.8794
  -6625839.55547  -5147514.98945  22559197.5944                   22559196.5704
  -4281853.22747  -3334288.68644  23397272.5704                   23397271.0084
   4733212.80948   3690410.52346  20805094.4924                   20805092.2154
   1644928.79348   1290155.21046  21250641.0864                   21250637.4454
  10150913.24247   7899401.48845  22379770.8984                   22379768.5594
  -4918482.44147  -3828188.41944  23232827.1334                   23232826.3554
 11  8 12 17 41 45.0000000  0  8G03G07G08G28G13G19G23G11
   9107493.12547   7089607.97244  22756311.0634                   22756310.4924
  -4478236.48448  -3475833.34946  21030080.1414                   21030077.5044
  -6678676.44947  -5188686.58345  22549143.5474                   22549141.1374
  -4323417.28147  -3366676.22044  23389362.9454                   23389362.2274
   4748558.09048   3702367.85646  20808014.3134                   20808012.3094
   1647342.06348   1292035.65646  21251100.4064                   21251096.5514
  10185749.56647   7926546.60545  22386399.9614                   22386397.2974
  -4972952.42647  -3870632.59444  23222462.9844                   23222461.3714
 11  8 12 17 42  0.0000000  0  8G03G07G08G28G13G19G23G11
   9138664.17646   7113897.07544  22762242.1564                   22762241.8554
  -4516710.72348  -3505813.27446  21022758.5234                   21022756.0824
  -6731510.47747  -5229855.97345  22539089.3364                   22539087.4144
  -4364930.71147  -3399024.34844  23381463.4924                   23381461.5744
   4764030.37548   3714424.16446  20810958.0554                   20810956.5594
   1649899.35548   1294028.34546  21251586.9454                   21251583.3284
  10220651.29347   7953742.69845  22393041.5314                   22393038.9494
  -5027384.70347  -3913047.35944  23212104.1884                   23212103.1174
 11  8 12 17 42 15.0000000  0  8G03G07G08G28G13G19G23G11
   9169909.16446   7138243.81044  22768188.1954                   22768187.7424
  -4555138.72748  -3535757.18046  21015445.8984                   21015443.5234
  -6784342.59047  -5271023.82845  22529035.9534                   22529034.9964
  -4406394.58647  -3431333.85344  23373572.8054                   23373571.8984
   4779628.21148   3726578.28746  20813927.2424                   20813924.7304
   1652599.26648   1296132.17646  21252100.7194                   21252097.1764
  10255616.98047   7980988.63245  22399695.4064                   22399692.4694
  -5081779.98047  -3955433.26344  23201753.7034                   23201752.1994
 11  8 12 17 42 30.0000000  0  8G03G07G08G28G13G19G23G11
   9201227.91847   7162648.01444  22774148.0004                   22774147.5354
  -4593519.91448  -3565664.60046  21008142.0314                   21008139.5784
  -6837172.12547  -5312189.67845  22518982.4224                   22518981.6844
  -4447808.74647  -3463604.58444  23365692.0164                   23365691.3674
   4795351.64848   3738830.29646  20816919.0004                   20816916.7734
   1655441.83248   1298347.14046  21252641.5164                   21252637.8874
  10290646.53547   8008284.36245  22406360.9694                   22406358.9884
  -5136137.66047  -3997789.90144  23191409.2034                   23191407.9964
 11  8 12 17 42 45.0000000  0  8G03G07G08G28G13G19G23G11
   9232617.97346   7187107.72144  22780121.7274                   22780120.8364
  -4631856.43748  -3595537.21646  21000846.7734                   21000844.5784
  -6890001.22747  -5353355.20445  22508929.5704                   22508928.1024
  -4489175.50447  -3495838.41844  23357819.9384                   23357819.1804
   4811198.22748   3751178.25946  20819934.5944                   20819932.7344
   1658424.83648   1300671.54546  21253209.2344                   21253205.6174
  10325737.30147   8035627.76845  22413039.0864                   22413036.1174
  -5190459.53547  -4040118.61044  23181072.2424                   23181070.5704
 11  8 12 17 43  0.0000000  0  8G03G07G08G28G13G19G23G11
   9264082.05946   7211625.17344  22786108.6094                   22786107.9614
  -4670144.53948  -3625372.10446  20993561.1334                   20993558.6134
  -6942826.44147  -5394517.70745  22498876.8284                   22498875.4384
  -4530491.48447  -3528032.67344  23349958.0944                   23349956.9064
   4827171.14148   3763624.65646  20822974.1334                   20822972.3054
   1661551.35548   1303107.79146  21253803.8984                   21253800.3364
  10360892.43047   8063021.30845  22419728.6254                   22419726.4964
  -5244741.80547  -4082416.50544  23170742.4454                   23170740.9884
 11  8 12 17 43 15.0000000  0  8G03G07G08G28G13G19G23G11
   9295618.21147   7236198.76944  22792109.7344                   22792109.3484
  -4708385.79348  -3655170.47846  20986283.6334                   20986281.5514
  -6995649.36747  -5435678.39045  22488824.9844                   22488823.3014
  -4571758.32447  -3560188.63144  23342104.9844                   23342104.0204
   4843268.55948   3776168.08746  20826037.3524                   20826035.4534
   1664819.53548   1305654.41146  21254426.3444                   21254422.4614
  10396109.87147   8090463.43345  22426430.6804                   22426427.8324
  -5298985.85247  -4124684.57644  23160420.5864                   23160419.7894
 11  8 12 17 43 30.0000000  0  8G03G07G08G28G13G19G23G11
   9327226.41047   7260828.51644  22798124.4924                   22798123.8164
  -4746579.67648  -3684931.94546  20979015.6724                   20979013.2624
  -7048469.53547  -5476836.96645  22478773.7584                   22478773.1094
  -4612976.03547  -3592306.32644  23334261.3594                   23334260.5044
   4859490.34848   3788808.41346  20829124.4454                   20829122.4654
   1668229.36748   1308311.40646  21255074.6414                   21255071.2584
  10431389.46147   8117953.95745  22433144.1884                   22433140.9964
  -5353191.00847  -4166922.35444  23150105.8204                   23150104.5124
 11  8 12 17 43 45.0000000  0  8G03G07G08G28G13G19G23G11
   9358906.69546   7285514.44544  22804152.8754                   22804152.6524
  -4784725.48448  -3714655.96446  20971756.6484                   20971754.4104
  -7101286.30547  -5517992.87545  22468723.4144                   22468722.3674
  -4654144.10547  -3624385.32744  23326427.2114                   23326426.1334
   4875836.72748   3801545.82846  20832235.2274                   20832232.5434
   1671781.21548   1311079.07846  21255751.0314                   21255747.1994
  10466731.33647   8145493.03545  22439869.3284                   22439866.5744
  -5407356.27747  -4209129.05344  23139798.5394                   23139796.6254
 11  8 12 17 44  0.0000000  0  8G03G07G08G28G13G19G23G11
   9390655.68846   7310253.89644  22810194.7664                   22810194.2504
  -4822826.18448  -3744344.81246  20964506.6024                   20964504.2854
  -7154102.46147  -5559148.30445  22458672.6644                   22458671.2464
  -4695265.79347  -3656428.19044  23318602.0784                   23318600.9144
   4892304.26648   3814377.65246  20835368.6484                   20835366.4384
   1675471.71948   1313954.78846  21256453.0944                   21256449.5704
  10502131.92247   8173077.87045  22446605.9844                   22446603.3594
  -5461484.57447  -4251306.96844  23129498.3364                   23129496.2234
 11  8 12 17 44 15.0000000  0  8G03G07G08G28G13G19G23G11
   9422475.06346   7335048.17844  22816249.9144                   22816249.6564
  -4860879.38348  -3773996.65246  20957265.0784                   20957263.0904
  -7206915.91847  -5600301.64345  22448622.6724                   22448621.1174
  -4736339.05547  -3688433.33644  23310786.1804                   23310784.8754
   4908894.93048   3827305.42446  20838526.0864                   20838523.6334
   1679302.64548   1316939.90846  21257182.0784                   21257178.7544
  10537593.09047   8200709.88645  22453354.1414                   22453351.5904
  -5515573.43747  -4293454.13944  23119205.3594                   23119203.3754
 11  8 12 17 44 30.0000000  0  8G03G07G08G28G13G19G23G11
   9454365.60947   7359897.93244  22822318.8364                   22822317.9614
  -4898883.86348  -3803610.53946  20950033.2664                   20950031.0044
  -7259725.33247  -5641451.82445  22438572.9144                   22438571.2504
  -4777362.79747  -3720399.86044  23302979.6884                   23302978.4964
   4925609.49248   3840329.73746  20841706.6644                   20841704.1884
   1683275.03548   1320035.26646  21257938.2274                   21257934.9224
  10573115.61348   8228389.71645  22460114.0634                   22460111.3444
  -5569621.26247  -4335569.33644  23108920.3834                   23108919.0394
 11  8 12 17 44 45.0000000  0  8G03G07G08G28G13G19G23G11
   9486327.03147   7384802.86944  22828400.5084                   22828400.0944
  -4936839.28948  -3833186.20746  20942810.5944                   20942808.3674
  -7312530.46547  -5682598.66645  22428524.8364                   22428523.6684
  -4818337.18447  -3752327.95444  23295182.1564                   23295181.2344
   4942447.55148   3853450.28446  20844910.4144                   20844908.7194
   1687388.59048   1323240.62746  21258721.0234                   21258717.5164
  10608699.02047   8256117.00545  22466885.3834                   22466882.6844
  -5623627.73847  -4377652.31444  23098643.1884                   23098642.1374
 11  8 12 17 45  0.0000000  0  8G03G07G08G28G13G19G23G11
   9518357.84047   7409761.95044  22834496.2424                   22834495.0704
  -4974746.66448  -3862724.41546  20935596.9064                   20935594.8714
  -7365332.50847  -5723743.09445  22418476.8754                   22418476.0554
  -4859263.43447  -3784218.50544  23287394.0474                   23287392.9614
   4959407.82048   3866666.04946  20848138.2274                   20848135.9494
   1691641.98448   1326554.96446  21259530.5164                   21259526.5274
  10644341.75447   8283890.50645  22473667.6804                   22473664.7934
  -5677593.60547  -4419703.64944  23088374.0084                   23088372.5164
 11  8 12 17 45 15.0000000  0  8G03G07G08G28G13G19G23G11
   9550458.81647   7434775.71544  22840604.8284                   22840603.6214
  -5012604.56248  -3892224.07546  20928392.9384                   20928390.4144
  -7418129.93047  -5764883.93345  22408429.3914                   22408428.3324
  -4900140.43447  -3816070.70644  23279615.0864                   23279614.5864
   4976491.27748   3879977.81846  20851389.0394                   20851386.7704
   1696036.32048   1329979.10846  21260366.6724                   21260362.5594
  10680044.88747   8311711.06845  22480461.8054                   22480459.5824
  -5731517.20746  -4461722.01244  23078111.9694                   23078110.9304
 11  8 12 17 45 30.0000000  0  8G03G07G08G28G13G19G23G11
   9582629.61747   7459843.82044  22846726.8594                   22846725.7234
  -5050412.73448  -3921684.99446  20921198.5864                   20921195.8164
  -7470922.59047  -5806021.05945  22398383.5554                   22398381.9844
  -4940968.06647  -3847884.43144  23271846.4224                   23271844.9414
   4993697.60248   3893385.31346  20854663.4144                   20854661.0784
   1700571.36348   1333512.90346  21261229.3284                   21261225.5634
  10715807.90647   8339578.30345  22487267.8364                   22487264.7814
  -5785398.25847  -4503707.24944  23067859.0864                   23067857.7194
 11  8 12 17 45 45.0000000  0  8G03G07G08G28G13G19G23G11
   9614868.46946   7484965.00044  22852861.4694                   22852860.6374
  -5088172.33648  -3951108.06046  20914012.7814                   20914010.3204
  -7523711.72747  -5847155.45545  22388337.6644                   22388336.0594
  -4981747.91447  -3879660.92344  23264086.2114                   23264085.3014
   5011025.06348   3906887.21346  20857960.6954                   20857958.8554
   1705245.37147   1337154.98146  21262119.1334                   21262115.5744
  10751629.07047   8367490.84545  22494084.3054                   22494081.1954
  -5839237.80147  -4545660.15044  23057613.6644                   23057612.6214
 11  8 12 17 46  0.0000000  0  8G03G07G08G28G13G19G23G11
   9647176.72347   7510140.22744  22859009.7814                   22859008.8134
  -5125881.50448  -3980491.82246  20906836.8134                   20906834.6914
  -7576495.52047  -5888285.66845  22378293.8524                   22378292.5354
  -5022478.25046  -3911398.85344  23256335.0004                   23256334.4224
   5028475.20348   3920484.69746  20861281.4304                   20861279.0124
   1710059.87148   1340906.54346  21263035.1724                   21263031.2664
  10787509.76647   8395449.77445  22500912.1954                   22500909.1214
  -5893033.67247  -4587579.02144  23047377.6254                   23047375.4384
 11  8 12 17 46 15.0000000  0  8G03G07G08G28G13G19G23G11
   9679553.03947   7535368.54644  22865171.1094                   22865169.8594
  -5163540.84448  -4009836.76846  20899670.3364                   20899668.4304
  -7629274.68447  -5929412.27145  22368250.2584                   22368249.1134
  -5063160.24247  -3943099.08744  23248594.1254                   23248592.9924
   5046046.77048   3934176.82046  20864625.1564                   20864622.6454
   1715013.75447   1344766.69746  21263977.8754                   21263974.2624
  10823448.60947   8423454.03445  22507751.0704                   22507748.1994
  -5946786.45747  -4629464.29544  23037148.6094                   23037146.9964
 11  8 12 17 46 30.0000000  0  8G03G07G08G28G13G19G23G11
   9711996.96147   7560649.44944  22871344.4924                   22871343.6884
  -5201150.38348  -4039142.91046  20892513.8444                   20892511.8954
  -7682049.15647  -5970535.23645  22358207.3834                   22358206.2424
  -5103793.99647  -3974761.71944  23240861.7194                   23240860.7304
   5063739.39848   3947963.26046  20867991.8914                   20867989.8054
   1720106.82847   1348735.33146  21264947.0394                   21264943.0984
  10859445.27347   8451503.32845  22514600.8984                   22514597.9844
  -6000495.88347  -4671315.79144  23026927.3674                   23026926.3634
 11  8 12 17 46 45.0000000  0  8G03G07G08G28G13G19G23G11
   9744509.20746   7585983.65744  22877531.0394                   22877530.8714
  -5238708.75848  -4068409.17446  20885366.5004                   20885364.7384
  -7734817.71547  -6011653.57545  22348166.2814                   22348164.5204
  -5144378.53547  -4006386.03244  23233138.2584                   23233137.2504
   5081553.94548   3961844.69946  20871381.8914                   20871380.0164
   1725339.80548   1352812.96246  21265942.9454                   21265939.1994
  10895500.18047   8479598.02045  22521461.7274                   22521458.9614
  -6054160.50846  -4713132.38544  23016714.9454                   23016714.4494
 11  8 12 17 47  0.0000000  0  8G03G07G08G28G13G19G23G11
   9777090.66446   7611371.80044  22883730.9384                   22883731.0594
  -5276214.60248  -4097634.50446  20878229.3134                   20878227.1024
  -7787579.00447  -6052766.26445  22338126.0864                   22338124.3204
  -5184912.73847  -4037971.13344  23225424.9304                   23225423.7544
   5099491.21548   3975821.76446  20874795.3754                   20874793.2424
   1730713.66848   1357000.37746  21266965.5164                   21266961.7114
  10931614.35947   8507738.89545  22528334.3364                   22528331.1804
  -6107778.67646  -4754912.75444  23006512.5314                   23006510.4964
 11  8 12 17 47 15.0000000  0  8G03G07G08G28G13G19G23G11
   9809741.16446   7636813.70544  22889944.6414                   22889944.5204
  -5313667.34448  -4126818.46946  20871102.6564                   20871100.1294
  -7840332.50447  -6093872.87845  22328087.5234                   22328085.9264
  -5225396.41047  -4069516.81944  23217721.3284                   23217719.7424
   5117551.37548   3989894.58946  20878231.8984                   20878230.0474
   1736228.46147   1361297.61846  21268014.7974                   21268011.1454
  10967787.89147   8535925.99745  22535217.4534                   22535215.3134
  -6161349.70746  -4796656.42844  22996317.9614                   22996316.3094
 11  8 12 17 47 30.0000000  0  8G03G07G08G28G13G19G23G11
   9842457.91047   7662307.23544  22896170.7584                   22896169.2974
  -5351069.39148  -4155962.91946  20863985.1094                   20863982.9184
  -7893080.68447  -6134975.35545  22318049.7034                   22318048.2274
  -5265832.22347  -4101025.24344  23210026.8204                   23210025.7974
   5135731.34048   4004060.77346  20881691.8204                   20881689.6724
   1741881.33247   1365702.43546  21269090.7584                   21269087.1374
  11004017.65247   8564156.90745  22542111.9454                   22542109.3914
  -6214876.21947  -4838365.39644  22986132.4534                   22986131.0554
 11  8 12 17 47 45.0000000  0  8G03G07G08G28G13G19G23G11
   9875241.70347   7687853.04344  22902409.4694                   22902407.9184
  -5388419.17248  -4185066.65646  20856877.6414                   20856875.2894
  -7945822.03947  -6176072.49545  22308012.9614                   22308011.9774
  -5306218.91047  -4132495.36544  23202340.8674                   23202340.0354
   5154032.32048   4018321.25546  20885173.8444                   20885171.9694
   1747673.59047   1370215.88146  21270193.0164                   21270189.2384
  11040304.64547   8592432.43345  22549017.6254                   22549014.6454
  -6268355.98846  -4880037.93244  22975955.1884                   22975954.3674
 11  8 12 17 48  0.0000000  0  8G03G07G08G28G13G19G23G11
   9908091.80946   7713450.49144  22908659.8914                   22908658.9844
  -5425716.80148  -4214129.73546  20849780.3444                   20849777.8204
  -7998556.74647  -6217164.46845  22297978.0394                   22297976.8594
  -5346556.93447  -4163927.62044  23194665.3444                   23194663.2424
   5172453.69148   4032675.54546  20888679.3594                   20888677.6414
   1753604.51248   1374837.37846  21271321.3984                   21271317.2304
  11076648.10247   8620751.95345  22555933.5164                   22555930.8014
  -6321789.18446  -4921674.16344  22965787.1334                   22965786.3014
 11  8 12 17 48 15.0000000  0  8G03G07G08G28G13G19G23G11
   9941010.10246   7739101.10844  22914924.5554                   22914923.4884
  -5462959.85247  -4243150.30446  20842692.8134                   20842690.5234
  -8051282.52747  -6258249.50045  22287944.9064                   22287943.4774
  -5386844.16447  -4195320.23944  23186999.2894                   23186997.7304
   5190997.40648   4047125.17346  20892208.4534                   20892206.6174
   1759676.00448   1379568.41146  21272476.9224                   21272472.9454
  11113049.85247   8649116.91145  22562860.3524                   22562858.0554
  -6375173.14847  -4963272.04444  22955628.7734                   22955627.6954
 11  8 12 17 48 30.0000000  0  8G03G07G08G28G13G19G23G11
   9973995.93047   7764804.30744  22921201.2584                   22921200.7424
  -5500148.44148  -4272128.42546  20835616.5864                   20835613.9884
  -8103999.50447  -6299327.63445  22277912.8444                   22277911.8484
  -5427080.98847  -4226673.57844  23179341.9224                   23179341.0824
   5209662.80148   4061669.60946  20895760.1564                   20895758.1024
   1765887.58248   1384408.58946  21273658.9844                   21273655.3594
  11149509.49247   8677526.94745  22569798.6414                   22569796.0314
  -6428507.94547  -5004831.62544  22945479.6564                   22945479.0124
 11  8 12 17 48 45.0000000  0  8G03G07G08G28G13G19G23G11
  10007048.59047   7790559.61044  22927491.2504                   22927490.3444
  -5537282.93048  -4301064.39546  20828549.8834                   20828547.4574
  -8156707.97747  -6340399.15545  22267882.7344                   22267881.2894
  -5467267.93047  -4257988.06844  23171694.2974                   23171693.2624
   5228448.95348   4076308.15346  20899335.1024                   20899333.1254
   1772238.55547   1389357.39146  21274867.3674                   21274863.6254
  11186025.68047   8705981.07745  22576746.8674                   22576744.8134
  -6481793.71547  -5046352.98844  22935339.6884                   22935338.5594
 11  8 12 17 49  0.0000000  0  8G03G07G08G28G13G19G23G11
  10040167.50846   7816366.53544  22933793.5314                   22933792.4414
  -5574362.80148  -4329957.79146  20821493.7424                   20821491.3284
  -8209407.51247  -6381463.73745  22257854.7664                   22257852.5554
  -5507405.03147  -4289263.73644  23164057.1334                   23164055.2934
   5247355.87148   4091040.77946  20902933.2034                   20902931.1804
   1778728.74647   1394414.67046  21276102.2034                   21276098.4574
  11222598.34447   8734479.19345  22583707.3674                   22583704.6844
  -6535029.87547  -5087835.70244  22925209.0164                   22925208.0084
 11  8 12 17 49 15.0000000  0  8G03G07G08G28G13G19G23G11
  10073352.32446   7842224.80444  22940108.6414                   22940107.5824
  -5611388.00448  -4358808.60646  20814448.3594                   20814445.9064
  -8262098.06247  -6422521.30445  22247828.2424                   22247826.2854
  -5547492.45747  -4320500.67944  23156429.2114                   23156426.9734
   5266383.15248   4105867.20546  20906553.9304                   20906551.8484
   1785357.81347   1399580.17346  21277363.8204                   21277360.0784
  11259227.08647   8763021.00945  22590677.0164                   22590674.9574
  -6588216.02047  -5129279.43444  22915087.7114                   22915086.5744
 11  8 12 17 49 30.0000000  0  8G03G07G08G28G13G19G23G11
  10106602.68846   7868134.14644  22946435.1484                   22946434.7624
  -5648358.69948  -4387616.94246  20807413.0944                   20807410.4614
  -8314779.69947  -6463571.92145  22237802.7114                   22237801.5634
  -5587530.52047  -4351699.14744  23148809.6254                   23148807.7934
   5285530.33248   4120787.05246  20910197.2504                   20910195.4024
   1792125.35247   1404853.56746  21278651.5704                   21278648.1054
  11295911.35247   8791606.08845  22597658.4304                   22597655.2664
  -6641351.99247  -5170684.08444  22904976.4534                   22904975.1684
 11  8 12 17 49 45.0000000  0  8G03G07G08G28G13G19G23G11
  10139919.01646   7894094.88544  22952775.4454                   22952775.1604
  -5685273.67248  -4416381.85046  20800388.2344                   20800385.5594
  -8367451.31247  -6504614.72645  22227780.0164                   22227778.6374
  -5627518.27047  -4382858.43544  23141199.9064                   23141198.7074
   5304797.89548   4135800.71646  20913863.9384                   20913861.8914
   1799032.14547   1410235.47046  21279966.2734                   21279962.9384
  11332651.55547   8820234.75145  22604649.3524                   22604647.4064
  -6694436.68447  -5212048.77444  22894874.6024                   22894873.9964
 11  8 12 17 50  0.0000000  0  8G03G07G08G28G13G19G23G11
  10173300.67247   7920106.53544  22959127.8674                   22959127.3914
  -5722132.60948  -4445103.10246  20793374.2894                   20793371.8794
  -8420112.82047  -6545649.64445  22217758.7424                   22217756.7814
  -5667456.04747  -4413978.74544  23133600.2194                   23133598.8914
   5324185.50048   4150907.93346  20917553.0784                   20917551.1724
   1806077.75047   1415725.55446  21281306.3674                   21281302.9924
  11369447.37147   8848906.76045  22611651.8594                   22611649.2734
  -6747469.75447  -5253373.22644  22884783.3834                   22884781.8324
 11  8 12 17 50 15.0000000  0  8G03G07G08G28G13G19G23G11
  10206747.07847   7946168.63544  22965492.6564                   22965491.6724
  -5758935.86747  -4473780.95846  20786370.7974                   20786368.6454
  -8472764.64847  -6586677.04745  22207739.5004                   22207737.6564
  -5707344.37947  -4445060.54844  23126009.7114                   23126008.1994
   5343692.45348   4166108.11446  20921265.4304                   20921263.6414
   1813261.45747   1421323.23946  21282674.1724                   21282670.4964
  11406297.86747   8877621.38445  22618664.1884                   22618661.8874
  -6800451.28547  -5294657.53444  22874700.7894                   22874699.6334
 11  8 12 17 50 30.0000000  0  8G03G07G08G28G13G19G23G11
  10240258.09447   7972281.09744  22971869.4534                   22971869.3134
  -5795682.84448  -4502414.96246  20779378.2344                   20779375.5554
  -8525406.23047  -6627696.45545  22197721.8524                   22197720.5554
  -5747182.97347  -4476103.61744  23118429.3834                   23118427.4024
   5363318.76248   4181401.31446  20925000.1644                   20924998.4384
   1820583.24647   1427028.51146  21284067.2894                   21284063.6564
  11443203.11347   8906378.65945  22625687.2974                   22625684.3134
  -6853380.64147  -5335901.15744  22864629.1484                   22864627.8634
 11  8 12 17 50 45.0000000  0  8G03G07G08G28G13G19G23G11
  10273832.16047   7998442.64944  22978258.0394                   22978257.9774
  -5832374.73447  -4531006.06646  20772396.1094                   20772393.4614
  -8578038.77747  -6668708.80745  22187706.2344                   22187704.8284
  -5786973.23447  -4507108.99044  23110857.0164                   23110854.9304
   5383062.93848   4196786.36246  20928757.2894                   20928755.3364
   1828041.69547   1432840.28846  21285486.4774                   21285482.6524
  11480161.46947   8935177.30245  22632720.0784                   22632717.9104
  -6906258.60947  -5377104.78344  22854566.5084                   22854565.1844
 11  8 12 17 51  0.0000000  0  8G03G07G08G28G13G19G23G11
  10307470.85547   8024654.59044  22984659.5704                   22984658.6844
  -5869009.28947  -4559552.47046  20765424.5944                   20765422.0314
  -8630659.97747  -6709712.33845  22177693.0554                   22177691.9344
  -5826713.23847  -4538075.23444  23103294.6414                   23103292.6254
   5402926.69548   4212264.59046  20932537.2504                   20932535.3204
   1835638.53547   1438759.89446  21286931.9144                   21286928.1214
  11517174.38347   8964018.48745  22639763.7974                   22639761.0864
  -6959082.83247  -5418266.48744  22844514.6254                   22844513.2114
 11  8 12 17 51 15.0000000  0  8G03G07G08G28G13G19G23G11
  10341173.85247   8050916.63844  22991073.2034                   22991072.9384
  -5905586.16048  -4588053.92346  20758463.9924                   20758461.6484
  -8683269.64147  -6750706.86545  22167681.5634                   22167679.9414
  -5866402.91047  -4569002.23544  23095742.1564                   23095740.1374
   5422909.52348   4227835.59646  20936340.2734                   20936338.4804
   1843373.66847   1444787.26246  21288403.9924                   21288400.2304
  11554241.74647   8992902.07745  22646817.1174                   22646814.9224
  -7011852.99247  -5459386.08644  22834472.3284                   22834471.5864
 11  8 12 17 51 30.0000000  0  8G03G07G08G28G13G19G23G11
  10374941.10247   8077228.78744  22997499.2894                   22997498.1994
  -5942104.86748  -4616510.05146  20751514.8674                   20751512.6524
  -8735867.12147  -6791691.92045  22157672.6094                   22157671.0044
  -5906042.18047  -4599889.96544  23088198.6484                   23088196.9614
   5443011.64148   4243499.55646  20940165.3284                   20940163.4064
   1851247.12947   1450922.40646  21289902.3204                   21289898.6374
  11591363.38347   9021827.98045  22653881.0084                   22653878.6094
  -7064568.37947  -5500462.99144  22824441.4144                   22824439.8954
 11  8 12 17 51 45.0000000  0  8G03G07G08G28G13G19G23G11
  10408769.34447   8103588.39544  23003936.2424                   23003935.9804
  -5978568.03547  -4644922.90546  20744576.1484                   20744573.6174
  -8788455.41447  -6832669.79145  22147665.2974                   22147663.9844
  -5945633.93047  -4630740.65944  23080664.3284                   23080662.5664
   5463229.79348   4259253.93846  20944012.7344                   20944010.7234
   1859255.67647   1457162.82146  21291426.3754                   21291422.7344
  11628536.20747   9050793.73145  22660954.9384                   22660952.9574
  -7117231.20747  -5541498.92144  22814419.7424                   22814418.6374
 11  8 12 17 52  0.0000000  0  8G03G07G08G28G13G19G23G11
  10442659.92647   8129996.57944  23010385.4454                   23010385.3404
  -6014973.68447  -4673290.94346  20737648.4144                   20737645.8094
  -8841032.35547  -6873638.83145  22137660.2584                   22137658.8324
  -5985176.51647  -4661553.03844  23073140.2274                   23073138.0634
   5483565.53148   4275099.94746  20947882.7894                   20947880.6684
   1867400.90247   1463509.74346  21292976.3984                   21292972.5354
  11665761.45747   9079800.35944  22668039.0314                   22668036.6684
  -7169839.59047  -5582492.46044  22804408.3204                   22804407.7854
 11  8 12 17 52 15.0000000  0  8G03G07G08G28G13G19G23G11
  10476610.07047   8156451.21544  23016846.5084                   23016846.1334
  -6051324.08248  -4701615.92646  20730731.0784                   20730728.7774
  -8893600.35247  -6914600.88245  22127656.9144                   22127655.3834
  -6024672.52747  -4692329.16244  23065624.1564                   23065622.2234
   5504016.02748   4291035.37146  20951774.1024                   20951772.3594
   1875680.18847   1469961.12146  21294551.6024                   21294548.0474
  11703036.24647   9108845.59045  22675131.7734                   22675129.6454
  -7222395.79347  -5623445.32444  22794407.2894                   22794406.3484
 11  8 12 17 52 30.0000000  0  8G03G07G08G28G13G19G23G11
  10510624.34847   8182955.78544  23023318.7974                   23023318.4534
  -6087614.20348  -4729893.93546  20723824.8524                   20723823.0824
  -8946154.26247  -6955551.97945  22117656.4774                   22117654.6764
  -6064117.05147  -4723065.13044  23058117.3834                   23058115.9614
   5524585.78148   4307063.71946  20955688.6174                   20955686.8714
   1884098.10947   1476520.53246  21296153.5004                   21296150.2154
  11740365.06347   9137932.91745  22682235.3834                   22682233.2704
  -7274894.38347  -5664353.26744  22784417.4614                   22784415.8364
 11  8 12 17 52 45.0000000  0  8G03G07G08G28G13G19G23G11
  10544700.44547   8209508.58544  23029803.2664                   23029802.7774
  -6123845.65248  -4758126.25246  20716930.6954                   20716928.1214
  -8998695.71147  -6996493.35245  22107657.8834                   22107656.4534
  -6103512.13747  -4753762.58544  23050621.5474                   23050619.5744
   5545272.72348   4323183.37446  20959625.1804                   20959623.1334
   1892652.41847   1483186.21146  21297781.7734                   21297777.7934
  11777745.78947   9167060.68945  22689348.6484                   22689345.9614
  -7327336.78947  -5705217.46744  22774437.9614                   22774436.5784
 11  8 12 17 53  0.0000000  0  8G03G07G08G28G13G19G23G11
  10578838.23847   8236109.41544  23036299.1804                   23036298.8754
  -6160018.03948  -4786312.51146  20710047.1724                   20710045.2074
  -9051224.46947  -7037424.83145  22097661.9534                   22097661.4454
  -6142857.72347  -4784421.48244  23043134.4304                   23043132.5124
   5566076.62548   4339394.19146  20963583.9844                   20963581.9694
   1901343.02747   1489958.10746  21299435.4064                   21299431.3484
  11815178.17247   9196228.73445  22696472.2424                   22696469.3524
  -7379722.53147  -5746037.49444  22764469.5084                   22764467.6374
 11  8 12 17 53 15.0000000  0  8G03G07G08G28G13G19G23G11
  10613036.72347   8262757.55144  23042807.3284                   23042807.0824
  -6196131.71548  -4814453.03546  20703175.1254                   20703172.7814
  -9103740.91447  -7078346.74145  22087668.2034                   22087667.3674
  -6182154.49247  -4815042.32744  23035656.3134                   23035654.3404
   5586996.66848   4355695.49546  20967564.8524                   20967562.9304
   1910169.14148   1496835.58446  21301115.1954                   21301111.2464
  11852661.21147   9225436.22945  22703604.7344                   22703602.5204
  -7432051.92247  -5786813.63544  22754511.5394                   22754509.8284
 11  8 12 17 53 30.0000000  0  8G03G07G08G28G13G19G23G11
  10647294.09446   8289451.55944  23049326.5314                   23049326.0704
  -6232187.68748  -4842548.60646  20696313.5004                   20696311.5784
  -9156246.31647  -7119260.03845  22077677.1174                   22077675.9614
  -6221403.92647  -4845626.30244  23028187.4614                   23028186.1054
   5608031.24648   4372086.04746  20971567.5554                   20971566.0314
   1919129.12548   1503817.38646  21302819.6724                   21302816.1914
  11890193.18447   9254681.86445  22710746.7734                   22710744.6524
  -7484325.62147  -5827546.35844  22744563.7504                   22744562.5664
 11  8 12 17 53 45.0000000  0  8G03G07G08G28G13G19G23G11
  10681610.42246   8316191.51344  23055856.5554                   23055855.7074
  -6268185.68747  -4870598.99046  20689463.6724                   20689460.9614
  -9208740.24647  -7160164.39545  22067687.4774                   22067686.0354
  -6260605.91846  -4876173.27044  23020728.1564                   23020725.9454
   5629180.17647   4388565.70946  20975592.4224                   20975590.5434
   1928222.82047   1510903.36346  21304550.5784                   21304546.8444
  11927774.09447   9283965.61344  22717898.2584                   22717896.2194
  -7536543.28947  -5868235.40644  22734627.1024                   22734625.9264
 11  8 12 17 54  0.0000000  0  8G03G07G08G28G13G19G23G11
  10715986.26247   8342977.84744  23062398.5784                   23062397.2304
  -6304124.46148  -4898603.23346  20682624.7974                   20682622.3794
  -9261221.47747  -7201058.85545  22057700.5944                   22057699.4774
  -6299759.52047  -4906682.56744  23013277.0084                   23013275.1524
   5650444.06348   4405134.95246  20979638.6484                   20979637.0044
   1937451.21147   1518094.30446  21306306.1644                   21306302.7544
  11965404.49247   9313287.93444  22725059.6644                   22725056.8094
  -7588703.45347  -5908879.66744  22724701.3594                   22724699.9064
 11  8 12 17 54 15.0000000  0  8G03G07G08G28G13G19G23G11
  10750419.53547   8369808.89644  23068950.5474                   23068950.0944
  -6340005.32048  -4926562.34446  20675796.9534                   20675794.4384
  -9313691.29747  -7241944.40945  22047716.1724                   22047715.4494
  -6338866.42647  -4937155.47244  23005835.1724                   23005833.2974
   5671821.14548   4421792.38646  20983706.5554                   20983704.8244
   1946812.43447   1525388.75146  21308087.7814                   21308084.2584
  12003082.34447   9342647.22745  22732228.7814                   22732227.0634
  -7640807.55547  -5949480.26244  22714786.2194                   22714784.5354
 11  8 12 17 54 30.0000000  0  8G03G07G08G28G13G19G23G11
  10784911.10947   8396685.45844  23075513.9924                   23075513.5124
  -6375826.95748  -4954475.30646  20668980.1484                   20668977.9534
  -9366148.50047  -7282820.14745  22037734.0314                   22037732.4614
  -6377925.57847  -4967591.15645  22998402.3054                   22998400.7114
   5693312.19948   4438538.61546  20987796.3594                   20987794.6024
   1956307.26647   1532787.31246  21309894.4844                   21309890.9964
  12040808.45747   9372044.13145  22739408.9224                   22739406.3014
  -7692853.87947  -5990035.80744  22704881.4774                   22704880.6524
 11  8 12 17 54 45.0000000  0  8G03G07G08G28G13G19G23G11
  10819460.71147   8423607.15944  23082089.2114                   23082087.8714
  -6411589.13748  -4982341.94646  20662174.8754                   20662172.5204
  -9418592.95347  -7323685.96845  22027754.1174                   22027752.7894
  -6416936.93447  -4997989.59844  22990979.4064                   22990977.1254
   5714916.94948   4455373.47046  20991907.2034                   20991905.8524
   1965935.47347   1540289.79446  21311726.7894                   21311722.8094
  12078582.53147   9401478.41445  22746596.4384                   22746594.0634
  -7744842.10947  -6030546.09644  22694989.0314                   22694987.9654
 11  8 12 17 55  0.0000000  0  8G03G07G08G28G13G19G23G11
  10854067.84847   8450573.73244  23088674.1724                   23088673.7384
  -6447291.72748  -5010162.14746  20655380.5704                   20655378.6214
  -9471024.50847  -7364541.69545  22017776.7344                   22017775.5554
  -6455900.81247  -5028351.04444  22983563.9614                   22983562.6564
   5736634.90648   4472296.52646  20996040.1884                   20996038.2504
   1975696.67247   1547895.92446  21313584.6564                   21313580.7194
  12116403.90647   9430949.54344  22753794.2114                   22753791.2734
  -7796771.89147  -6071010.83144  22685107.0234                   22685106.3874
 11  8 12 17 55 15.0000000  0  8G03G07G08G28G13G19G23G11
  10888731.93447   8477584.66444  23095270.2424                   23095270.3524
  -6482934.55148  -5037935.77146  20648598.1174                   20648596.3054
  -9523442.89547  -7405387.18745  22007801.3524                   22007800.1484
  -6494817.35247  -5058675.59145  22976158.7344                   22976157.6804
   5758465.84447   4489307.61446  21000195.0394                   21000192.9064
   1985590.50047   1555605.38746  21315467.1804                   21315463.4104
  12154272.36347   9460457.39544  22761000.0164                   22760997.9494
  -7848642.93747  -6111429.81044  22675236.1564                   22675234.8954
 11  8 12 17 55 30.0000000  0  8G03G07G08G28G13G19G23G11
  10923453.05946   8504640.04644  23101877.8364                   23101877.1564
  -6518516.96147  -5065662.32546  20641827.0704                   20641824.9104
  -9575847.83247  -7446222.19645  21997829.3594                   21997827.8524
  -6533686.31647  -5088963.09244  22968762.3054                   22968760.1134
   5780409.83248   4506406.78646  21004370.3834                   21004368.8324
   1995617.19947   1563418.38446  21317375.1804                   21317371.3954
  12192187.91847   9490001.91944  22768215.0004                   22768212.0864
  -7900454.57047  -6151802.48444  22665377.0704                   22665375.9574
 11  8 12 17 55 45.0000000  0  8G03G07G08G28G13G19G23G11
  10958231.29747   8531739.94844  23108496.0634                   23108495.5274
  -6554038.48848  -5093341.43246  20635067.6254                   20635065.1724
  -9628238.60247  -7487046.17045  21987859.9844                   21987858.5744
  -6572507.52047  -5119213.37445  22961374.6254                   22961372.9104
   5802466.78548   4523593.99846  21008567.5864                   21008566.1644
   2005776.77347   1571334.93246  21319308.1254                   21319304.6564
  12230150.42247   9519583.04744  22775439.0314                   22775436.8594
  -7952206.09447  -6192128.32244  22655528.7504                   22655526.9384
 11  8 12 17 56  0.0000000  0  8G03G07G08G28G13G19G23G11
  10993065.00847   8558883.05244  23115124.4224                   23115124.8244
  -6589499.99248  -5120973.78346  20628319.8984                   20628317.3444
  -9680616.21547  -7527859.88945  21977892.6174                   21977891.2934
  -6611282.39847  -5149427.55245  22953996.2974                   22953994.4024
   5824635.15648   4540868.03146  21012785.9614                   21012783.8874
   2016067.60947   1579353.75146  21321266.9304                   21321262.9614
  12268158.17647   9549199.41444  22782672.0784                   22782669.2304
  -8003898.31247  -6232407.92344  22645692.2894                   22645690.3714
 11  8 12 17 56 15.0000000  0  8G03G07G08G28G13G19G23G11
  11027953.52347   8586068.89643  23121763.6174                   23121763.2974
  -6624901.72748  -5148559.55746  20621583.0634                   20621580.5234
  -9732980.86347  -7568663.48645  21967927.8834                   21967926.5474
  -6650010.94547  -5179605.61245  22946626.5704                   22946624.5944
   5846914.37548   4558228.43246  21017025.7034                   21017023.7934
   2026489.29747   1587474.53446  21323250.3284                   21323246.5554
  12306210.66447   9578850.62144  22789913.3284                   22789910.7194
  -8055531.02046  -6272641.20844  22635867.3524                   22635865.7934
 11  8 12 17 56 30.0000000  0  8G03G07G08G28G13G19G23G11
  11062897.59446   8613297.96444  23128412.9384                   23128413.0824
  -6660242.37548  -5176097.72446  20614857.7974                   20614855.2544
  -9785331.25847  -7609456.01245  21957965.7894                   21957964.6604
  -6688692.22747  -5209746.87145  22939265.7894                   22939263.2234
   5869305.37148   4575675.92246  21021286.8444                   21021285.1214
   2037042.60248   1595697.87546  21325258.2504                   21325254.6644
  12344308.54747   9608537.22844  22797163.1804                   22797160.5434
  -8107102.80547  -6312827.01644  22626052.7734                   22626051.7774
 11  8 12 17 56 45.0000000  0  8G03G07G08G28G13G19G23G11
  11097896.98847   8640570.20144  23135073.3674                   23135073.1764
  -6695521.25048  -5203587.75246  20608144.3594                   20608142.0084
  -9837667.07047  -7650237.15645  21948006.8674                   21948005.7034
  -6727326.20347  -5239851.26244  22931913.9304                   22931911.5354
   5891807.74248   4593210.22246  21025568.8834                   21025567.2974
   2047727.42648   1604023.70946  21327291.5554                   21327287.7734
  12382451.62547   9638259.04144  22804421.5314                   22804418.8954
  -8158613.28547  -6352965.00744  22616250.5314                   22616249.6294
 11  8 12 17 57  0.0000000  0  8G03G07G08G28G13G19G23G11
  11132949.21547   8667883.57643  23141744.1804                   23141743.2814
  -6730740.59448  -5231031.39646  20601442.5474                   20601439.8754
  -9889990.18447  -7691008.38945  21938050.0004                   21938048.8404
  -6765915.35247  -5269920.70844  22924570.3914                   22924568.2734
   5914419.05148   4610829.38846  21029871.4534                   21029870.1954
   2058541.30547   1612450.09846  21329348.7344                   21329345.7894
  12420637.39847   9668014.09844  22811688.2734                   22811686.0234
  -8210064.13346  -6393056.55344  22606460.0084                   22606458.3054
 11  8 12 17 57 15.0000000  0  8G03G07G08G28G13G19G23G11
  11168056.72347   8695240.09743  23148424.6254                   23148424.0824
  -6765897.41448  -5258426.32146  20594752.4064                   20594750.0704
  -9942297.69147  -7731767.48245  21928096.3524                   21928094.5984
  -6804456.87547  -5299953.07545  22917236.1484                   22917234.1764
   5937141.72748   4628535.34546  21034195.8054                   21034193.8094
   2069486.78547   1620979.03246  21331431.9064                   21331428.4884
  12458868.25847   9697804.32344  22818962.3444                   22818960.5664
  -8261452.04747  -6433099.07144  22596681.5084                   22596679.6954
 11  8 12 17 57 30.0000000  0  8G03G07G08G28G13G19G23G11
  11203216.90247   8722637.53243  23155115.1094                   23155115.2854
  -6800993.79748  -5285774.15646  20588073.6954                   20588071.2974
  -9994591.59847  -7772515.98745  21918144.9614                   21918144.0274
  -6842953.04747  -5329950.08545  22909910.8444                   22909908.9384
   5959973.24248   4646326.10746  21038539.8914                   21038538.3794
   2080561.29348   1629608.51246  21333539.4694                   21333536.1334
  12497141.54347   9727627.59944  22826246.4454                   22826243.8284
  -8312779.20747  -6473094.22244  22586914.2664                   22586912.7234
 11  8 12 17 57 45.0000000  0  8G03G07G08G28G13G19G23G11
  11238430.14847   8750076.43743  23161815.8444                   23161815.7974
  -6836028.33648  -5313073.79946  20581407.0474                   20581404.2504
 -10046870.69947  -7813252.92945  21908196.8674                   21908195.0204
  -6881403.12947  -5359911.14945  22902594.2584                   22902591.9494
   5982914.25448   4664202.19346  21042905.7194                   21042904.1254
   2091765.56348   1638339.09946  21335671.5704                   21335668.0864
  12535457.96147   9757484.49744  22833537.7424                   22833535.2774
  -8364044.26247  -6513041.03345  22577158.8364                   22577157.4694
 11  8 12 17 58  0.0000000  0  8G03G07G08G28G13G19G23G11
  11273695.24647   8777555.71744  23168526.7034                   23168526.7074
  -6871001.93048  -5340325.96246  20574751.4844                   20574749.2544
 -10099135.93447  -7853979.07445  21898250.8054                   21898249.7344
  -6919808.24647  -5389837.21945  22895285.7504                   22895283.8204
   6005963.35548   4682162.49946  21047291.8444                   21047290.3164
   2103098.13748   1647169.65746  21337828.5164                   21337824.2504
  12573815.95747   9787373.76744  22840837.2034                   22840834.6914
  -8415247.81247  -6552939.85245  22567415.2974                   22567413.7304
 11  8 12 17 58 15.0000000  0  8G03G07G08G28G13G19G23G11
  11309013.24246   8805076.19843  23175247.0554                   23175247.5904
  -6905912.87148  -5367529.29046  20568108.3054                   20568105.9884
 -10151385.64147  -7894693.12845  21888307.9144                   21888306.9264
  -6958167.11347  -5419727.23145  22887986.6174                   22887984.7734
   6029121.63347   4700207.89346  21051698.8834                   21051697.3324
   2114560.23448   1656101.14746  21340009.2344                   21340005.5784
  12612216.51647   9817296.21544  22848144.3594                   22848142.3954
  -8466388.04347  -6592789.38844  22557683.2274                   22557681.6174
 11  8 12 17 58 30.0000000  0  8G03G07G08G28G13G19G23G11
  11344383.63346   8832637.51543  23181978.5474                   23181977.9614
  -6940761.34448  -5394683.94346  20561476.5944                   20561474.1054
 -10203619.85547  -7935395.11145  21878368.1094                   21878366.9774
  -6996480.04747  -5449581.44945  22880695.4694                   22880693.5314
   6052388.52347   4718337.89146  21056126.1644                   21056125.0634
   2126151.30148   1665133.13446  21342215.4304                   21342211.6484
  12650659.21147   9847251.46644  22855459.6644                   22855457.5984
  -8517464.82847  -6632589.46744  22547964.0084                   22547962.1954
 11  8 12 17 58 45.0000000  0  8G03G07G08G28G13G19G23G11
  11379807.15646   8860240.26443  23188719.6094                   23188718.7384
  -6975545.77348  -5421788.69646  20554857.7504                   20554855.3524
 -10255837.29347  -7976084.01545  21868431.9924                   21868430.4414
  -7034745.88747  -5479398.97045  22873414.2034                   22873411.8324
   6075764.95348   4736553.24946  21060574.8914                   21060573.4104
   2137872.31647   1674266.39946  21344445.2894                   21344442.2704
  12689144.72747   9877240.12144  22862783.2114                   22862781.0744
  -8568476.69947  -6672338.95545  22538256.6024                   22538255.0434
 11  8 12 17 59  0.0000000  0  8G03G07G08G28G13G19G23G11
  11415281.51246   8887882.59643  23195470.1644                   23195469.6884
  -7010267.77048  -5448844.80046  20548250.0864                   20548247.5704
 -10308039.57047  -8016761.11645  21858497.6254                   21858496.5634
  -7072966.52747  -5509181.26645  22866140.2894                   22866138.9614
   6099248.79748   4754852.33546  21065043.8834                   21065041.8324
   2149721.17648   1683499.25046  21346700.3204                   21346697.0984
  12727671.07847   9907260.59744  22870113.9454                   22870112.4614
  -8619424.96947  -6712038.89244  22528560.8444                   22528559.8134
 11  8 12 17 59 15.0000000  0  8G03G07G08G28G13G19G23G11
  11450806.71947   8915564.51343  23202230.1644                   23202229.6254
  -7044926.91048  -5475851.91546  20541654.7664                   20541652.1174
 -10360226.10547  -8057425.94745  21848567.0784                   21848565.8954
  -7111141.80147  -5538928.19745  22858875.9064                   22858874.6174
   6122839.99648   4773235.05746  21069532.9454                   21069531.4104
   2161697.81648   1692831.69446  21348979.5784                   21348975.9494
  12766238.09047   9937312.74944  22877453.9064                   22877450.8634
  -8670308.91047  -6751688.70544  22518878.2584                   22518876.8594
 11  8 12 17 59 30.0000000  0  8G03G07G08G28G13G19G23G11
  11486381.31646   8943284.95243  23208999.6414                   23208999.3164
  -7079523.84848  -5502810.58146  20535070.9614                   20535068.4184
 -10412397.61347  -8098079.05745  21838639.5004                   21838638.1134
  -7149272.82447  -5568640.68445  22851620.1254                   22851618.2704
   6146537.30148   4791700.44646  21074042.3444                   21074041.0234
   2173801.10548   1702262.81946  21351282.7344                   21351279.0744
  12804844.26247   9967395.41744  22884800.8834                   22884798.8284
  -8721129.14147  -6791288.88844  22509207.3674                   22509206.0744
 11  8 12 17 59 45.0000000  0  8G03G07G08G28G13G19G23G11
  13097422.85246  10198642.01443  23515570.8524                   23515570.1764
  -5538635.92248  -4302118.67846  20828292.0234                   20828289.7774
  -8889130.53947  -6911117.68645  22128507.1804                   22128505.8444
  -5611937.07847  -4370716.72645  23144164.6334                   23144163.0004
   7745758.70748   6037846.97946  21378364.3284                   21378362.8984
   3761449.92248   2939391.75446  21653402.3444                   21653398.6644
  14418906.78947  11225106.39944  23191946.1724                   23191943.9734
  -7196461.99247  -5603236.53645  22799341.7664                   22799340.5984
 11  8 12 18  0  0.0000000  0  8G03G07G08G28G13G19G23G11
  13133097.68046  10226440.52643  23522359.5554                   23522359.6294
  -5573105.68448  -4328978.24146  20821733.0164                   20821730.7194
  -8941269.54347  -6951745.47745  22118585.7344                   22118584.3554
  -5649977.82447  -4400358.82945  23136925.8984                   23136924.8054
   7769669.13348   6056478.44246  21382914.3754                   21382912.6954
   3773807.64147   2949021.13446  21655753.7814                   21655750.2424
  14457592.49247  11255251.02244  23199307.6174                   23199305.8954
  -7247151.84847  -5642735.11844  22789695.9534                   22789694.7934
 11  8 12 18  0 15.0000000  0  8G03G07G08G28G13G19G23G11
  13168823.26646  10254278.64243  23529157.4774                   23529157.9844
  -5607510.38348  -4355787.09946  20815186.1024                   20815183.6844
  -8993390.80547  -6992359.43745  22108667.3364                   22108666.0514
  -5687972.41447  -4429965.00545  23129696.0394                   23129694.9184
   7793686.71548   6075193.40646  21387484.9774                   21387483.4534
   3786293.27348   2958750.18846  21658129.8754                   21658126.1884
  14496318.35947  11285426.93044  23206677.8444                   23206675.4534
  -7297774.73847  -5682181.53245  22780062.7034                   22780061.3404
 11  8 12 18  0 30.0000000  0  8G03G07G08G28G13G19G23G11
  13204597.19147  10282154.32544  23535965.8524                   23535965.3244
  -5641851.86748  -4382546.69946  20808650.8204                   20808648.5234
  -9045496.17647  -7032961.01745  22098751.8524                   22098750.5514
  -5725922.92647  -4459536.81245  23122474.1414                   23122472.5594
   7817809.28148   6093990.18746  21392075.1024                   21392073.5824
   3798904.50047   2968577.11046  21660529.4224                   21660525.5984
  14535082.24647  11315632.51445  23214054.2114                   23214052.2034
  -7348332.28147  -5721577.01645  22770442.2584                   22770440.9804
 11  8 12 18  0 45.0000000  0  8G03G07G08G28G13G19G23G11
  13240419.70346  10310068.00343  23542782.4924                   23542781.8484
  -5676129.11748  -4409256.24646  20802128.3284                   20802126.1604
  -9097584.72747  -7073549.49545  22088839.6644                   22088838.2894
  -5763828.68747  -4489073.74145  23115260.9774                   23115259.2974
   7842037.18448   6112869.03846  21396685.3914                   21396683.9774
   3811641.83247   2978502.28646  21662953.6724                   21662949.7734
  14573884.48047  11345867.93144  23221437.8834                   23221435.8284
  -7398823.39147  -5760920.71244  22760833.2114                   22760832.2734
 11  8 12 18  1  0.0000000  0  8G03G07G08G28G13G19G23G11
  13276288.66046  10338017.81043  23549607.7584                   23549608.0004
  -5710343.75448  -4435917.00546  20795617.7274                   20795615.1564
  -9149658.10547  -7114126.15345  22078930.4304                   22078929.0704
  -5801691.77347  -4518577.43445  23108055.9614                   23108054.6524
   7866368.12948   6131828.17846  21401315.4384                   21401313.9384
   3824502.99247   2988523.96546  21665400.7504                   21665397.1254
  14612722.74647  11376131.44144  23228828.6884                   23228826.9574
  -7449249.58247  -5800213.82644  22751237.9064                   22751236.7034
 11  8 12 18  1 15.0000000  0  8G03G07G08G28G13G19G23G11
  13312206.60547  10366005.78644  23556442.5784                   23556442.8554
  -5744492.74648  -4462526.60746  20789119.1564                   20789116.6954
  -9201713.19147  -7154688.55045  22069024.9694                   22069023.1454
  -5839509.30547  -4548045.63345  23100859.4614                   23100858.0634
   7890804.68848   6150869.62046  21405965.7114                   21405963.9654
   3837490.79747   2998644.30446  21667872.2274                   21667868.2154
  14651599.75047  11406425.14144  23236226.6804                   23236225.0864
  -7499607.60547  -5839453.84844  22741655.5634                   22741653.7774
 11  8 12 18  1 30.0000000  0  8G03G07G08G28G13G19G23G11
  13348169.77746  10394029.00043  23563286.7274                   23563286.4804
  -5778579.06648  -4489087.37846  20782632.7974                   20782630.5744
  -9253753.01648  -7195239.04745  22059122.1644                   22059120.6054
  -5877284.69147  -4577480.98045  23093671.2734                   23093669.3554
   7915343.28948   6169990.58846  21410635.2344                   21410633.4654
   3850601.46548   3008860.41146  21670367.3134                   21670363.5434
  14690511.59847  11436745.97944  23243631.3364                   23243630.0204
  -7549900.42247  -5878643.05344  22732084.5084                   22732083.2504
 11  8 12 18  1 45.0000000  0  8G03G07G08G28G13G19G23G11
  13384180.89147  10422089.61043  23570139.3054                   23570139.1024
  -5812599.72348  -4515596.98146  20776158.6954                   20776156.7154
  -9305774.62147  -7235775.36545  22049222.3674                   22049220.8634
  -5915015.19147  -4606881.36545  23086490.8914                   23086489.8404
   7939986.41048   6189192.98746  21415324.8134                   21415323.0044
   3863837.60248   3019174.26746  21672886.0004                   21672882.5944
  14729460.97347  11467096.05844  23251043.1484                   23251041.5004
  -7600124.77347  -5917778.90945  22722526.9384                   22722525.8594
 11  8 12 18  2  0.0000000  0  8G03G07G08G28G13G19G23G11
  13420238.29347  10450186.32943  23577000.9924                   23577000.6524
  -5846555.66048  -4542056.15846  20769697.2344                   20769694.6764
  -9357779.13747  -7276298.36445  22039326.5944                   22039324.8204
  -5952702.12147  -4636247.78645  23079319.5704                   23079317.8834
   7964732.35548   6208475.51046  21420033.8204                   21420032.1094
   3877197.55148   3029584.60246  21675428.4384                   21675424.3594
  14768446.07447  11497473.99044  23258462.0164                   23258460.2424
  -7650281.54747  -5956862.10645  22712982.7424                   22712981.7814
 11  8 12 18  2 15.0000000  0  8G03G07G08G28G13G19G23G11
  13456341.37147  10478318.55043  23583870.3754                   23583871.1644
  -5880446.94948  -4568464.95446  20763248.0554                   20763245.5704
  -9409766.53547  -7316808.00746  22029433.7194                   22029432.1644
  -5990346.09847  -4665580.73844  23072155.8524                   23072154.1334
   7989580.62948   6227837.77246  21424762.3364                   21424760.5634
   3890680.93847   3040091.12946  21677994.2344                   21677990.7114
  14807466.37147  11527879.34444  23265887.4614                   23265885.6254
  -7700370.49647  -5995892.45644  22703450.9304                   22703450.0904
 11  8 12 18  2 30.0000000  0  8G03G07G08G28G13G19G23G11
  13492489.39847  10506485.81744  23590749.7584                   23590750.0124
  -5914273.72348  -4594823.48446  20756810.9064                   20756808.5634
  -9461736.94147  -7357304.44145  22019544.0314                   22019542.4694
  -6027947.35947  -4694880.40944  23065000.3594                   23064998.7074
   8014530.62948   6247279.30546  21429510.1724                   21429508.3204
   3904287.00847   3050693.24746  21680583.0234                   21680579.4534
  14846521.14847  11558311.59944  23273319.1644                   23273317.4454
  -7750391.84847  -6034870.13144  22693932.8284                   22693931.3634
 11  8 12 18  2 45.0000000  0  8G03G07G08G28G13G19G23G11
  13528683.49247  10534688.97844  23597636.6414                   23597637.0044
  -5948034.28948  -4621130.42146  20750386.3984                   20750384.1564
  -9513688.70348  -7397786.32145  22009657.8754                   22009656.1414
  -6065504.61347  -4724145.77345  23057853.3754                   23057852.2154
   8039583.37948   6266800.89546  21434277.3284                   21434275.3554
   3918016.98847   3061391.92746  21683195.8134                   21683192.2854
  14885611.42647  11588771.45544  23280758.3364                   23280756.4774
  -7800343.69147  -6073793.63744  22684426.9774                   22684425.6484
 11  8 12 18  3  0.0000000  0  8G03G07G08G28G13G19G23G11
  13564921.41847  10562926.27743  23604533.1174                   23604532.9804
  -5981730.16448  -4647386.94946  20743974.1884                   20743971.9574
  -9565623.14147  -7438254.70745  21999775.1644                   21999773.5904
  -6103019.55947  -4753378.18844  23050714.9454                   23050712.6954
   8064736.90648   6286401.02346  21439064.0004                   21439062.1764
   3931868.89147   3072185.60046  21685831.6414                   21685828.3594
  14924735.13747  11619257.36544  23288202.8134                   23288201.6564
  -7850227.40247  -6112664.04944  22674934.2814                   22674933.7194
 11  8 12 18  3 15.0000000  0  8G03G07G08G28G13G19G23G11
  13601205.05947  10591199.24143  23611437.7584                   23611437.7544
  -6015358.84048  -4673591.11346  20737574.9304                   20737572.8954
  -9617537.90248  -7478707.76845  21989895.8524                   21989894.5744
  -6140490.07447  -4782575.98745  23043584.9534                   23043583.1844
   8089993.32848   6306081.31646  21443870.1334                   21443868.3834
   3945844.55947   3083075.72046  21688491.1724                   21688487.9884
  14963894.25847  11649770.91644  23295654.7344                   23295652.5554
  -7900040.25447  -6151479.24545  22665455.3754                   22665453.7624
 11  8 12 18  3 30.0000000  0  9G03G24G07G08G28G13G19G23G11
  13637531.91447  10619505.85643  23618350.5474                   23618350.2194
   6169840.60956   4816414.17253  24151451.6254                   24151454.1134
  -6048922.16448  -4699744.35446  20731188.1024                   20731185.7384
  -9669434.95347  -7519147.00945  21980020.2194                   21980018.9964
  -6177918.57047  -4811741.04245  23036462.1724                   23036460.1724
   8115349.73447   6325839.51646  21448695.3444                   21448693.9614
   3959941.66047   3094060.46446  21691173.7974                   21691170.0004
  15003086.08647  11680309.92044  23303112.9844                   23303110.8054
  -7949784.04347  -6190240.61745  22655989.5394                   22655988.0784
 11  8 12 18  3 45.0000000  0  9G03G24G07G08G28G13G19G23G11
  13673898.80147  10647843.66943  23625271.2034                   23625270.2544
   6115920.00046   4774398.09743  24141191.0554                   24141193.4264
  -6082423.08648  -4725848.96946  20724813.2504                   20724810.7154
  -9721317.24647  -7559574.77345  21970147.1254                   21970146.1174
  -6215308.20747  -4840875.78845  23029347.1644                   23029345.5784
   8140802.73048   6345672.98446  21453539.0944                   21453537.4304
   3974156.65248   3105137.06646  21693879.0234                   21693875.3594
  15042307.25447  11710871.75044  23310576.8054                   23310575.1914
  -7999461.45347  -6228950.29445  22646536.2114                   22646535.1644
 11  8 12 18  4  0.0000000  0  9G03G24G07G08G28G13G19G23G11
  13710304.94547  10676212.07344  23632199.3674                   23632198.6804
   6061994.54346   4732378.24943  24130929.7504                   24130931.9494
  -6115861.66048  -4751905.00546  20718450.1024                   20718447.5084
  -9773184.91848  -7599991.13545  21960277.4694                   21960275.9884
  -6252659.41047  -4869980.62145  23022239.5704                   23022237.5084
   8166351.81648   6365581.32046  21458400.9774                   21458399.5124
   3988489.14148   3116305.21746  21696606.3054                   21696602.7504
  15081557.00447  11741455.91144  23318045.2274                   23318043.6954
  -8049072.57047  -6267608.32245  22637095.4064                   22637094.1994
 11  8 12 18  4 15.0000000  0  9G03G24G07G08G28G13G19G23G11
  13746750.42247  10704611.09843  23639134.2274                   23639134.1914
   6008065.12146   4690355.40143  24120667.5394                   24120669.4614
  -6149237.42248  -4777912.09946  20712098.8134                   20712096.0354
  -9825037.26647  -7640395.55245  21950410.0084                   21950408.8364
  -6289971.78147  -4899055.16645  23015139.4614                   23015136.7424
   8191996.96947   6385564.52246  21463280.6954                   21463279.4494
   4002938.92248   3127564.77046  21699355.8914                   21699351.8984
  15120835.32047  11772062.30744  23325520.0394                   23325518.4304
  -8098616.57447  -6306214.03944  22627667.7734                   22627666.6914
 11  8 12 18  4 30.0000000  0  9G03G24G07G08G28G13G19G23G11
  13783236.69947  10733041.93743  23646076.9304                   23646076.7234
   5954133.94546   4648331.05943  24110404.7274                   24110406.0044
  -6182548.05548  -4803868.42346  20705760.0004                   20705757.7464
  -9876872.17248  -7680786.38245  21940546.2734                   21940544.6954
  -6327243.57447  -4928098.11845  23008046.3134                   23008045.1334
   8217739.79348   6405623.83446  21468179.5864                   21468178.2544
   4017507.80947   3138917.14346  21702128.2664                   21702124.7304
  15160143.93047  11802692.32844  23333000.2734                   23332998.3444
  -8148091.26647  -6344765.72845  22618252.7034                   22618251.4104
 11  8 12 18  4 45.0000000  0  9G03G24G07G08G28G13G19G23G11
  13819762.82846  10761503.88943  23653028.7194                   23653027.2664
   5900200.76246   4606305.15243  24100141.4614                   24100142.7034
  -6215794.02048  -4829774.37346  20699433.9384                   20699430.9964
  -9928690.09848  -7721163.97145  21930685.7814                   21930684.0314
  -6364475.42247  -4957109.93645  23000961.6094                   23000959.6684
   8243579.37548   6425758.54546  21473096.9064                   21473095.1054
   4032194.82448   3150361.55646  21704923.3754                   21704919.9064
  15199481.78147  11833345.10144  23340486.2344                   23340484.6334
  -8197496.81247  -6383263.55545  22608851.8674                   22608849.6484
 11  8 12 18  5  0.0000000  0  9G03G24G07G08G28G13G19G23G11
  13856329.04346  10789996.97843  23659986.0944                   23659985.9844
   5846266.40246   4564278.38143  24089877.4614                   24089879.7854
  -6248974.57447  -4855629.34746  20693119.4064                   20693117.0474
  -9980490.35247  -7761527.81146  21920828.8444                   21920826.7304
  -6401666.92647  -4986090.31745  22993884.1254                   22993882.1294
   8269515.79347   6445968.70646  21478032.5004                   21478030.7034
   4047000.21147   3161898.21346  21707741.1254                   21707736.9494
  15238849.09847  11864020.86544  23347977.2344                   23347976.0004
  -8246832.26647  -6421706.77145  22599462.7424                   22599461.8714
 11  8 12 18  5 15.0000000  0  9G03G24G07G08G28G13G19G23G11
  13892934.02346  10818520.35043  23666952.2194                   23666951.5944
   5792330.46546   4522250.40043  24079614.4304                   24079616.6484
  -6282090.18748  -4881433.72246  20686817.6174                   20686815.4844
 -10032273.53948  -7801878.34545  21910974.4384                   21910973.4144
  -6438819.16047  -5015040.10745  22986814.1254                   22986812.8284
   8295547.93047   6466253.45146  21482986.0554                   21482984.7814
   4061922.79348   3173526.18346  21710580.3914                   21710576.8794
  15278244.51647  11894718.50044  23355474.3134                   23355472.9774
  -8296098.27747  -6460095.87145  22590088.1094                   22590086.5664
 11  8 12 18  5 30.0000000  0  9G03G24G07G08G28G13G19G23G11
  13929579.45746  10847075.14743  23673925.3444                   23673924.7734
   5738395.19546   4480222.96843  24069350.8284                   24069353.0394
  -6315138.89548  -4907185.96646  20680528.5554                   20680526.4224
 -10084037.44147  -7842213.83845  21901124.2894                   21901122.6884
  -6475930.36347  -5043957.91245  22979752.0944                   22979750.3134
   8321677.42248   6486614.05846  21487958.6094                   21487957.2114
   4076964.30548   3185246.83546  21713442.3984                   21713439.0664
  15317669.57847  11925439.26244  23362976.6174                   23362974.9534
  -8345292.43047  -6498428.96145  22580727.0394                   22580725.5354
 11  8 12 18  5 45.0000000  0  9G03G24G07G08G28G13G19G23G11
  13966263.54346  10875660.14143  23680906.1094                   23680905.8164
   5684459.61746   4438195.19743  24059086.9064                   24059089.5124
  -6348121.81648  -4932886.94346  20674252.2194                   20674250.1094
 -10135783.34448  -7882535.32545  21891277.3914                   21891275.5394
  -6513002.05147  -5072844.93545  22972697.7194                   22972695.7424
   8347902.33247   6507049.02446  21492948.8984                   21492947.6094
   4092122.80148   3197058.64046  21716327.9304                   21716323.6564
  15357122.55947  11956181.76744  23370484.2814                   23370482.3914
  -8394415.86747  -6536706.97145  22571378.8134                   22571377.3404
 11  8 12 18  6  0.0000000  0  9G03G24G07G08G28G13G19G23G11
  14002988.22346  10904276.73543  23687894.8444                   23687894.3404
   5630526.25846   4396169.20943  24048823.6484                   24048826.4494
  -6381036.41448  -4958534.68246  20667989.0004                   20667986.3404
 -10187508.60548  -7922840.71645  21881433.9614                   21881432.4844
  -6550031.82447  -5101699.29145  22965651.0704                   22965649.7584
   8374224.88747   6527560.06346  21497957.6564                   21497956.4654
   4107400.46947   3208963.29046  21719234.6724                   21719230.8594
  15396605.45747  11986947.55844  23377997.6724                   23377996.1914
  -8443465.78547  -6574927.68145  22562045.2114                   22562043.8914
 11  8 12 18  6 15.0000000  0  9G03G24G07G08G28G13G19G23G11
  14039752.21946  10932924.02443  23694890.5944                   23694890.1604
   5576594.75047   4354144.68443  24038560.9774                   24038563.1134
  -6413883.21947  -4984129.59646  20661738.3444                   20661735.8714
 -10239213.89548  -7963130.53545  21871594.9384                   21871593.4064
  -6587020.60547  -5130521.70345  22958612.2034                   22958610.6374
   8400643.65247   6548146.07646  21502985.1414                   21502984.1174
   4122795.96948   3220959.78946  21722163.9064                   21722160.5124
  15436117.09047  12017735.76044  23385516.5784                   23385515.1764
  -8492442.60547  -6613091.43045  22552725.0314                   22552724.0044
 11  8 12 18  6 30.0000000  0  9G03G24G07G08G28G13G19G23G11
  14076555.96546  10961602.18543  23701894.7034                   23701893.9454
   5522665.97346   4312122.28543  24028298.4614                   24028300.7034
  -6446661.51647  -5009671.11946  20655500.7584                   20655498.3594
 -10290898.30948  -8003404.09945  21861759.4064                   21861757.9884
  -6623967.91447  -5159311.80244  22951581.6644                   22951580.4024
   8427158.89147   6568807.27046  21508030.7344                   21508029.5824
   4138309.80948   3233048.48146  21725116.9454                   21725112.7974
  15475657.55547  12048546.42544  23393040.8284                   23393039.6524
  -8541345.57847  -6651197.63145  22543419.4384                   22543417.5394
 11  8 12 18  6 45.0000000  0  9G03G24G07G08G28G13G19G23G11
  14113397.78146  10990310.13843  23708904.7424                   23708905.1134
   5468738.81646   4270101.19143  24018037.2194                   24018038.3594
  -6479372.41447  -5035160.13646  20649276.2734                   20649273.9414
 -10342563.01248  -8043662.30745  21851927.9534                   21851927.3984
  -6660875.44547  -5188070.91545  22944558.5554                   22944557.3284
   8453768.81347   6589542.23546  21513094.9224                   21513093.3484
   4153940.22748   3245228.00346  21728091.0554                   21728087.1684
  15515225.08647  12079378.16944  23400570.1094                   23400569.1724
  -8590175.69547  -6689247.07845  22534127.1414                   22534125.3754
 11  8 12 18  7  0.0000000  0  9G03G24G07G08G28G13G19G23G11
  14150278.92646  11019048.67743  23715923.2504                   23715922.8014
   5414815.34046   4228082.85743  24007774.8594                   24007777.7854
  -6512014.12147  -5060595.23446  20643064.8524                   20643062.3914
 -10394206.34848  -8083903.85746  21842100.7424                   21842099.6804
  -6697741.64147  -5216797.80845  22937543.1954                   22937541.4344
   8480474.68047   6610351.96146  21518176.6954                   21518175.4804
   4169688.54348   3257499.42346  21731087.4144                   21731084.2424
  15554821.04747  12110232.05044  23408104.7814                   23408104.3874
  -8638930.87147  -6727238.13145  22524849.2974                   22524847.8244
 11  8 12 18  7 15.0000000  0  9G03G24G07G08G28G13G19G23G11
  14187196.72746  11047815.76743  23722949.2034                   23722947.8594
   5360893.85246   4186066.14043  23997513.6724                   23997516.7504
  -6544588.51648  -5085977.87546  20636865.9144                   20636863.5664
 -10445830.11347  -8124130.15545  21832277.2034                   21832275.7424
  -6734568.64147  -5245494.15645  22930535.3754                   22930533.4694
   8507274.21147   6631234.67245  21523276.5314                   21523274.6804
   4185552.28948   3269860.76546  21734106.6884                   21734102.4224
  15594442.84047  12141106.11944  23415645.3364                   23415644.3054
  -8687612.90247  -6765172.18245  22515585.1804                   22515583.8914
 11  8 12 18  7 30.0000000  0  9G03G24G07G08G28G13G19G23G11
  14224153.28146  11076613.06343  23729981.3054                   23729980.8204
   5306977.03146   4144053.07443  23987254.3054                   23987256.9104
  -6577093.01247  -5111306.05546  20630680.6644                   20630678.3524
 -10497431.55947  -8164339.06446  21822457.6644                   21822456.4064
  -6771354.15247  -5274158.19945  22923535.1484                   22923533.5354
   8534169.44147   6652191.96245  21528394.3984                   21528393.0164
   4201533.61748   3282313.72546  21737147.6884                   21737143.5744
  15634092.55547  12172001.89844  23423190.4534                   23423189.1374
  -8736218.87947  -6803046.96845  22506336.1484                   22506334.1214
 11  8 12 18  7 45.0000000  0  9G03G24G07G08G28G13G19G23G11
  14261146.29746  11105438.76843  23737021.1414                   23737020.3874
   5253063.41447   4102042.50143  23976995.4224                   23976997.9804
  -6609529.19147  -5136580.99146  20624508.2974                   20624505.7304
 -10549012.44948  -8204531.96545  21812642.0474                   21812641.1884
  -6808100.26647  -5302791.53945  22916542.2274                   22916540.6804
   8561157.94947   6673221.93146  21533530.3444                   21533528.8324
   4217630.09048   3294856.42746  21740210.5554                   21740207.0434
  15673767.95747  12202917.67644  23430740.7504                   23430739.5314
  -8784750.53947  -6840863.82945  22497100.6174                   22497099.1134
 11  8 12 18  8  0.0000000  0  9G03G24G07G08G28G13G19G23G11
  14298175.97346  11134293.06343  23744066.8754                   23744066.8284
   5199153.75046   4060034.98043  23966736.9304                   23966739.3554
  -6641896.38747  -5161802.19246  20618349.1644                   20618346.4414
 -10600572.16848  -8244708.37145  21802830.3444                   21802829.4614
  -6844806.75047  -5331393.97545  22909557.2814                   22909555.6214
   8588239.97747   6694324.76945  21538683.6024                   21538682.4884
   4233841.89548   3307488.98946  21743295.6564                   21743291.8244
  15713469.02747  12233853.52444  23438295.2974                   23438294.5634
  -8833207.08247  -6878622.17545  22487879.7034                   22487878.2664
 11  8 12 18  8 15.0000000  0  9G03G24G07G08G28G13G19G23G11
  14335243.07046  11163176.46443  23751120.9454                   23751120.0514
   5145249.41847   4018031.64543  23956478.9304                   23956481.3244
  -6674193.20747  -5186968.53946  20612203.2814                   20612200.5634
 -10652109.49248  -8284867.30946  21793023.2734                   21793022.0394
  -6881472.45347  -5359964.63745  22902580.4064                   22902578.6684
   8615416.03547   6715500.87945  21543855.3674                   21543853.8954
   4250169.75048   3320211.98046  21746403.0394                   21746398.8794
  15753196.48047  12264809.90344  23445855.6024                   23445854.2114
  -8881587.12147  -6916320.88245  22478673.1884                   22478671.7544
 11  8 12 18  8 30.0000000  0  9G03G24G07G08G28G13G19G23G11
  14372347.20347  11192088.75343  23758181.2814                   23758181.1024
   5091350.93847   3976032.83843  23946222.1484                   23946224.7074
  -6706419.50447  -5212079.94346  20606070.4694                   20606068.3134
 -10703624.00848  -8325008.49746  21783220.4304                   21783219.1884
  -6918097.40647  -5388503.56845  22895610.4064                   22895608.9494
   8642686.18047   6736750.29846  21549044.7584                   21549043.5204
   4266613.68048   3333025.40546  21749531.9774                   21749528.3594
  15792950.03547  12295786.60044  23453420.2034                   23453419.0164
  -8929890.15647  -6953959.60445  22469481.5084                   22469480.3284
 11  8 12 18  8 45.0000000  0  9G03G24G07G08G28G13G19G23G11
  14409488.01247  11221029.59644  23765250.0004                   23765250.0434
   5037458.53147   3934038.83243  23935966.7974                   23935968.8914
  -6738575.17647  -5237136.31646  20599951.6484                   20599949.1134
 -10755115.76248  -8365131.92346  21773421.9064                   21773420.8714
  -6954681.87547  -5417010.93245  22888648.7814                   22888647.2544
   8670049.70747   6758072.49146  21554252.0474                   21554250.0394
   4283173.08647   3345928.83346  21752683.3524                   21752679.2424
  15832729.18447  12326783.23144  23460990.4924                   23460988.9184
  -8978115.96147  -6991538.14645  22460305.0164                   22460302.9804
 11  8 12 18  9  0.0000000  0  9G03G24G07G08G28G13G19G23G11
  14446664.59446  11249998.35644  23772323.5864                   23772324.1884
   4983571.99647   3892049.36243  23925712.4384                   23925715.0434
  -6770660.53947  -5262137.89746  20593845.8524                   20593843.5704
 -10806585.01648  -8405237.83645  21763627.6414                   21763626.3014
  -6991226.54347  -5445487.27945  22881694.5554                   22881692.9144
   8697505.77347   6779466.80845  21559476.6724                   21559475.4264
   4299847.19148   3358921.62546  21755856.0864                   21755852.5744
  15872533.14547  12357799.20544  23468565.0474                   23468562.8164
  -9026264.68047  -7029056.63245  22451142.1254                   22451140.2194
 11  8 12 18  9 15.0000000  0  9G03G24G07G08G28G13G19G23G11
  14483877.32046  11278995.25344  23779405.3204                   23779404.9104
   4929692.34447   3850065.22843  23915459.5084                   23915462.3014
  -6802674.75447  -5287084.03846  20587753.6954                   20587751.3204
 -10858031.06648  -8445325.66545  21753837.7274                   21753836.5784
  -7027731.00048  -5473932.29745  22874748.2344                   22874745.7584
   8725054.85247   6800933.57245  21564719.0474                   21564717.9964
   4316636.18848   3372003.95546  21759050.7894                   21759047.1334
  15912361.99647  12388834.58344  23476144.0944                   23476142.5044
  -9074335.32847  -7066514.28045  22441994.7194                   22441992.8554
 11  8 12 18  9 30.0000000  0  9G03G24G07G08G28G13G19G23G11
  14521126.68046  11308020.67643  23786493.7274                   23786493.1724
   4875820.99647   3808087.58143  23905208.2274                   23905210.6524
  -6834616.63347  -5311973.82046  20581675.4064                   20581673.0784
 -10909452.56248  -8485394.35545  21744052.2114                   21744051.3554
  -7064194.22347  -5502345.18345  22867809.3284                   22867807.2234
   8752697.25047   6822473.06546  21569979.3914                   21569977.5864
   4333540.77748   3385176.33846  21762267.8834                   21762263.9454
  15952216.43847  12419889.92244  23483728.1884                   23483726.9344
  -9122326.55147  -7103910.02745  22432861.8834                   22432860.1764
 11  8 12 18  9 45.0000000  0  9G03G24G07G08G28G13G19G23G11
  14558412.24647  11337074.34143  23793589.0784                   23793588.5664
   4821958.22347   3766116.61543  23894958.1254                   23894960.4414
  -6866485.96148  -5336807.05646  20575611.1254                   20575608.6334
 -10960849.25048  -8525443.72746  21734271.9774                   21734270.8284
  -7100616.34847  -5530726.05445  22860878.2034                   22860876.7034
   8780432.59047   6844084.98845  21575257.3054                   21575255.7344
   4350560.60548   3398438.53046  21765506.5394                   21765503.0664
  15992096.05947  12450964.85544  23491316.8834                   23491316.2194
  -9170238.09847  -7141243.67545  22423744.4454                   22423743.2624
 11  8 12 18 10  0.0000000  0  9G03G24G07G08G28G13G19G23G11
  14595730.80146  11366153.73643  23800690.2894                   23800689.9654
   4768101.53147   3724150.41744  23884709.5234                   23884712.8164
  -6898285.21147  -5361585.69646  20569559.8444                   20569557.3444
 -11012223.77048  -8565475.79346  21724495.8674                   21724494.9144
  -7137000.35247  -5559077.22945  22853954.4614                   22853952.5124
   8808257.64847   6865766.81146  21580552.3914                   21580550.7424
   4367692.57448   3411788.09546  21768766.5004                   21768763.3594
  16031997.66447  12482056.93444  23498910.2894                   23498908.9264
  -9218072.45347  -7178517.18345  22414642.1414                   22414640.6054
 11  8 12 18 10 15.0000000  0  9G03G24G07G08G28G13G19G23G11
  14633082.88746  11395259.20743  23807797.6884                   23807797.8054
   4714252.13347   3682189.86843  23874462.6644                   23874465.1174
  -6930013.51248  -5386309.04646  20563521.8444                   20563519.7734
 -11063575.03548  -8605489.76046  21714723.7274                   21714722.5904
  -7173345.60947  -5587398.18445  22847037.7974                   22847036.4454
   8836172.92247   6887518.93346  21585864.3914                   21585863.0394
   4384937.02048   3425225.32346  21772048.0864                   21772044.6644
  16071921.64847  12513166.44944  23506507.6094                   23506506.2234
  -9265828.42247  -7215729.64245  22405554.6724                   22405553.2034
 11  8 12 18 10 30.0000000  0  9G03G24G07G08G28G13G19G23G11
  14670469.72746  11424391.76243  23814911.8284                   23814912.2974
   4660411.78547   3640236.39843  23864216.8204                   23864219.3324
  -6961669.10247  -5410975.73546  20557498.1884                   20557495.8714
 -11114901.47748  -8645484.38846  21704957.1174                   21704955.3404
  -7209650.77747  -5615687.90145  22840129.1334                   22840127.8714
   8864179.48447   6909342.18346  21591193.8984                   21591192.3054
   4402295.11348   3438751.09646  21775351.0634                   21775347.9414
  16111869.05147  12544294.17844  23514108.9924                   23514108.0474
  -9313504.09047  -7252879.49445  22396482.2584                   22396479.9064
 11  8 12 18 10 45.0000000  0  9G03G24G07G08G28G13G19G23G11
  14707891.32046  11453551.46943  23822033.3754                   23822034.0594
   4606581.08247   3598290.44844  23853973.7814                   23853975.4924
  -6993251.56247  -5435585.45146  20551488.0784                   20551485.7544
 -11166202.55148  -8685459.24646  21695194.3524                   21695193.2544
  -7245915.72747  -5643946.29345  22833228.2194                   22833226.6994
   8892277.23047   6931236.49446  21596540.7344                   21596539.2584
   4419766.73048   3452365.33446  21778676.2034                   21778672.5314
  16151839.80547  12575440.13844  23521715.4304                   23521714.2424
  -9361099.03147  -7289966.45145  22387424.6804                   22387423.6884
 11  8 12 18 11  0.0000000  0  9G03G24G07G08G28G13G19G23G11
  14745346.66446  11482737.35343  23829160.6884                   23829161.5704
   4552759.91847   3556351.85944  23843731.2114                   23843734.0554
  -7024761.09047  -5460138.32746  20545492.2894                   20545489.8244
 -11217478.62148  -8725414.61546  21685436.8594                   21685435.8484
  -7282141.02047  -5672173.76545  22826335.0704                   22826333.6644
   8920465.35247   6953201.22845  21601904.5394                   21601903.0434
   4437351.18848   3466067.47946  21782021.9224                   21782019.0474
  16191833.08247  12606603.63944  23529326.3054                   23529325.2384
  -9408613.27047  -7326990.53145  22378382.9694                   22378382.2894
 11  8 12 18 11 15.0000000  0  9G03G24G07G08G28G13G19G23G11
  14782837.55946  11511951.02644  23836295.5944                   23836296.0514
   4498950.97347   3514422.83644  23833492.1254                   23833494.7584
  -7056195.07847  -5484632.34946  20539510.6564                   20539508.0664
 -11268726.95348  -8765348.38046  21675685.0704                   21675683.4184
  -7318324.47747  -5700368.66345  22819449.6094                   22819447.6844
   8948745.78547   6975237.89445  21607286.2974                   21607285.6484
   4455050.45748   3479859.10746  21785390.2424                   21785386.8204
  16231850.84447  12637786.24744  23536940.7034                   23536940.1214
  -9456044.06247  -7363949.57445  22369357.4534                   22369356.8094
 11  8 12 18 11 30.0000000  0  8G24G07G08G28G13G19G23G11
   4445151.55547   3472501.28044  23823254.4304                   23823256.6374
  -7087556.52747  -5509069.84646  20533542.5394                   20533540.1994
 -11319950.60948  -8805262.90146  21665937.3914                   21665935.9304
  -7354469.26247  -5728533.41945  22812571.4774                   22812569.3484
   8977115.16847   6997343.85445  21612684.6024                   21612683.4844
   4472861.07448   3493737.49846  21788779.3914                   21788776.2194
  16271889.58647  12668985.18044  23544560.2274                   23544559.6914
  -9503394.25047  -7400845.80545  22360347.1414                   22360346.0784
 11  8 12 18 11 45.0000000  0  8G24G07G08G28G13G19G23G11
   4391362.91847   3430588.07544  23813018.1804                   23813020.6884
  -7118844.29347  -5533449.91546  20527588.7584                   20527586.4384
 -11371148.28148  -8845157.19146  21656194.5864                   21656193.1334
  -7390574.62147  -5756667.44245  22805701.0084                   22805699.1564
   9005573.85547   7019519.42345  21618099.9304                   21618098.9344
   4490783.58648   3507703.08146  21792190.1884                   21792186.4964
  16311949.80947  12700200.80644  23552184.0084                   23552183.0744
  -9550662.67647  -7437678.33745  22351352.7814                   22351350.6844
 11  8 12 18 12  0.0000000  0  8G24G07G08G28G13G19G23G11
   4337588.00847   3388685.56644  23802785.4844                   23802788.2194
  -7150055.64548  -5557770.46446  20521649.4614                   20521647.2384
 -11422317.27048  -8885029.14146  21646457.5314                   21646456.2584
  -7426637.96147  -5784768.74645  22798838.3524                   22798836.2894
   9034124.26647   7041766.44645  21623533.0084                   21623531.9384
   4508820.23048   3521757.58846  21795622.7194                   21795619.1564
  16352033.78547  12731434.97444  23559811.3594                   23559810.4844
  -9597846.43047  -7474444.89645  22342373.7274                   22342371.4064
 11  8 12 18 12 15.0000000  0  8G24G07G08G28G13G19G23G11
   4283825.48047   3346792.72544  23792554.9144                   23792557.9614
  -7181191.90247  -5582032.48546  20515724.5784                   20515722.2974
 -11473458.85548  -8924879.70646  21636725.9694                   21636724.2544
  -7462661.18447  -5812838.77145  22791983.6024                   22791981.7624
   9062764.35547   7064083.35945  21628983.7424                   21628982.3094
   4526969.13748   3535899.58046  21799076.1024                   21799072.8834
  16392139.39146  12762686.02744  23567442.4924                   23567442.0124
  -9644946.60247  -7511146.31645  22333410.7664                   22333409.4414
 11  8 12 18 12 30.0000000  0  8G24G07G08G28G13G19G23G11
   4230078.75847   3304912.22944  23782327.3524                   23782329.9344
  -7212249.80947  -5606233.45346  20509814.3674                   20509812.2034
 -11524569.94548  -8964706.53646  21626999.5394                   21626998.0514
  -7498641.37147  -5840875.26245  22785136.3914                   22785134.4104
   9091496.72747   7086472.18845  21634451.0554                   21634450.1994
   4545232.89548   3550131.07146  21802551.3914                   21802548.3324
  16432269.42247  12793956.04644  23575079.7274                   23575079.6294
  -9691959.95747  -7547780.09445  22324464.1954                   22324462.9804
 11  8 12 18 12 45.0000000  0  8G24G07G08G28G13G19G23G11
   4176350.39547   3263045.99244  23772103.1094                   23772105.6414
  -7243227.03547  -5630371.56546  20503919.8524                   20503917.1524
 -11575648.25848  -9004507.80346  21617280.1094                   21617278.3094
  -7534576.48847  -5868876.64545  22778298.2274                   22778296.3364
   9120323.20347   7108934.32145  21639936.4694                   21639935.3914
   4563613.27348   3564453.43246  21806049.2734                   21806046.1134
  16472425.57047  12825246.46344  23582721.2504                   23582720.5274
  -9738883.94147  -7584344.20145  22315534.9454                   22315533.4104
 11  8 12 18 13  0.0000000  0  8G24G07G08G28G13G19G23G11
   4122637.26647   3221191.62744  23761881.7114                   23761884.0474
  -7274126.83647  -5654449.32346  20498039.3754                   20498037.0084
 -11626696.91848  -9044285.98546  21607565.6884                   21607563.8014
  -7570470.07847  -5896845.66745  22771467.6724                   22771465.7894
   9149239.83647   7131466.72645  21645438.9924                   21645438.4144
   4582106.69148   3578863.87146  21809568.4924                   21809564.7894
  16512604.00047  12856554.22344  23590366.9774                   23590366.1844
  -9785721.56647  -7620841.05645  22306621.9454                   22306620.7424
 11  8 12 18 13 15.0000000  0  8G24G07G08G28G13G19G23G11
   4068942.13347   3179351.29744  23751663.8444                   23751665.7544
  -7304946.60547  -5678464.73046  20492174.5784                   20492172.4104
 -11677713.24248  -9084038.95646  21597857.3204                   21597855.7894
  -7606319.91847  -5924780.61045  22764645.9064                   22764643.5434
   9178248.66447   7154070.95545  21650959.3204                   21650958.4304
   4600715.11748   3593363.93246  21813109.7974                   21813106.0164
  16552806.75446  12887880.97544  23598017.7584                   23598016.8914
  -9832470.23847  -7657268.56745  22297726.2034                   22297724.4614
 11  8 12 18 13 30.0000000  0  8G24G07G08G28G13G19G23G11
   4015261.34447   3137522.11243  23741448.5704                   23741450.5084
  -7335690.18448  -5702420.77146  20486324.5004                   20486321.9184
 -11728701.12948  -9123769.77446  21588154.5944                   21588153.2274
  -7642130.41847  -5952684.86545  22757831.3674                   22757829.6414
   9207345.21147   7176743.55445  21656496.5234                   21656495.1564
   4619434.13348   3607950.16846  21816671.5164                   21816668.3164
  16593029.43846  12919223.20244  23605671.1954                   23605671.2304
  -9879133.64147  -7693629.64745  22288846.8674                   22288844.6994
 11  8 12 18 13 45.0000000  0  8G24G07G08G28G13G19G23G11
   3961598.02047   3095706.58044  23731237.2664                   23731238.7504
  -7366354.50048  -5726315.04446  20480489.1804                   20480486.8094
 -11779657.49648  -9163476.01546  21578458.0314                   21578456.4614
  -7677898.40247  -5980556.00345  22751024.8674                   22751022.7814
   9236531.95747   7199486.43145  21662050.2274                   21662049.5124
   4638266.13748   3622624.44146  21820255.4774                   21820251.9654
  16633274.41446  12950582.81444  23613330.2734                   23613329.7704
  -9925708.65647  -7729921.86845  22279983.4694                   22279982.4104
 11  8 12 18 14  0.0000000  0  8G24G07G08G28G13G19G23G11
   3907951.38346   3053904.04043  23721028.5164                   23721030.0274
  -7396940.49648  -5750148.29947  20474669.2194                   20474666.5904
 -11830583.23848  -9203158.41546  21568767.2034                   21568765.4964
  -7713625.35247  -6008395.17745  22744226.1724                   22744224.3594
   9265807.44947   7222298.45245  21667621.5944                   21667620.0634
   4657209.54748   3637385.53446  21823859.8754                   21823856.7464
  16673540.20746  12981958.62344  23620992.3524                   23620991.0904
  -9972196.00047  -7766145.74345  22271137.2734                   22271135.9104
 11  8 12 18 14 15.0000000  0  8G24G07G08G28G13G19G23G11
   3854319.94147   3012113.33943  23710822.2194                   23710824.1954
  -7427449.73048  -5773921.73546  20468863.1174                   20468861.1374
 -11881479.87548  -9242818.12846  21559081.7344                   21559080.2504
  -7749313.16047  -6036203.86545  22737435.1484                   22737433.3204
   9295169.47347   7245177.91545  21673209.1724                   21673207.9924
   4676262.51248   3652231.99746  21827485.5164                   21827482.7194
  16713824.78547  13013349.11144  23628658.7814                   23628657.7074
 -10018597.23847  -7802302.53645  22262307.3284                   22262305.9224
 11  8 12 18 14 30.0000000  0  8G24G07G08G28G13G19G23G11
   3800703.56646   2970334.40943  23700619.8444                   23700621.7584
  -7457882.47348  -5797635.54646  20463072.1174                   20463069.6334
 -11932347.73448  -9282455.42446  21549401.8674                   21549400.1454
  -7784962.77047  -6063982.76645  22730651.3054                   22730649.0864
   9324617.20347   7268124.15445  21678812.5784                   21678811.4774
   4695424.07848   3667163.06146  21831132.4064                   21831128.9224
  16754127.01646  13044753.35444  23636327.2664                   23636327.3444
 -10064912.25847  -7838392.14445  22253493.3524                   22253492.1524
 11  8 12 18 14 45.0000000  0  8G24G07G08G28G13G19G23G11
   3747104.58647   2928569.02643  23690419.2894                   23690422.3204
  -7488236.63748  -5821288.14346  20457295.9694                   20457293.4264
 -11983184.85248  -9322068.75546  21539728.0944                   21539726.5634
  -7820571.88747  -6091730.11445  22723874.8054                   22723873.0434
   9354152.07047   7291138.30445  21684433.1724                   21684431.5164
   4714695.71148   3682179.91246  21834799.8204                   21834795.6334
  16794448.53146  13076172.59443  23644000.7114                   23644000.4024
 -10111139.07847  -7874413.03545  22244697.2894                   22244695.8484
 11  8 12 18 15  0.0000000  0  8G24G07G08G28G13G19G23G11
   3693522.34046   2886816.69543  23680223.2194                   23680225.3634
  -7518512.94148  -5844880.08946  20451534.2274                   20451532.0474
 -12033991.70348  -9361658.50846  21530060.1094                   21530058.5664
  -7856141.80947  -6119446.93345  22717105.9304                   22717104.4574
   9383772.77747   7314219.32145  21690069.7664                   21690068.4654
   4734076.24648   3697281.61546  21838487.3834                   21838483.8054
  16834787.94947  13107605.82444  23651676.8054                   23651676.3834
 -10157278.42247  -7910365.74945  22235917.0864                   22235915.7034
 11  8 12 18 15 15.0000000  0  8G24G07G08G28G13G19G23G11
   3639957.06647   2845077.53243  23670030.4304                   23670032.2194
  -7548711.30947  -5868411.28146  20445787.7344                   20445785.3284
 -12084768.39848  -9401224.75246  21520397.3524                   21520395.6294
  -7891672.82847  -6147133.43345  22710344.8524                   22710343.2194
   9413478.80147   7337366.83145  21695723.0634                   21695721.7384
   4753565.01248   3712467.66146  21842195.8674                   21842192.4964
  16875144.82846  13139052.64244  23659356.1334                   23659356.6134
 -10203329.99647  -7946250.07545  22227153.8914                   22227152.1764
 11  8 12 18 15 30.0000000  0  8G24G07G08G28G13G19G23G11
   3586408.19947   2803351.15343  23659840.3594                   23659842.5044
  -7578832.51648  -5891882.34547  20440056.1804                   20440053.8204
 -12135515.57048  -9440768.00046  21510740.2974                   21510739.0394
  -7927166.07447  -6174790.50145  22703590.3674                   22703588.6804
   9443268.77047   7360579.74645  21701391.1564                   21701390.7384
   4773160.84848   3727737.13446  21845925.3834                   21845921.5204
  16915517.80147  13170511.95944  23667039.6724                   23667039.6524
 -10249294.44147  -7982066.52745  22218406.9534                   22218405.6334
 11  8 12 18 15 45.0000000  0  8G24G07G08G28G13G19G23G11
   3532878.26247   2761639.57243  23649653.6644                   23649655.9304
  -7608874.23448  -5915291.48146  20434339.3284                   20434336.8554
 -12186230.94548  -9480286.46646  21501089.8524                   21501088.4104
  -7962619.53947  -6202416.56345  22696844.2504                   22696842.6524
   9473144.35247   7383859.38445  21707076.5164                   21707075.5274
   4792865.45348   3743091.36646  21849674.9304                   21849671.4224
  16955908.59446  13201985.19744  23674725.1644                   23674725.9304
 -10295169.20347  -8017813.07845  22209677.3834                   22209675.7194
 11  8 12 18 16  0.0000000  0  8G24G07G08G28G13G19G23G11
   3479365.72747   2719941.52744  23639471.1254                   23639473.0704
  -7638838.12148  -5938639.98246  20428637.4064                   20428634.9144
 -12236916.05148  -9519781.34446  21491444.4224                   21491442.9574
  -7998035.01647  -6230013.05545  22690104.8444                   22690102.8014
   9503103.47747   7407204.10945  21712777.6484                   21712776.5084
   4812676.70748   3758528.70146  21853444.8284                   21853441.2624
  16996315.05146  13233470.60044  23682415.7664                   23682413.9924
 -10340955.73447  -8053490.88945  22200964.9534                   22200963.1604
 11  8 12 18 16 15.0000000  0  8G24G07G08G28G13G19G23G11
   3425871.84047   2678258.02543  23629290.5234                   23629292.9774
  -7668723.05548  -5961926.94247  20422950.3834                   20422948.2704
 -12287569.68048  -9559251.70446  21481805.6024                   21481803.8094
  -8033411.82447  -6257579.36745  22683372.6174                   22683370.9774
   9533146.70747   7430614.37345  21718494.7584                   21718493.6454
   4832595.20348   3774049.59646  21857234.8674                   21857231.6134
  17036737.66846  13264968.66244  23690107.2894                   23690107.0124
 -10386652.87547  -8089099.03445  22192268.5164                   22192267.1684
 11  8 12 18 16 30.0000000  0  8G24G07G08G28G13G19G23G11
   3372396.19547   2636588.72143  23619115.0634                   23619117.1374
  -7698529.60948  -5985152.82747  20417278.5554                   20417276.1294
 -12338192.55148  -9598698.08946  21472172.3524                   21472170.9064
  -8068750.94547  -6285116.34145  22676647.9384                   22676645.9534
   9563272.70347   7454089.12945  21724227.3444                   21724226.9224
   4852619.72348   3789653.10746  21861046.0474                   21861042.3164
  17077175.27346  13296478.34644  23697802.9384                   23697802.0394
 -10432261.15247  -8124637.93045  22183589.4384                   22183588.1564
 11  8 12 18 16 45.0000000  0  8G24G07G08G28G13G19G23G11
   3318940.34446   2594934.88443  23608942.5234                   23608944.6954
  -7728256.18448  -6008316.40146  20411621.4844                   20411619.7464
 -12388783.11748  -9638119.30245  21462545.2974                   21462543.8524
  -8104051.25047  -6312623.07245  22669930.4454                   22669928.4104
   9593482.39847   7477629.10645  21729976.4924                   21729975.5164
   4872751.12948   3805339.90146  21864876.5864                   21864872.7584
  17117628.78946  13328000.46344  23705501.4304                   23705500.1414
 -10477778.88747  -8160106.30245  22174927.6414                   22174926.2034
 11  8 12 18 17  0.0000000  0  8G24G07G08G28G13G19G23G11
   3265503.15247   2553295.56143  23598773.3524                   23598775.9654
  -7757904.23848  -6031418.78246  20405980.0234                   20405977.6804
 -12439342.79748  -9677516.46146  21452923.9384                   21452922.4534
  -8139314.34447  -6340100.79745  22663220.2114                   22663218.8834
   9623773.89547   7501232.83045  21735740.6484                   21735739.7344
   4892987.55948   3821108.54946  21868727.0634                   21868723.9384
  17158096.35946  13359533.49543  23713201.3594                   23713201.3674
 -10523207.39147  -8195505.11945  22166282.8594                   22166281.9184
 11  8 12 18 17 15.0000000  0  8G24G07G08G28G13G19G23G11
   3212087.39547   2511672.93643  23588608.8284                   23588611.8364
  -7787471.03948  -6054457.85747  20400353.3054                   20400351.0234
 -12489868.85548  -9716887.39546  21443309.4144                   21443308.1954
  -8174538.14547  -6367547.89345  22656516.8134                   22656515.3954
   9654149.17247   7524901.83345  21741520.9064                   21741519.8244
   4913331.16448   3836960.69546  21872598.5864                   21872595.0984
  17198579.90646  13391079.01443  23720905.9454                   23720905.2774
 -10568543.84447  -8230832.20645  22157655.6334                   22157654.0904
 11  8 12 18 17 30.0000000  0  8G24G07G08G28G13G19G23G11
   3158691.84847   2470066.00843  23578448.3984                   23578449.9884
  -7816958.07848  -6077434.77147  20394742.0634                   20394739.7544
 -12540362.68448  -9756233.23046  21433700.3444                   21433699.0864
  -8209724.25447  -6394965.63345  22649821.5944                   22649819.8484
   9684606.21547   7548634.55045  21747316.9534                   21747315.6804
   4933779.91447   3852894.76846  21876490.0234                   21876486.1454
  17239077.30946  13422635.35744  23728611.6884                   23728611.5984
 -10613789.44147  -8266088.49445  22149046.0864                   22149044.6484
 11  8 12 18 17 45.0000000  0  8G24G07G08G28G13G19G23G11
   3105316.69547   2428475.05943  23568291.7664                   23568293.1684
  -7846365.50448  -6100349.64846  20389146.0634                   20389143.7234
 -12590824.04748  -9795553.76646  21424098.1094                   21424096.1844
  -8244872.92647  -6422354.21145  22643132.9614                   22643131.2664
   9715144.54747   7572430.61945  21753128.3134                   21753126.4924
   4954333.33647   3868910.42546  21880400.7664                   21880397.7384
  17279588.43446  13454202.30043  23736319.9924                   23736321.1564
 -10658944.10547  -8301273.91545  22140453.0394                   22140451.6954
 11  8 12 18 18  0.0000000  0  8G24G07G08G28G13G19G23G11
   3051965.76647   2386902.91344  23558139.4144                   23558140.7974
  -7875689.34048  -6123199.40046  20383566.0554                   20383564.1764
 -12641249.26248  -9834846.12346  21414502.1884                   21414500.8674
  -8279980.78947  -6449710.97245  22636452.1954                   22636450.7974
   9745767.31347   7596292.46645  21758954.7974                   21758953.7934
   4974994.29347   3885009.85846  21884332.8134                   21884329.1994
  17320116.02046  13485782.10043  23744033.4844                   23744033.1414
 -10704003.99647  -8336385.51845  22131878.6484                   22131877.2154
 11  8 12 18 18 15.0000000  0  8G24G07G08G28G13G19G23G11
   2998637.30547   2345348.32644  23547990.7974                   23547992.8014
  -7904931.54748  -6145985.53047  20378001.2424                   20377999.1414
 -12691640.30148  -9874111.87846  21404913.2274                   21404912.1844
  -8315050.20347  -6477037.78945  22629778.8834                   22629777.6294
   9776471.78547   7620217.97045  21764798.4454                   21764797.4534
   4995760.60247   3901191.37946  21888284.4064                   21888280.8794
  17360657.52746  13517372.78843  23751747.4144                   23751748.3444
 -10748971.02047  -8371424.74045  22123321.6414                   22123320.0634
 11  8 12 18 18 30.0000000  0  8G24G07G08G28G13G19G23G11
   2945329.72747   2303809.99844  23537846.7034                   23537848.6644
  -7934093.90248  -6168709.45346  20372452.3284                   20372450.1094
 -12741998.98848  -9913352.41346  21395330.6484                   21395328.8244
  -8350083.16447  -6504336.17745  22623112.6644                   22623110.8794
   9807255.80947   7644205.47145  21770656.2894                   21770654.8404
   5016629.93447   3917453.19646  21892255.6254                   21892252.2194
  17401210.86346  13548972.68743  23759465.0394                   23759464.7544
 -10793846.68747  -8406392.78745  22114781.7894                   22114780.5904
 11  8 12 18 18 45.0000000  0  8G24G07G08G28G13G19G23G11
   2892043.34047   2262288.22143  23527706.8984                   23527708.6174
  -7963176.22348  -6191371.00746  20366917.9384                   20366915.5904
 -12792324.94148  -9952567.43346  21385753.4844                   21385752.2234
  -8385079.72747  -6531606.24245  22616452.5944                   22616450.7704
   9838118.96947   7668254.64745  21776529.2664                   21776527.8444
   5037601.89547   3933794.96245  21896246.2344                   21896243.3364
  17441775.50446  13580581.34543  23767184.9064                   23767183.7814
 -10838630.68047  -8441289.37545  22106260.2974                   22106258.4414
 11  8 12 18 19  0.0000000  0  8G24G07G08G28G13G19G23G11
   2838780.50847   2220784.74144  23517571.0004                   23517572.6094
  -7992176.17648  -6213968.38046  20361399.0234                   20361397.0204
 -12842616.14148  -9991755.36746  21376183.5554                   21376182.4064
  -8420038.24247  -6558846.62345  22609800.4924                   22609798.7584
   9869062.73447   7692366.63445  21782417.6644                   21782416.2544
   5058678.10547   3950217.96846  21900257.2894                   21900253.8634
  17482353.19146  13612200.21943  23774905.7894                   23774905.4844
 -10883320.68747  -8476112.76745  22097755.5704                   22097754.0904
 11  8 12 18 19 15.0000000  0  8G24G07G08G28G13G19G23G11
   2785539.64847   2179298.45244  23507439.7034                   23507441.4804
  -8021095.60248  -6236502.99746  20355896.2114                   20355894.0944
 -12892874.16048 -10030917.45446  21366619.7424                   21366618.6684
  -8454960.54747  -6586058.80145  22603154.8914                   22603153.1254
   9900084.89147   7716539.70145  21788321.0314                   21788319.7344
   5079856.25047   3966720.40346  21904287.0634                   21904283.8634
  17522941.58646  13643827.43543  23782630.6174                   23782629.8754
 -10927918.33247  -8510864.18745  22089269.2734                   22089267.4224
 11  8 12 18 19 30.0000000  0  8G24G07G08G28G13G19G23G11
   2732323.55146   2137831.40843  23497312.2974                   23497315.0594
  -8049932.02348  -6258972.92946  20350408.5164                   20350406.2774
 -12943096.35948 -10070051.63746  21357062.8524                   21357061.2504
  -8489844.57047  -6613241.15545  22596516.5634                   22596515.0314
   9931187.43047   7740775.38645  21794239.9774                   21794238.4694
   5101138.34447   3983303.84945  21908337.0554                   21908333.6844
  17563542.56646  13675464.43243  23790356.1804                   23790356.2074
 -10972420.89547  -8545541.47745  22080800.4534                   22080799.0044
 11  8 12 18 19 45.0000000  0  8G24G07G08G28G13G19G23G11
   2679133.23847   2096384.45343  23487191.2974                   23487191.9384
  -8078684.43048  -6281377.41647  20344937.2814                   20344934.9734
 -12993281.66048 -10109157.05646  21347512.7814                   21347511.2344
  -8524689.64147  -6640393.15045  22589885.5634                   22589884.0864
   9962370.60947   7765073.93345  21800173.8204                   21800172.8874
   5122524.66048   3999968.49846  21912406.9064                   21912403.4574
  17604156.52046  13707111.54243  23798084.6174                   23798084.5234
 -11016827.43447  -8580143.95245  22072350.0634                   22072348.8834
 11  8 12 18 20  0.0000000  0  8G24G07G08G28G13G19G23G11
   2625967.54347   2054956.67943  23477073.9844                   23477075.3914
  -8107354.12948  -6303717.44547  20339481.5554                   20339479.5594
 -13043431.50847 -10148234.84846  21337969.7894                   21337968.3984
  -8559497.59447  -6667516.22145  22583261.9614                   22583259.8244
   9993632.47747   7789433.77645  21806122.7504                   21806121.9184
   5144013.37548   4016712.92346  21916495.9384                   21916492.6254
  17644781.55146  13738767.28743  23805816.7814                   23805815.9654
 -11061139.30147  -8614672.67245  22063917.7814                   22063916.1024
 11  8 12 18 20 15.0000000  0  8G24G07G08G28G13G19G23G11
   2572825.75447   2013547.50244  23466961.4614                   23466962.9614
  -8135941.93748  -6325993.66346  20334041.5634                   20334038.9804
 -13093546.93048 -10187285.82346  21328432.8054                   21328431.3244
  -8594269.49647  -6694611.20445  22576645.0554                   22576642.8594
  10024971.60947   7813853.83745  21812086.6804                   21812085.2034
   5165602.99647   4033535.99145  21920604.5864                   21920601.1564
  17685416.14846  13770430.50243  23813548.3054                   23813548.2464
 -11105357.12147  -8649128.09845  22055503.1804                   22055502.0044
